[[{"header":{"parameterUnit":"m.s-1","parameterCategory":1,"la1":31.0,"la2":29.5877,"lo1":-88.7671,"lo2":-86.6584,"dy":0.0162,"dx":0.0185,"nx":115,"ny":88,"refTime":"2026-03-02T12:00:00:Z","depth":0,"parameterNumber":2,"parameterNumberName":"U-component_of_WINDS"},"data":[0.0,0.0,0.0,0.0,0.0,0.0,0.0,0.0,0.0,0.0,0.0,0.0,0.0,0.0,0.0,0.0,0.0,0.0,0.0,0.0,0.0,0.0,0.0,0.0,0.0,0.0,0.0,0.0,0.0,0.0,0.0,0.0,0.0,0.0,0.0,0.0,0.0,0.0,0.0,0.0,0.0,0.0,0.0,0.0,0.0,0.0,0.0,0.0,0.0,0.0,0.0,0.0,0.0,0.0,0.0,0.0,0.0,0.0,0.0,0.0,0.0,0.0,0.0,0.0,0.0,0.0,0.0,0.0,0.0,0.0,0.0,0.0,0.0,0.0,0.0,0.0,0.0,0.0,0.0,0.0,0.0,0.0,0.0,0.0,0.0,0.0,0.0,0.0,0.0,0.0,0.0,0.0,0.0,0.0,0.0,0.0,0.0,0.0,0.0,0.0,0.0,0.0,0.0,0.0,0.0,0.0,0.0,0.0,0.0,0.0,0.0,0.0,0.0,0.0,0.0,0.0,0.0,0.0,0.0,0.0,0.0,0.0,0.0,0.0,0.0,0.0,0.0,0.0,0.0,0.0,0.0,0.0,0.0,0.0,0.0,0.0,0.0,0.0,0.0,0.0,0.0,0.0,0.0,0.0,0.0,0.0,0.0,0.0,0.0,0.0,0.0,0.0,0.0,0.0,0.0,0.0,0.0,0.0,0.0,0.0,0.0,0.0,0.0,0.0,0.0,0.0,0.0,0.0,0.0,0.0,0.0,0.0,0.0,0.0,0.0,0.0,0.0,0.0,0.0,0.0,0.0,0.0,0.0,0.0,0.0,0.0,0.0,0.0,0.0,0.0,0.0,0.0,0.0,0.0,0.0,0.0,0.0,0.0,0.0,0.0,0.0,0.0,0.0,0.0,0.0,0.0,0.0,0.0,0.0,0.0,0.0,0.0,0.0,0.0,0.0,0.0,0.0,0.0,0.0,0.0,0.0,0.0,0.0,0.0,0.0,0.0,0.0,0.0,0.0,0.0,0.0,0.0,0.0,0.0,0.0,0.0,0.0,0.0,0.0,0.0,0.0,0.0,0.0,0.0,0.0,0.0,0.0,0.0,0.0,0.0,0.0,0.0,0.0,0.0,0.0,0.0,0.0,0.0,0.0,0.0,0.0,0.0,0.0,0.0,0.0,0.0,0.0,0.0,0.0,0.0,0.0,0.0,0.0,0.0,0.0,0.0,0.0,0.0,0.0,0.0,0.0,0.0,0.0,0.0,0.0,0.0,0.0,0.0,0.0,0.0,0.0,0.0,0.0,0.0,0.0,0.0,0.0,0.0,0.0,0.0,0.0,0.0,0.0,0.0,0.0,0.0,0.0,0.0,0.0,0.0,0.0,0.0,0.0,0.0,0.0,0.0,0.0,0.0,0.0,0.0,0.0,0.0,0.0,0.0,0.0,0.0,0.0,0.0,0.0,0.0,0.0,0.0,0.0,0.0,0.0,0.0,0.0,0.0,0.0,0.0,0.0,0.0,0.0,0.0,0.0,0.0,0.0,0.0,0.0,0.0,0.0,0.0,0.0,0.0,0.0,0.0,0.0,0.0,0.0,0.0,0.0,0.0,0.0,0.0,0.0,0.0,0.0,0.0,0.0,0.0,0.0,0.0,0.0,0.0,0.0,0.0,0.0,0.0,0.0,0.0,0.0,0.0,0.0,0.0,0.0,0.0,0.0,0.0,0.0,0.0,0.0,0.0,0.0,0.0,0.0,0.0,0.0,0.0,0.0,0.0,0.0,0.0,0.0,0.0,0.0,0.0,0.0,0.0,0.0,0.0,0.0,0.0,0.0,0.0,0.0,0.0,0.0,0.0,0.0,0.0,0.0,0.0,0.0,0.0,0.0,0.0,0.0,0.0,0.0,0.0,0.0,0.0,0.0,0.0,0.0,0.0,0.0,0.0,0.0,0.0,0.0,0.0,0.0,0.0,0.0,0.0,0.0,0.0,0.0,0.0,0.0,0.0,0.0,0.0,0.0,0.0,0.0,0.0,0.0,0.0,0.0,0.0,0.0,0.0,0.0,0.0,0.0,0.0,0.0,0.0,0.0,0.0,0.0,0.0,0.0,0.0,0.0,0.0,0.0,0.0,0.0,0.0,0.0,0.0,0.0,0.0,0.0,0.0,0.0,0.0,0.0,0.0,0.0,0.0,0.0,0.0,0.0,0.0,0.0,0.0,0.0,0.0,0.0,0.0,0.0,0.0,0.0,0.0,0.0,0.0,0.0,0.0,0.0,0.0,0.0,0.0,0.0,0.0,0.0,0.0,0.0,0.0,0.0,0.0,0.0,0.0,0.0,0.0,0.0,0.0,0.0,0.0,0.0,0.0,0.0,0.0,0.0,0.0,0.0,0.0,0.0,0.0,0.0,0.0,0.0,0.0,0.0,0.0,0.0,0.0,0.0,0.0,0.0,0.0,0.0,0.0,0.0,0.0,0.0,0.0,0.0,0.0,0.0,0.0,0.0,0.0,0.0,0.0,0.0,0.0,0.0,0.0,0.0,0.0,0.0,0.0,0.0,0.0,0.0,0.0,0.0,0.0,0.0,0.0,0.0,0.0,0.0,0.0,0.0,0.0,0.0,0.0,0.0,0.0,0.0,0.0,0.0,0.0,0.0,0.0,0.0,0.0,0.0,0.0,0.0,0.0,0.0,0.0,0.0,0.0,0.0,0.0,0.0,0.0,0.0,0.0,0.0,0.0,0.0,0.0,0.0,0.0,0.0,0.0,0.0,0.0,0.0,0.0,0.0,0.0,0.0,0.0,0.0,0.0,0.0,0.0,0.0,0.0,0.0,0.0,0.0,0.0,0.0,0.0,0.0,0.0,0.0,0.0,0.0,0.0,0.0,0.0,0.0,0.0,0.0,0.0,0.0,0.0,0.0,0.0,0.0,0.0,0.0,0.0,0.0,0.0,0.0,0.0,0.0,0.0,0.0,0.0,0.0,0.0,0.0,0.0,0.0,0.0,0.0,0.0,0.0,0.0,0.0,0.0,0.0,0.0,0.0,0.0,0.0,0.0,0.0,0.0,0.0,0.0,0.0,0.0,0.0,0.0,0.0,0.0,0.0,0.0,0.0,0.0,0.0,0.0,0.0,0.0,0.0,0.0,0.0,0.0,0.0,0.0,0.0,0.0,0.0,0.0,0.0,0.0,0.0,0.0,0.0,0.0,0.0,0.0,0.0,0.0,0.0,0.0,0.0,0.0,0.0,0.0,0.0,0.0,0.0,0.0,0.0,0.0,0.0,0.0,0.0,0.0,0.0,0.0,0.0,0.0,0.0,0.0,0.0,0.0,0.0,0.0,0.0,0.0,0.0,0.0,0.0,0.0,0.0,0.0,0.0,0.0,0.0,0.0,0.0,0.0,0.0,0.0,0.0,0.0,0.0,0.0,0.0,0.0,0.0,0.0,0.0,0.0,0.0,0.0,0.0,0.0,0.0,0.0,0.0,0.0,0.0,0.0,0.0,0.0,0.0,0.0,0.0,0.0,0.0,0.0,0.0,0.0,0.0,0.0,0.0,0.0,0.0,0.0,0.0,0.0,0.0,0.0,0.0,0.0,0.0,0.0,0.0,0.0,0.0,0.0,0.0,0.0,0.0,0.0,0.0,0.0,0.0,0.0,0.0,0.0,0.0,0.0,0.0,0.0,0.0,0.0,0.0,0.0,0.0,0.0,0.0,0.0,0.0,0.0,0.0,0.0,0.0,0.0,0.0,0.0,0.0,0.0,0.0,0.0,0.0,0.0,0.0,0.0,0.0,0.0,0.0,0.0,0.0,0.0,0.0,0.0,0.0,0.0,0.0,0.0,0.0,0.0,0.0,0.0,0.0,0.0,0.0,0.0,0.0,0.0,0.0,0.0,0.0,0.0,0.0,0.0,0.0,0.0,0.0,0.0,0.0,0.0,0.0,0.0,0.0,0.0,0.0,0.0,0.0,0.0,0.0,0.0,0.0,0.0,0.0,0.0,0.0,0.0,0.0,0.0,0.0,0.0,0.0,0.0,0.0,0.0,0.0,0.0,0.0,0.0,0.0,0.0,0.0,0.0,0.0,0.0,0.0,0.0,0.0,0.0,0.0,0.0,0.0,0.0,0.0,0.0,0.0,0.0,0.0,0.0,0.0,0.0,0.0,0.0,0.0,0.0,0.0,0.0,0.0,0.0,0.0,0.0,0.0,0.0,0.0,0.0,0.0,0.0,0.0,0.0,0.0,0.0,0.0,0.0,0.0,0.0,0.0,0.0,-0.6424,0.0,0.0,0.0,0.0,0.0,0.0,0.0,0.0,0.0,0.0,0.0,0.0,0.0,0.0,0.0,0.0,0.0,0.0,0.0,0.0,0.0,0.0,0.0,0.0,0.0,0.0,0.0,0.0,0.0,0.0,0.0,0.0,0.0,0.0,0.0,0.0,0.0,0.0,0.0,0.0,0.0,0.0,0.0,0.0,0.0,0.0,0.0,0.0,0.0,0.0,0.0,0.0,0.0,0.0,0.0,0.0,0.0,0.0,0.0,0.0,0.0,0.0,0.0,0.0,0.0,0.0,0.0,0.0,0.0,0.0,0.0,0.0,0.0,0.0,0.0,0.0,0.0,0.0,0.0,0.0,0.0,0.0,0.0,0.0,0.0,0.0,0.0,0.0,0.0,0.0,0.0,0.0,0.0,0.0,0.0,0.0,0.0,0.0,0.0,0.0,0.0,0.0,0.0,0.0,0.0,0.0,0.0,0.0,0.0,0.0,-0.6894,-0.6733,-0.6703,-0.6575,-0.6406,0.0,0.0,0.0,0.0,0.0,0.0,0.0,0.0,0.0,0.0,0.0,0.0,0.0,0.0,0.0,0.0,0.0,0.0,0.0,0.0,0.0,0.0,0.0,0.0,0.0,0.0,0.0,0.0,0.0,0.0,0.0,0.0,0.0,0.0,0.0,0.0,0.0,0.0,0.0,0.0,0.0,0.0,0.0,0.0,0.0,0.0,0.0,0.0,0.0,0.0,0.0,0.0,0.0,0.0,0.0,0.0,0.0,0.0,0.0,0.0,0.0,0.0,0.0,0.0,0.0,0.0,0.0,0.0,0.0,0.0,0.0,0.0,0.0,0.0,0.0,0.0,0.0,0.0,0.0,0.0,0.0,0.0,0.0,0.0,0.0,0.0,0.0,0.0,0.0,0.0,0.0,0.0,0.0,0.0,0.0,0.0,0.0,0.0,0.0,0.0,0.0,0.0,0.0,0.0,0.0,0.0,0.0,0.0,0.0,0.0,0.0,0.0,-0.6723,-0.6589,-0.6719,0.0,0.0,0.0,0.0,0.0,0.0,0.0,0.0,0.0,0.0,0.0,0.0,0.0,0.0,0.0,0.0,0.0,0.0,0.0,0.0,0.0,0.0,0.0,0.0,0.0,0.0,0.0,0.0,0.0,0.0,0.0,0.0,0.0,0.0,0.0,0.0,0.0,0.0,0.0,0.0,0.0,0.0,0.0,0.0,0.0,0.0,0.0,0.0,0.0,0.0,0.0,0.0,0.0,0.0,0.0,0.0,0.0,0.0,0.0,0.0,0.0,0.0,0.0,0.0,0.0,0.0,0.0,0.0,0.0,0.0,0.0,0.0,0.0,0.0,0.0,0.0,0.0,0.0,0.0,0.0,0.0,0.0,0.0,0.0,0.0,0.0,0.0,0.0,0.0,0.0,0.0,0.0,0.0,0.0,0.0,0.0,0.0,0.0,0.0,0.0,0.0,0.0,0.0,0.0,0.0,0.0,0.0,0.0,0.0,0.0,-0.6254,-0.7071,-0.7045,0.0,-0.7576,0.0,0.0,0.0,0.0,0.0,0.0,0.0,0.0,0.0,0.0,0.0,0.0,0.0,0.0,0.0,0.0,0.0,0.0,0.0,0.0,0.0,0.0,0.0,0.0,0.0,0.0,0.0,0.0,0.0,0.0,0.0,0.0,0.0,0.0,0.0,0.0,0.0,0.0,0.0,0.0,0.0,0.0,0.0,0.0,0.0,0.0,0.0,0.0,0.0,0.0,0.0,0.0,0.0,0.0,0.0,0.0,0.0,0.0,0.0,0.0,0.0,0.0,0.0,0.0,0.0,0.0,0.0,0.0,0.0,0.0,0.0,0.0,0.0,0.0,0.0,0.0,0.0,0.0,0.0,0.0,0.0,0.0,0.0,0.0,0.0,0.0,0.0,0.0,0.0,0.0,0.0,0.0,0.0,0.0,0.0,0.0,0.0,0.0,0.0,0.0,0.0,0.0,0.0,0.0,0.0,0.0,0.0,0.0,0.0,0.0,-0.6602,-0.668,-0.6953,-0.7187,0.0,0.0,0.0,0.0,0.0,0.0,0.0,0.0,0.0,0.0,0.0,0.0,0.0,0.0,0.0,0.0,0.0,0.0,0.0,0.0,0.0,0.0,0.0,0.0,0.0,0.0,0.0,0.0,0.0,0.0,0.0,0.0,0.0,0.0,0.0,0.0,0.0,0.0,0.0,0.0,0.0,0.0,0.0,0.0,0.0,0.0,0.0,0.0,0.0,0.0,0.0,0.0,0.0,0.0,0.0,0.0,0.0,0.0,0.0,0.0,0.0,0.0,0.0,0.0,0.0,0.0,0.0,0.0,0.0,0.0,0.0,0.0,0.0,0.0,0.0,0.0,0.0,0.0,0.0,0.0,0.0,0.0,0.0,0.0,0.0,0.0,0.0,0.0,0.0,0.0,0.0,0.0,0.0,0.0,0.0,0.0,0.0,0.0,0.0,0.0,0.0,0.0,0.0,0.0,0.0,0.0,0.0,0.0,0.0,0.0,-0.6537,-0.6875,-0.679,-0.7083,-0.7227,-0.7109,0.0,0.0,0.0,0.0,0.0,0.0,0.0,0.0,0.0,0.0,0.0,0.0,0.0,0.0,0.0,0.0,0.0,0.0,0.0,0.0,0.0,0.0,0.0,0.0,0.0,0.0,0.0,0.0,0.0,0.0,0.0,0.0,0.0,0.0,0.0,0.0,0.0,0.0,0.0,0.0,0.0,0.0,0.0,0.0,0.0,0.0,0.0,0.0,0.0,0.0,0.0,0.0,0.0,0.0,0.0,0.0,0.0,0.0,0.0,0.0,0.0,0.0,0.0,0.0,0.0,0.0,0.0,0.0,0.0,0.0,0.0,0.0,0.0,0.0,0.0,0.0,0.0,0.0,0.0,0.0,0.0,0.0,0.0,0.0,0.0,0.0,0.0,0.0,0.0,0.0,0.0,0.0,0.0,0.0,0.0,0.0,0.0,0.0,0.0,0.0,0.0,0.0,0.0,0.0,0.0,0.0,0.0,0.0,0.0,-0.6817,-0.6823,-0.7601,-0.7659,-0.7486,0.0,0.0,0.0,0.0,0.0,0.0,0.0,0.0,0.0,0.0,0.0,0.0,0.0,0.0,0.0,0.0,0.0,0.0,0.0,0.0,0.0,0.0,0.0,0.0,0.0,0.0,0.0,0.0,0.0,0.0,0.0,0.0,0.0,0.0,0.0,0.0,0.0,0.0,0.0,0.0,0.0,0.0,0.0,0.0,0.0,0.0,0.0,0.0,0.0,0.0,0.0,0.0,0.0,0.0,0.0,0.0,0.0,0.0,0.0,0.0,0.0,0.0,0.0,0.0,0.0,0.0,0.0,0.0,0.0,0.0,0.0,0.0,0.0,0.0,0.0,0.0,0.0,0.0,0.0,0.0,0.0,0.0,0.0,0.0,0.0,0.0,0.0,0.0,0.0,0.0,0.0,0.0,0.0,0.0,0.0,0.0,0.0,0.0,0.0,0.0,0.0,0.0,0.0,0.0,0.0,0.0,0.0,0.0,0.0,-0.6007,-0.6097,-0.6752,-0.792,-0.6941,-0.6545,0.0,0.0,0.0,0.0,0.0,0.0,0.0,0.0,0.0,0.0,0.0,0.0,0.0,0.0,0.0,0.0,0.0,0.0,0.0,0.0,0.0,0.0,0.0,0.0,0.0,0.0,0.0,0.0,0.0,0.0,0.0,0.0,0.0,0.0,0.0,0.0,0.0,0.0,0.0,0.0,0.0,0.0,0.0,0.0,0.0,0.0,0.0,0.0,0.0,0.0,0.0,0.0,0.0,0.0,0.0,0.0,0.0,0.0,0.0,0.0,0.0,0.0,0.0,0.0,0.0,0.0,0.0,0.0,0.0,0.0,0.0,0.0,0.0,0.0,0.0,0.0,0.0,0.0,0.0,0.0,0.0,0.0,0.0,0.0,0.0,0.0,0.0,0.0,0.0,0.0,0.0,0.0,0.0,0.0,0.0,0.0,0.0,0.0,0.0,0.0,0.0,0.0,0.0,0.0,0.0,0.0,0.0,0.0,0.0,-0.5678,0.0,-0.6835,0.0,-0.6507,-0.5956,0.0,0.0,0.0,0.0,0.0,0.0,0.0,0.0,0.0,0.0,0.0,0.0,0.0,0.0,0.0,0.0,0.0,0.0,0.0,0.0,0.0,0.0,0.0,0.0,0.0,0.0,0.0,0.0,0.0,0.0,0.0,0.0,0.0,0.0,0.0,0.0,0.0,0.0,0.0,0.0,0.0,0.0,0.0,0.0,0.0,0.0,0.0,0.0,0.0,0.0,0.0,0.0,0.0,0.0,0.0,0.0,0.0,0.0,0.0,0.0,0.0,0.0,0.0,0.0,0.0,0.0,0.0,0.0,0.0,0.0,0.0,0.0,0.0,0.0,0.0,0.0,0.0,0.0,0.0,0.0,0.0,0.0,0.0,0.0,0.0,0.0,0.0,0.0,0.0,0.0,0.0,0.0,0.0,0.0,0.0,0.0,0.0,0.0,0.0,0.0,0.0,0.0,0.0,0.0,0.0,0.0,0.0,0.0,-0.5673,-0.6797,-0.714,-0.703,-0.6562,-0.6473,-0.5784,0.0,0.0,0.0,0.0,0.0,0.0,0.0,0.0,0.0,0.0,0.0,0.0,0.0,0.0,0.0,0.0,0.0,0.0,0.0,0.0,0.0,0.0,0.0,0.0,0.0,0.0,0.0,0.0,0.0,0.0,0.0,0.0,0.0,0.0,0.0,0.0,0.0,0.0,0.0,0.0,0.0,0.0,0.0,0.0,0.0,0.0,0.0,0.0,0.0,0.0,0.0,0.0,0.0,0.0,0.0,0.0,0.0,0.0,0.0,0.0,0.0,0.0,0.0,0.0,0.0,0.0,0.0,0.0,0.0,0.0,0.0,0.0,0.0,0.0,0.0,0.0,0.0,0.0,0.0,0.0,0.0,0.0,0.0,0.0,0.0,0.0,0.0,0.0,0.0,0.0,0.0,0.0,0.0,0.0,0.0,0.0,0.0,0.0,0.0,0.0,0.0,0.0,0.0,0.0,0.0,0.0,0.0,0.0,0.0,-0.5734,-0.6037,-0.6428,-0.6777,-0.5859,-0.5508,0.0,0.0,0.0,0.0,0.0,0.0,0.0,0.0,0.0,0.0,0.0,0.0,0.0,0.0,0.0,0.0,0.0,0.0,0.0,0.0,0.0,0.0,0.0,0.0,0.0,0.0,0.0,0.0,0.0,0.0,0.0,0.0,0.0,0.0,0.0,0.0,0.0,0.0,0.0,0.0,0.0,0.0,0.0,0.0,0.0,0.0,0.0,0.0,0.0,0.0,0.0,0.0,0.0,0.0,0.0,0.0,0.0,0.0,0.0,0.0,0.0,0.0,0.0,0.0,0.0,0.0,0.0,0.0,0.0,0.0,0.0,0.0,0.0,0.0,0.0,0.0,0.0,0.0,0.0,0.0,0.0,0.0,0.0,0.0,0.0,0.0,0.0,0.0,0.0,0.0,0.0,0.0,0.0,0.0,0.0,0.0,0.0,0.0,0.0,0.0,0.0,0.0,0.0,0.0,0.0,0.0,0.0,0.0,0.0,-0.5613,-0.6085,-0.6528,-0.6838,-0.5853,-0.5505,-0.5893,0.0,0.0,0.0,0.0,0.0,0.0,0.0,0.0,0.0,0.0,0.0,0.0,0.0,0.0,0.0,0.0,0.0,0.0,0.0,0.0,0.0,0.0,0.0,0.0,0.0,0.0,0.0,0.0,0.0,0.0,0.0,0.0,0.0,0.0,0.0,0.0,0.0,0.0,0.0,0.0,0.0,0.0,0.0,0.0,0.0,0.0,0.0,0.0,0.0,0.0,0.0,0.0,0.0,0.0,0.0,0.0,0.0,0.0,0.0,0.0,0.0,0.0,0.0,0.0,0.0,0.0,0.0,0.0,0.0,0.0,0.0,0.0,0.0,0.0,0.0,0.0,0.0,0.0,0.0,0.0,0.0,0.0,0.0,0.0,0.0,0.0,0.0,0.0,0.0,0.0,0.0,0.0,0.0,0.0,0.0,0.0,0.0,0.0,0.0,0.0,0.0,0.0,0.0,0.0,0.0,0.0,0.0,0.0,-0.6263,-0.7083,-0.722,-0.6697,-0.6357,-0.5789,0.0,0.0,0.0,0.0,0.0,0.0,0.0,0.0,0.0,0.0,0.0,0.0,0.0,0.0,0.0,0.0,0.0,0.0,0.0,0.0,0.0,0.0,0.0,0.0,0.0,0.0,0.0,0.0,0.0,0.0,0.0,0.0,0.0,0.0,0.0,0.0,0.0,0.0,0.0,0.0,0.0,0.0,0.0,0.0,0.0,0.0,0.0,0.0,0.0,0.0,0.0,0.0,0.0,0.0,0.0,0.0,0.0,0.0,0.0,0.0,0.0,0.0,0.0,0.0,0.0,0.0,0.0,0.0,0.0,0.0,0.0,0.0,0.0,0.0,0.0,0.0,0.0,0.0,0.0,0.0,0.0,0.0,0.0,0.0,0.0,0.0,0.0,0.0,0.0,0.0,0.0,0.0,0.0,0.0,0.0,0.0,0.0,0.0,0.0,0.0,0.0,0.0,0.0,0.0,0.0,0.0,0.0,0.0,0.0,-0.7123,-0.7381,-0.7432,-0.7249,-0.6572,-0.6187,0.0,0.0,0.0,0.0,0.0,0.0,0.0,0.0,0.0,0.0,0.0,0.0,0.0,0.0,0.0,0.0,0.0,0.0,0.0,0.0,0.0,0.0,0.0,0.0,0.0,0.0,0.0,0.0,0.0,0.0,0.0,0.0,0.0,0.0,0.0,0.0,0.0,0.0,0.0,0.0,0.0,0.0,0.0,0.0,0.0,0.0,0.0,0.0,0.0,0.0,0.0,0.0,0.0,0.0,0.0,0.0,0.0,0.0,0.0,0.0,0.0,0.0,0.0,0.0,0.0,0.0,0.0,0.0,0.0,0.0,0.0,0.0,0.0,0.0,0.0,0.0,0.0,0.0,0.0,0.0,0.0,0.0,0.0,0.0,0.0,0.0,0.0,0.0,0.0,0.0,0.0,0.0,0.0,0.0,0.0,0.0,0.0,0.0,0.0,0.0,0.0,0.0,0.0,0.0,0.0,0.0,0.0,0.0,-0.6581,-0.7475,-0.7209,-0.7186,-0.7502,-0.7005,-0.663,0.0,0.0,0.0,0.0,0.0,0.0,0.0,0.0,0.0,0.0,0.0,0.0,0.0,0.0,0.0,0.0,0.0,0.0,0.0,0.0,0.0,0.0,0.0,0.0,0.0,0.0,0.0,0.0,0.0,0.0,0.0,0.0,0.0,0.0,0.0,0.0,0.0,0.0,0.0,0.0,0.0,0.0,0.0,0.0,0.0,0.0,0.0,0.0,0.0,0.0,0.0,0.0,0.0,0.0,0.0,0.0,0.0,0.0,0.0,0.0,0.0,0.0,0.0,0.0,0.0,0.0,0.0,0.0,0.0,0.0,0.0,0.0,0.0,0.0,0.0,0.0,0.0,0.0,0.0,0.0,0.0,0.0,0.0,0.0,0.0,0.0,0.0,0.0,0.0,0.0,0.0,0.0,0.0,0.0,0.0,0.0,0.0,0.0,0.0,0.0,0.0,0.0,0.0,0.0,0.0,0.0,0.0,0.0,-0.6666,-0.7529,-0.6793,-0.6782,-0.7539,-0.7475,-0.7025,0.0,0.0,0.0,0.0,0.0,0.0,0.0,0.0,0.0,0.0,0.0,0.0,0.0,0.0,0.0,0.0,0.0,0.0,0.0,0.0,0.0,0.0,0.0,0.0,0.0,0.0,0.0,0.0,0.0,0.0,0.0,0.0,0.0,0.0,0.0,0.0,0.0,0.0,0.0,0.0,0.0,0.0,0.0,0.0,0.0,0.0,0.0,0.0,0.0,0.0,0.0,0.0,0.0,0.0,0.0,0.0,0.0,0.0,0.0,0.0,0.0,0.0,0.0,0.0,0.0,0.0,0.0,0.0,0.0,0.0,0.0,0.0,0.0,0.0,0.0,0.0,0.0,0.0,0.0,0.0,0.0,0.0,0.0,0.0,0.0,0.0,0.0,0.0,0.0,0.0,0.0,0.0,0.0,0.0,0.0,0.0,0.0,0.0,0.0,0.0,0.0,0.0,0.0,0.0,0.0,0.0,0.0,0.0,-0.6944,-0.7766,-0.689,-0.6976,-0.8175,-0.7174,-0.6599,0.0,0.0,0.0,0.0,0.0,0.0,0.0,0.0,0.0,0.0,0.0,0.0,0.0,0.0,0.0,0.0,0.0,0.0,0.0,0.0,0.0,0.0,0.0,0.0,0.0,0.0,0.0,0.0,0.0,0.0,0.0,0.0,0.0,0.0,0.0,0.0,0.0,0.0,0.0,0.0,0.0,0.0,0.0,0.0,0.0,0.0,0.0,0.0,0.0,0.0,0.0,0.0,0.0,0.0,0.0,0.0,0.0,0.0,0.0,0.0,0.0,0.0,0.0,0.0,0.0,0.0,0.0,0.0,0.0,0.0,0.0,0.0,0.0,0.0,0.0,0.0,0.0,0.0,0.0,0.0,0.0,0.0,0.0,0.0,0.0,0.0,0.0,0.0,0.0,0.0,0.0,0.0,0.0,0.0,0.0,0.0,0.0,0.0,0.0,0.0,0.0,0.0,0.0,0.0,0.0,0.0,0.0,0.0,-0.715,-0.7848,-0.7194,-0.7328,-0.83,-0.7376,-0.6807,0.0,0.0,0.0,0.0,0.0,0.0,0.0,0.0,0.0,0.0,0.0,0.0,0.0,0.0,0.0,0.0,0.0,0.0,0.0,0.0,0.0,0.0,0.0,0.0,0.0,0.0,0.0,0.0,0.0,0.0,0.0,0.0,0.0,0.0,0.0,0.0,0.0,0.0,0.0,0.0,0.0,0.0,0.0,0.0,0.0,0.0,0.0,0.0,0.0,0.0,0.0,0.0,0.0,0.0,0.0,0.0,0.0,0.0,0.0,0.0,0.0,0.0,0.0,0.0,0.0,0.0,0.0,0.0,0.0,0.0,0.0,0.0,0.0,0.0,0.0,0.0,0.0,0.0,0.0,0.0,0.0,0.0,0.0,0.0,0.0,0.0,0.0,0.0,0.0,0.0,0.0,0.0,0.0,0.0,0.0,0.0,0.0,0.0,0.0,0.0,0.0,0.0,0.0,0.0,0.0,0.0,0.0,-0.6712,-0.7299,-0.785,-0.7511,-0.7657,-0.8405,-0.7708,-0.7243,-0.7158,0.0,0.0,0.0,0.0,0.0,0.0,0.0,0.0,0.0,0.0,0.0,0.0,0.0,0.0,0.0,0.0,0.0,0.0,0.0,0.0,0.0,0.0,0.0,0.0,0.0,0.0,0.0,0.0,0.0,0.0,0.0,0.0,0.0,0.0,0.0,0.0,0.0,0.0,-0.1129,-0.044,0.0,0.0,0.0,0.0,0.0,0.0,0.0,0.0,0.0,0.0,0.0,0.0,0.0,0.0,0.0,0.0,0.0,0.0,0.0,0.0,0.0,0.0,0.0,0.0,0.0,0.0,0.0,0.0,0.0,0.0,0.0,0.0,0.0,0.0,0.0,0.0,0.0,0.0,0.0,0.0,0.0,0.0,0.0,0.0,0.0,0.0,0.0,0.0,0.0,0.0,0.0,0.0,0.0,0.0,0.0,0.0,0.0,0.0,0.0,0.0,0.0,0.0,0.0,0.0,0.0,-0.6503,-0.6837,-0.7299,-0.7874,-0.7511,-0.7756,-0.8646,-0.7806,-0.7449,-0.7694,0.0,0.0,0.0,0.0,0.0,0.0,0.0,0.0,0.0,0.0,0.0,0.0,0.0,0.0,0.0,0.0,0.0,0.0,0.0,0.0,0.0,0.0,0.0,0.0,0.0,0.0,0.0,0.0,0.0,0.0,0.0,0.0,0.0,0.0,0.0,0.0,0.0,0.0,0.0,-0.0333,0.0,0.0,0.0,0.0,0.0,0.0,0.0,0.0,0.0,0.0,0.0,0.0,0.0,0.0,0.0,0.0,0.0,0.0,0.0,0.0,0.0,0.0,0.0,0.0,0.0,0.0,0.0,0.0,0.0,0.0,0.0,0.0,0.0,0.0,0.0,0.0,0.0,0.0,0.0,0.0,0.0,0.0,0.0,0.0,0.0,0.0,0.0,0.0,0.0,0.0,0.0,0.0,0.0,0.0,0.0,0.0,0.0,0.0,0.0,0.0,0.0,0.0,0.0,0.0,0.0,-0.6683,-0.719,-0.7608,-0.79,-0.8024,-0.8306,-0.8751,-0.7896,-0.7576,0.0,0.0,0.0,0.0,0.0,0.0,0.0,0.0,0.0,0.0,0.0,0.0,0.0,0.0,0.0,0.0,0.0,0.0,0.0,0.0,0.0,0.0,0.0,0.0,0.0,0.0,0.0,0.0,0.0,0.0,0.0,0.0,0.0,0.0,0.0,0.0,0.0,0.0,0.0,0.0,-0.0772,-0.0349,-0.0052,0.0,0.0,0.0,0.0,0.0,0.0,0.0,0.0,0.0,0.0,0.0,0.0,0.0,0.0,0.0,0.0,0.0,0.0,0.0,0.0,0.0,0.0,0.0,0.0,0.0,0.0,0.0,0.0,0.0,0.0,0.0,0.0,0.0,0.0,0.0,0.0,0.0,0.0,0.0,0.0,0.0,0.0,0.0,0.0,0.0,0.0,0.0,0.0,0.0,0.0,0.0,0.0,0.0,0.0,0.0,0.0,0.0,0.0,0.0,0.0,0.0,0.0,0.0,-0.6686,-0.7439,-0.7846,-0.7925,-0.8472,-0.8778,-0.8711,-0.8107,-0.7747,0.0,0.0,0.0,0.0,0.0,0.0,0.0,0.0,0.0,0.0,0.0,0.0,0.0,0.0,0.0,0.0,0.0,0.0,0.0,0.0,0.0,0.0,0.0,0.0,0.0,0.0,0.0,0.0,0.0,0.0,0.0,0.0,0.0,0.0,0.0,0.0,0.0,0.0,0.0,0.0,0.0,-0.0722,0.0,0.0,0.0,0.0,0.0,0.0,0.0,0.0,0.0,0.0,0.0,0.0,0.0,0.0,0.0,0.0,0.0,0.0,0.0,0.0,0.0,0.0,0.0,0.0,0.0,0.0,0.0,0.0,0.0,0.0,0.0,0.0,0.0,0.0,0.0,0.0,0.0,0.0,0.0,0.0,0.0,0.0,0.0,0.0,0.0,0.0,0.0,0.0,0.0,0.0,0.0,0.0,0.0,0.0,0.0,0.0,0.0,0.0,0.0,0.0,0.0,0.0,0.0,0.0,-0.6284,-0.7107,-0.7667,-0.7912,-0.8485,-0.8697,-0.8469,-0.8564,-0.8176,0.0,0.0,0.0,0.0,0.0,0.0,0.0,0.0,0.0,0.0,0.0,0.0,0.0,0.0,0.0,0.0,0.0,0.0,0.0,0.0,0.0,0.0,0.0,0.0,0.0,0.0,0.0,0.0,0.0,0.0,0.0,0.0,0.0,0.0,0.0,0.0,0.0,0.0,0.0,0.0,0.0,-0.0802,-0.0112,0.0,0.0,0.0,0.0,0.0,0.0,0.0,0.0,0.0,0.0,0.0,0.0,0.0,0.0,0.0,0.0,0.0,0.0,0.0,0.0,0.0,0.0,0.0,0.0,0.0,0.0,0.0,0.0,0.0,0.0,0.0,0.0,0.0,0.0,0.0,0.0,0.0,0.0,0.0,0.0,0.0,0.0,0.0,0.0,0.0,0.0,0.0,0.0,0.0,0.0,0.0,0.0,0.0,0.0,0.0,0.0,0.0,0.0,0.0,0.0,0.0,0.0,-0.6207,-0.6767,-0.7398,-0.7882,-0.8189,-0.8591,-0.8671,-0.8414,-0.8337,-0.7885,0.0,0.0,0.0,0.0,0.0,0.0,0.0,0.0,0.0,0.0,0.0,0.0,0.0,0.0,0.0,0.0,0.0,0.0,0.0,0.0,0.0,0.0,0.0,0.0,0.0,0.0,0.0,0.0,0.0,0.0,0.0,0.0,0.0,0.0,0.0,0.0,0.0,0.0,0.0,0.0,0.0,0.0,-0.0706,-0.0265,0.0,0.0,0.0,0.0,0.0,0.0,0.0,0.0,0.0,0.0,0.0,0.0,0.0,0.0,0.0,0.0,0.0,0.0,0.0,0.0,0.0,0.0,0.0,0.0,0.0,0.0,0.0,0.0,0.0,0.0,0.0,0.0,0.0,0.0,0.0,0.0,0.0,0.0,0.0,0.0,0.0,0.0,0.0,0.0,0.0,0.0,0.0,0.0,0.0,0.0,0.0,0.0,0.0,0.0,0.0,0.0,0.0,0.0,0.0,0.0,0.0,0.0,-0.7039,-0.7625,-0.8057,-0.8401,-0.8657,-0.8618,-0.8282,-0.8111,0.0,0.0,0.0,0.0,0.0,0.0,0.0,0.0,0.0,0.0,0.0,0.0,0.0,0.0,0.0,0.0,0.0,0.0,0.0,0.0,0.0,0.0,0.0,0.0,0.0,0.0,0.0,-0.2722,0.0,0.0,0.0,0.0,0.0,0.0,0.0,0.0,0.0,0.0,0.0,0.0,0.0,0.0,-0.1714,-0.1218,-0.0492,0.0,0.0,0.0,-0.0098,-0.0372,-0.0418,-0.0644,0.0,0.0,0.0,0.0,0.0,0.0,0.0,0.0,0.0,0.0,0.0,0.0,0.0,0.0,0.0,0.0,0.0,0.0,0.0,0.0,0.0,0.0,0.0,0.0,0.0,0.0,0.0,0.0,0.0,0.0,0.0,0.0,0.0,0.0,0.0,0.0,0.0,0.0,0.0,0.0,0.0,0.0,0.0,0.0,0.0,0.0,0.0,0.0,0.0,0.0,0.0,0.0,0.0,0.0,0.0,-0.6665,-0.7457,-0.8071,-0.8402,-0.8657,-0.8512,-0.7965,-0.8204,-0.7705,0.0,0.0,0.0,0.0,0.0,0.0,0.0,0.0,0.0,0.0,0.0,0.0,0.0,0.0,0.0,0.0,0.0,0.0,0.0,0.0,0.0,0.0,0.0,0.0,0.0,0.0,0.0,0.0,0.0,0.0,0.0,0.0,0.0,0.0,0.0,0.0,0.0,0.0,0.0,0.0,0.0,-0.1967,-0.1376,-0.0539,0.0,0.0,0.0,-0.0357,-0.1346,-0.1497,-0.175,-0.2491,0.0,0.0,0.0,0.0,0.0,0.0,0.0,0.0,0.0,0.0,0.0,0.0,0.0,0.0,0.0,0.0,0.0,0.0,0.0,0.0,0.0,0.0,0.0,0.0,0.0,0.0,0.0,0.0,0.0,0.0,0.0,0.0,0.0,0.0,0.0,0.0,0.0,0.0,0.0,0.0,0.0,0.0,0.0,0.0,0.0,0.0,0.0,0.0,0.0,0.0,0.0,0.0,0.0,-0.67,-0.7153,-0.7632,-0.8139,-0.863,-0.8751,-0.8617,-0.8229,-0.8335,-0.7866,0.0,0.0,0.0,0.0,0.0,0.0,0.0,0.0,0.0,0.0,0.0,0.0,0.0,0.0,0.0,0.0,0.0,0.0,0.0,0.0,0.0,0.0,0.0,0.0,0.0,0.0,0.0,0.0,-0.2736,-0.2669,-0.2628,0.0,0.0,0.0,0.0,0.0,0.0,0.0,0.0,0.0,0.0,-0.2095,-0.2138,-0.0934,0.0,0.0,-0.1062,-0.1442,-0.2385,-0.2451,-0.2629,-0.3259,-0.3158,0.0,0.0,0.0,0.0,0.0,0.0,0.0,0.0,0.0,0.0,0.0,0.0,0.0,0.0,0.0,0.0,0.0,0.0,0.0,0.0,0.0,0.0,0.0,0.0,0.0,0.0,0.0,0.0,0.0,0.0,0.0,0.0,0.0,0.0,0.0,0.0,0.0,0.0,0.0,0.0,0.0,0.0,0.0,0.0,0.0,0.0,0.0,0.0,0.0,0.0,0.0,0.0,-0.6965,-0.7511,-0.7764,-0.8192,-0.8778,-0.8791,-0.8671,-0.8415,-0.8389,-0.7961,0.0,0.0,0.0,0.0,0.0,0.0,0.0,0.0,0.0,0.0,0.0,0.0,0.0,0.0,0.0,0.0,0.0,0.0,0.0,0.0,0.0,0.0,0.0,0.0,0.0,0.0,0.0,0.0,-0.3055,-0.298,-0.2856,0.0,0.0,0.0,0.0,0.0,0.0,0.0,0.0,0.0,0.0,-0.2376,-0.2696,-0.1738,-0.1242,-0.2033,-0.2162,-0.2524,-0.3437,-0.3533,-0.3693,-0.4251,0.0,0.0,0.0,0.0,0.0,0.0,0.0,0.0,0.0,0.0,0.0,0.0,0.0,0.0,0.0,0.0,0.0,0.0,0.0,0.0,0.0,0.0,0.0,0.0,0.0,0.0,0.0,0.0,0.0,0.0,-0.7759,0.0,0.0,0.0,0.0,0.0,0.0,0.0,0.0,0.0,0.0,0.0,0.0,0.0,0.0,0.0,0.0,0.0,0.0,0.0,0.0,0.0,0.0,-0.697,-0.7511,-0.7789,-0.8204,-0.8778,-0.8791,-0.8671,-0.8415,-0.8389,-0.7949,-0.7033,0.0,0.0,0.0,0.0,0.0,0.0,0.0,0.0,0.0,0.0,0.0,0.0,0.0,0.0,0.0,0.0,0.0,0.0,0.0,0.0,0.0,0.0,0.0,0.0,0.0,0.0,-0.2939,-0.2901,-0.2854,0.0,0.0,0.0,0.0,0.0,0.0,0.0,0.0,0.0,0.0,-0.253,-0.287,-0.2931,-0.308,-0.3191,-0.3359,-0.3216,-0.346,-0.4521,-0.4772,-0.5012,0.0,0.0,0.0,0.0,0.0,0.0,0.0,0.0,0.0,0.0,0.0,0.0,0.0,0.0,0.0,0.0,0.0,0.0,0.0,0.0,0.0,0.0,0.0,0.0,0.0,0.0,0.0,-1.0039,-0.9686,0.0,0.0,0.0,0.0,0.0,0.0,0.0,0.0,0.0,0.0,0.0,-0.9166,-0.8993,0.0,0.0,0.0,0.0,0.0,0.0,0.0,0.0,0.0,0.0,0.0,0.0,-0.7539,-0.777,-0.807,-0.8417,-0.8778,-0.8791,-0.8764,-0.867,-0.8483,-0.7961,-0.7022,0.0,0.0,0.0,0.0,0.0,0.0,0.0,0.0,0.0,0.0,0.0,0.0,0.0,0.0,0.0,0.0,0.0,0.0,0.0,0.0,0.0,0.0,0.0,0.0,0.0,-0.3706,0.0,0.0,0.0,0.0,0.0,0.0,0.0,0.0,0.0,0.0,0.0,-0.2416,-0.3223,-0.3085,-0.3233,-0.4099,-0.3814,-0.3745,0.0,0.0,0.0,0.0,0.0,0.0,0.0,0.0,0.0,0.0,0.0,0.0,0.0,0.0,-0.1544,-0.1259,-0.1527,-0.1659,-0.1225,0.0,0.0,0.0,0.0,0.0,0.0,0.0,0.0,0.0,0.0,0.0,0.0,0.0,0.0,-1.0849,0.0,-1.075,0.0,0.0,0.0,0.0,0.0,0.0,0.0,0.0,-1.074,-1.0665,-0.9953,-0.9778,-0.9799,0.0,-0.9379,-0.8656,0.0,0.0,0.0,0.0,0.0,0.0,0.0,0.0,-0.7884,-0.8202,-0.8417,-0.8737,-0.9071,-0.9005,-0.8938,-0.8938,-0.859,-0.8108,-0.7508,-0.7038,-0.6687,0.0,0.0,0.0,0.0,0.0,0.0,0.0,0.0,0.0,0.0,0.0,0.0,0.0,0.0,0.0,0.0,0.0,0.0,0.0,0.0,0.0,0.0,0.0,-0.3954,0.0,0.0,0.0,0.0,0.0,0.0,0.0,0.0,0.0,-0.2015,-0.2275,-0.2725,-0.3174,-0.3529,-0.406,-0.4847,0.0,0.0,0.0,0.0,0.0,0.0,0.0,-0.6498,-0.6512,-0.6035,-0.5437,-0.4705,-0.3542,-0.2439,-0.1615,0.0,0.0,-0.0848,-0.1647,-0.2296,-0.1453,-0.1663,-0.1864,-0.1524,-0.1451,-0.1481,0.0,0.0,0.0,0.0,0.0,0.0,0.0,0.0,-1.0899,-1.1272,0.0,-1.1606,0.0,0.0,0.0,0.0,0.0,-1.2309,0.0,0.0,-1.2351,-1.212,-1.0692,-1.0613,-1.0466,-1.0138,-1.0127,-0.9673,-0.8883,-0.9187,0.0,0.0,0.0,0.0,0.0,0.0,-0.8019,-0.8764,-0.8831,-0.9112,-0.9647,-0.9364,-0.9204,-0.919,-0.8697,-0.8415,-0.8389,-0.8044,-0.7619,-0.706,-0.6774,0.0,0.0,0.0,0.0,0.0,0.0,0.0,0.0,0.0,0.0,0.0,0.0,0.0,0.0,0.0,0.0,0.0,0.0,0.0,0.0,-0.3887,0.0,0.0,0.0,0.0,0.0,0.0,0.0,0.0,0.0,0.0,-0.1127,-0.2638,-0.3479,-0.2136,0.0,0.0,0.0,0.0,-0.6935,-0.707,-0.6997,-0.6957,-0.7092,-0.7272,-0.7265,-0.6979,0.0,0.0,-0.4291,-0.4089,-0.4095,-0.418,-0.4191,-0.3382,-0.0747,-0.2308,-0.3521,-0.2417,-0.3094,-0.399,-0.4143,-0.3916,-0.4049,-1.2309,0.0,0.0,0.0,0.0,-1.2453,-1.2647,-1.3028,-1.2932,-1.28,-1.2579,-1.2157,0.0,0.0,0.0,0.0,0.0,0.0,-1.3063,-1.2713,-1.2445,-1.1886,-1.1199,-1.1152,-1.1006,-1.0725,-1.0758,-1.0394,-0.9769,-1.0328,-0.9677,-0.7937,0.0,0.0,0.0,0.0,-0.8662,-0.8817,-0.9218,-0.9527,-0.9701,-0.9606,-0.9445,-0.9217,-0.8858,-0.859,-0.8402,-0.8083,-0.7832,-0.7648,-0.7375,0.0,0.0,0.0,0.0,0.0,0.0,0.0,0.0,0.0,0.0,0.0,0.0,0.0,0.0,0.0,0.0,0.0,0.0,0.0,-0.4003,-0.4052,-0.4019,0.0,0.0,0.0,0.0,0.0,0.0,0.0,0.0,0.0,-0.2775,-0.3131,-0.3721,0.0,0.0,-0.579,-0.6421,-0.7029,-0.7421,-0.7461,0.0,0.0,0.0,-0.7437,-0.7437,-0.7513,-0.7566,-0.7174,-0.5981,-0.5782,-0.5484,-0.4622,-0.5221,-0.5272,-0.3691,-0.3768,-0.4204,-0.3898,-0.412,-0.4354,-0.4394,-0.4422,-0.4471,-1.3437,-1.2966,-1.2626,-1.276,-1.3175,-1.299,-1.3095,-1.3386,-1.3361,-1.3386,-1.3448,-1.3097,-1.3028,-1.316,-1.3052,0.0,0.0,0.0,-1.4721,-1.4261,-1.3702,-1.2915,-1.198,-1.1975,-1.173,-1.1356,-1.136,-1.1119,-1.0619,-1.119,-1.0754,-0.9383,0.0,0.0,-0.9078,-0.9084,-0.9164,-0.9312,-0.9687,-0.9913,-1.005,-0.9928,-0.9713,-0.9405,-0.9231,-0.9032,-0.8724,-0.8538,-0.8365,-0.8246,-0.7989,-0.7582,0.0,0.0,0.0,0.0,0.0,0.0,0.0,0.0,0.0,0.0,0.0,-0.4983,-0.4097,0.0,0.0,0.0,-0.3969,-0.4073,-0.4266,-0.4301,0.0,0.0,0.0,0.0,0.0,0.0,0.0,-0.4704,-0.5369,-0.5574,-0.482,-0.4803,-0.4981,-0.5267,-0.5928,-0.6616,-0.7206,0.0,-0.7638,-0.7736,-0.7749,-0.7814,-0.7929,-0.7893,-0.79,-0.8045,-0.8253,-0.8163,-0.7483,-0.7285,-0.7018,-0.6467,-0.6829,-0.7138,-0.6383,-0.624,-0.5992,-0.5454,-0.5728,-0.6092,-0.6145,-0.6167,-0.6173,-1.4567,-1.4426,-1.3093,-1.2921,-1.3515,-1.3116,-1.2784,-1.2532,-1.2824,-1.3404,-1.4176,-1.4136,-1.4378,-1.4854,-1.5219,0.0,-1.5987,-1.6983,-1.6747,-1.5641,-1.5567,-1.458,-1.2862,-1.2824,-1.2529,-1.1998,-1.198,-1.177,-1.145,-1.1819,-1.204,-1.2135,-1.1043,-1.0765,-1.1193,-1.0047,-0.9636,-1.0085,-1.0125,-1.0287,-1.0589,-1.0316,-1.002,-0.9741,-0.9699,-0.9539,-0.9217,-0.9177,-0.9058,-0.8804,-0.8563,-0.8162,-0.7596,0.0,0.0,0.0,0.0,0.0,0.0,0.0,0.0,0.0,0.0,0.0,0.0,0.0,0.0,0.0,-0.4373,0.0,-0.4668,-0.4614,0.0,0.0,0.0,-0.4783,-0.4796,-0.5291,-0.5691,-0.5854,0.0,0.0,-0.6904,0.0,-0.6834,-0.5897,-0.6859,-0.7624,-0.7638,-0.7645,-0.7716,-0.8006,-0.8008,-0.8128,-0.8403,-0.8464,-0.8485,-0.8492,-0.8513,-0.8526,-0.848,-0.848,-0.8554,-0.8541,-0.8703,-0.8682,-0.8858,-0.8693,-0.8434,-0.6951,-0.761,-0.8507,-0.8494,-0.8507,-0.8493,-1.519,-1.5137,-1.4598,-1.4329,-1.426,-1.4153,-1.4188,-1.4344,-1.4162,-1.41,-1.4104,-1.3631,-1.4061,-1.5207,-1.6982,-1.7825,-1.7903,-1.7836,-1.7167,-1.6039,-1.5317,-1.433,-1.3113,-1.3106,-1.2925,-1.2596,-1.2588,-1.2315,-1.1801,-1.1883,-1.2499,-1.351,-1.2723,-1.1905,-1.1168,-1.1269,-1.091,-1.0098,-1.0356,-1.0519,-1.0586,-1.0519,-1.0314,-1.0005,-0.9793,-0.9538,-0.9204,-0.9005,-0.8871,-0.8804,-0.8738,-0.8563,-0.8201,-0.7319,0.0,0.0,0.0,0.0,0.0,0.0,0.0,0.0,0.0,-0.5789,-0.446,0.0,-0.5117,0.0,-0.4458,-0.4579,-0.4695,-0.4842,0.0,0.0,-0.5317,-0.546,-0.5673,-0.5815,-0.6052,-0.6444,-0.6681,-0.6911,-0.7253,-0.7489,-0.7533,-0.732,-0.7545,-0.7783,-0.7891,-0.7912,-0.8013,-0.8289,-0.8275,-0.8282,-0.8471,-0.8581,-0.8662,-0.8784,-0.8798,-0.8804,-0.8804,-0.8798,-0.8818,-0.8852,-0.8858,-0.8844,-0.8906,-0.8912,-0.8803,-0.8428,-0.8606,-0.8838,-0.8852,-0.8852,-0.8865,-1.5591,-1.5578,-1.5418,-1.5257,-1.5061,-1.483,-1.4839,-1.4972,-1.4812,-1.4629,-1.4521,-1.472,-1.5214,-1.6058,-1.8303,-1.9202,-1.9052,-1.9258,-1.8682,-1.7405,-1.639,-1.5281,-1.4126,-1.3607,-1.324,-1.2979,-1.2998,-1.2757,-1.2352,-1.2709,-1.3493,-1.4577,-1.4543,-1.4148,-1.3326,-1.2712,-1.1835,-1.0685,-1.0862,-1.0905,-1.0787,-1.0771,-1.064,-1.0327,-1.0184,-0.9873,-0.9459,-0.9285,-0.9072,-0.8818,-0.8791,-0.8684,-0.8415,-0.7776,-0.7219,0.0,0.0,0.0,0.0,0.0,0.0,0.0,0.0,0.0,0.0,0.0,-0.4971,-0.447,-0.4712,-0.495,-0.5169,-0.5315,-0.5521,-0.5774,-0.5913,-0.6096,-0.6282,-0.6424,-0.6627,-0.6981,-0.7136,-0.729,-0.7536,-0.7706,-0.7834,-0.7878,-0.7885,-0.7918,-0.7968,-0.7988,-0.8101,-0.8343,-0.8349,-0.8342,-0.8485,-0.8554,-0.8635,-0.8716,-0.8764,-0.8811,-0.8811,-0.8838,-0.8912,-0.8912,-0.8912,-0.8912,-0.8912,-0.8912,-0.8912,-0.8912,-0.8912,-0.8912,-0.8912,-0.8912,-0.8912,-1.5903,-1.6045,-1.6032,-1.614,-1.625,-1.5787,-1.5408,-1.5093,-1.5093,-1.517,-1.5363,-1.6654,-1.7237,-1.7389,-1.9476,-2.022,-1.9952,-2.0845,-2.0475,-1.9047,-1.7924,-1.6673,-1.5298,-1.4192,-1.3527,-1.3247,-1.3247,-1.3106,-1.2889,-1.3663,-1.4435,-1.5124,-1.6017,-1.633,-1.5955,-1.4261,-1.2737,-1.144,-1.1406,-1.1286,-1.1065,-1.1009,-1.0891,-1.0653,-1.0533,-1.0238,-0.9727,-0.966,-0.9406,-0.8885,-0.8898,-0.8804,-0.851,-0.8191,-0.7752,0.0,-0.678,0.0,0.0,0.0,0.0,0.0,0.0,0.0,0.0,-0.5311,-0.5201,-0.4826,-0.5058,-0.5373,-0.5793,-0.5861,-0.6003,-0.632,-0.6484,-0.6641,-0.6776,-0.7027,-0.7235,-0.743,-0.7543,-0.7678,-0.7814,-0.7817,-0.7871,-0.7979,-0.7975,-0.7975,-0.7988,-0.7988,-0.8081,-0.8294,-0.8321,-0.8383,-0.8478,-0.8512,-0.8519,-0.8532,-0.8628,-0.8683,-0.8696,-0.8811,-0.8912,-0.8912,-0.8912,-0.8912,-0.8912,-0.8912,-0.8912,-0.8912,-0.8912,-0.8912,-0.8912,-0.8912,-0.8912,-1.641,-1.7311,-1.7334,-1.7917,-1.8771,-1.8689,-1.7498,-1.5648,-1.5648,-1.6091,-1.6921,-1.8739,-1.9561,-1.9667,-2.0985,-2.1527,-2.149,-2.1675,-2.0953,-1.9426,-1.836,-1.7066,-1.5601,-1.4518,-1.3854,-1.3533,-1.352,-1.3393,-1.3153,-1.3316,-1.3846,-1.4721,-1.5454,-1.5751,-1.5703,0.0,0.0,0.0,-1.1406,-1.1379,-1.1326,-1.1116,-1.0985,-1.0918,-1.0236,0.0,-0.9701,-0.9445,-0.923,-0.9137,-0.9392,0.0,0.0,0.0,0.0,0.0,0.0,0.0,0.0,0.0,0.0,0.0,-0.5854,-0.5756,-0.5201,-0.5388,-0.5508,-0.5436,-0.5684,-0.5858,-0.5957,-0.6226,-0.6437,-0.66,-0.683,-0.7075,-0.7253,-0.7423,-0.757,-0.7706,-0.7753,-0.7828,-0.7939,-0.7973,-0.7979,-0.8006,-0.7988,-0.7988,-0.7988,-0.7988,-0.8115,-0.841,-0.843,-0.8464,-0.8505,-0.8505,-0.8498,-0.8526,-0.8608,-0.8703,-0.8723,-0.8811,-0.8906,-0.8912,-0.8912,-0.8912,-0.8912,-0.8912,-0.8912,-0.8912,-0.8912,-0.8912,-0.8912,-0.8912,-0.8912,-1.7979,0.0,-1.8596,-1.8948,0.0,-1.9497,-1.8787,-1.7646,-1.7623,-1.7911,-1.8455,-2.0035,-2.0732,-2.0815,-2.1969,-2.2383,-2.2208,-2.2207,-2.1662,-2.0645,-1.8966,-1.779,-1.7001,-1.5149,-1.4207,-1.4047,-1.3914,-1.3687,-1.3447,-1.4424,-1.5069,-1.5423,-1.6737,-1.7423,-1.7405,-1.6615,-1.4995,-1.2558,-1.2081,-1.1784,-1.165,-1.152,-1.1306,-1.1012,0.0,0.0,0.0,0.0,0.0,0.0,0.0,0.0,0.0,0.0,0.0,-0.8991,-0.8714,-0.8415,-0.8065,-0.7851,-0.7597,-0.7321,-0.7621,-0.7135,-0.5578,-0.5592,-0.5786,-0.6022,-0.6166,-0.6335,-0.6519,-0.6695,-0.687,-0.7115,-0.7278,-0.7405,-0.757,-0.7682,-0.776,-0.7871,-0.7898,-0.7932,-0.7975,-0.7988,-0.7988,-0.7988,-0.7988,-0.7988,-0.7988,-0.7988,-0.8081,-0.8216,-0.8236,-0.827,-0.8389,-0.8403,-0.8437,-0.8479,-0.8608,-0.8696,-0.8683,-0.8811,-0.8912,-0.8912,-0.8912,-0.8912,-0.8912,-0.8912,-0.8912,-0.8912,-0.8912,-0.8912,-0.8912,-0.8912,-0.8912,-1.9633,-1.9815,-1.9798,-1.9951,-2.0133,-2.0133,-2.0155,-2.0133,0.0,0.0,0.0,-2.1101,-2.1614,-2.168,-2.2668,-2.2906,-2.2596,-2.2596,-2.2402,-2.1867,-1.962,-1.8473,-1.8278,-1.5799,-1.4541,-1.4509,-1.4482,-1.4295,-1.4056,-1.5879,-1.6664,-1.6577,-1.8229,-1.9191,-1.9149,-1.7021,-1.5285,-1.4137,-1.2916,-1.2184,-1.1993,-1.194,-1.1654,-1.1156,-1.1049,-1.0768,-1.0285,-1.0274,-1.0154,-0.9956,-0.9982,-0.9982,-0.9941,-1.014,-1.0247,-1.0192,-1.0364,-1.02,-0.9641,-0.9545,-0.9371,-0.9078,-0.9485,-0.8844,-0.666,-0.6375,-0.6435,-0.6877,-0.6729,-0.6763,-0.7132,-0.7195,-0.731,-0.7611,-0.7638,-0.7692,-0.7804,-0.7855,-0.7878,-0.7961,-0.8006,-0.7988,-0.7988,-0.7988,-0.7988,-0.7988,-0.7988,-0.8008,-0.8047,-0.8033,-0.8008,-0.8113,-0.8115,-0.8128,-0.8269,-0.8349,-0.8383,-0.8492,-0.8608,-0.8703,-0.8703,-0.8811,-0.8899,-0.8912,-0.8912,-0.8912,-0.8912,-0.8912,-0.8912,-0.8912,-0.8912,-0.8912,-0.8912,-0.8912,-0.8912,-2.0116,-2.1056,-2.1038,-2.1654,-2.258,-2.2599,-2.258,-2.2511,-2.148,-2.1056,-2.1123,-2.2315,-2.284,-2.2862,-2.3016,-2.3062,-2.3003,-2.3003,-2.281,0.0,-2.0048,-1.8786,-1.8294,-1.6015,-1.4763,-1.4566,-1.539,-1.5677,-1.5584,-1.6644,-1.7195,-1.7236,-1.8008,-1.8751,-1.9078,-1.7193,-1.6053,-1.5799,-1.3503,-1.2278,-1.2238,-1.2015,-1.1855,-1.1765,-1.1263,-1.0985,-1.0875,-1.0862,-1.0848,-1.0822,-1.1049,-1.1046,-1.0838,-1.0848,-1.0784,-1.0541,-1.0088,-0.9875,-1.0011,-0.9698,-0.964,-0.9951,-1.0076,-0.9885,-0.9368,-0.8541,-0.8172,-0.8489,-0.7686,-0.7154,-0.7489,-0.7553,-0.7567,-0.7753,-0.7756,-0.7817,-0.7952,-0.7973,-0.7986,-0.7982,-0.7988,-0.7988,-0.7988,-0.7988,-0.7988,-0.7988,-0.8027,-0.806,-0.8174,-0.8101,-0.8081,-0.8226,-0.826,-0.8328,-0.8444,-0.8478,-0.8498,-0.8479,-0.8621,-0.8703,-0.873,-0.8818,-0.8906,-0.8912,-0.8912,-0.8912,-0.8912,-0.8912,-0.8912,-0.8912,-0.8912,-0.8912,-0.8912,-0.8912,-0.8919,-2.1765,-2.2271,-2.2293,-2.258,-2.3101,-2.3101,-2.3101,-2.3057,-2.2514,-2.2274,-2.2337,-2.2862,-2.3101,-2.3101,-2.3101,-2.3101,-2.3101,-2.3101,-2.3006,-2.2657,-2.039,-1.9211,-1.8779,-1.6403,-1.5472,-1.5976,-1.6293,-1.6643,-1.7021,-1.8022,-1.8429,-1.8298,-1.911,-1.9583,-1.9481,-1.76,-1.6445,-1.6171,-1.393,-1.2705,-1.2583,-1.2449,-1.2234,-1.1913,-1.1614,-1.14,-1.1236,-1.1223,-1.1206,-1.1223,-1.1326,-1.1419,-1.1494,-1.161,-1.1734,-1.1792,-1.1681,-1.1643,-1.1758,-1.1753,-1.1894,-1.228,-1.2448,-1.2587,-1.2662,-1.0837,-0.9895,-1.0206,-0.9159,-0.8498,-0.8721,-0.8141,-0.7773,-0.7898,-0.7912,-0.7939,-0.7975,-0.7988,-0.7988,-0.7988,-0.7988,-0.7988,-0.7988,-0.7988,-0.7988,-0.802,-0.8099,-0.8194,-0.8294,-0.8308,-0.8303,-0.8396,-0.841,-0.8452,-0.8574,-0.8608,-0.8642,-0.871,-0.8764,-0.8804,-0.8804,-0.8879,-0.8899,-0.8912,-0.8912,-0.8912,-0.8912,-0.8912,-0.8912,-0.8912,-0.8912,-0.8912,-0.8912,-0.8967,-0.9055,-2.3335,-2.3259,-2.3357,-2.3357,-2.3259,-2.314,-2.3101,-2.3101,-2.3101,-2.3101,-2.3101,-2.3101,-2.3101,-2.3101,-2.3101,-2.3101,-2.3101,-2.3101,-2.3101,-2.2884,-2.0899,-1.9906,-1.9668,-1.7423,-1.6772,-1.7574,-1.7645,-1.7954,-1.8591,-1.9596,-1.9963,-1.9748,-2.0388,-2.0547,-2.0177,-1.831,-1.7069,-1.6376,-1.4673,-1.349,-1.2924,-1.2891,-1.2663,-1.2243,-1.2189,-1.2082,-1.1833,-1.1819,-1.1806,-1.1788,-1.1788,-1.1931,-1.2176,-1.2385,-1.2612,-1.2858,-1.3099,-1.3267,-1.3414,-1.364,-1.394,-1.4277,-1.4517,-1.475,-1.4864,-1.3127,-1.1838,-1.1787,-1.0732,-1.0079,-1.0114,-0.9421,-0.8756,-0.8884,-0.8874,-0.8842,-0.8528,-0.8428,-0.8287,-0.8113,-0.7988,-0.7988,-0.7988,-0.7988,-0.8008,-0.8081,-0.8201,-0.8308,-0.8383,-0.8465,-0.8533,-0.8567,-0.856,-0.8601,-0.8703,-0.8737,-0.8777,-0.8899,-0.8906,-0.8899,-0.8899,-0.8906,-0.8912,-0.8912,-0.8912,-0.8912,-0.8912,-0.8912,-0.8912,-0.8912,-0.894,-0.898,-0.9034,-0.9137,-0.9206,-2.4062,-2.3809,-2.4121,-2.4082,-2.3691,-2.3298,-2.3142,-2.312,-2.3101,-2.3101,-2.3101,-2.3101,-2.3101,-2.3101,-2.3101,-2.3101,-2.3101,-2.3101,-2.3101,-2.295,-2.1747,-2.1145,-2.0989,-1.9697,-1.9062,-1.9068,-1.9799,-2.0071,-2.0054,-2.1055,-2.1613,-2.1595,-2.1307,-2.1132,-2.0895,-1.956,-1.8271,-1.7215,-1.6057,-1.4715,-1.3259,-1.314,-1.3146,-1.3073,-1.308,-1.306,-1.2953,-1.302,-1.3039,-1.3033,-1.3013,-1.302,-1.3066,-1.3087,-1.3133,-1.3173,-1.3193,-1.344,-1.3961,-1.4269,-1.4563,-1.4865,-1.4941,-1.5066,-1.5347,-1.5114,-1.4431,-1.3356,-1.2188,-1.1606,-1.1662,-1.1463,-1.1244,-1.1175,-1.1258,-1.1121,-1.0051,-0.983,-0.9361,-0.8113,-0.8137,-0.7988,-0.8013,-0.8002,-0.8074,-0.8208,-0.8289,-0.8417,-0.8581,-0.8662,-0.8703,-0.8791,-0.8757,-0.873,-0.8838,-0.8885,-0.8885,-0.8906,-0.8912,-0.8912,-0.8912,-0.8912,-0.8912,-0.8912,-0.8912,-0.8912,-0.8912,-0.8912,-0.8919,-0.896,-0.9055,-0.9199,-0.9293,-0.9347,-0.9349,-2.4293,-2.418,-2.4332,-2.4293,-2.4141,-2.3942,-2.3728,-2.3535,-2.3535,-2.3357,-2.312,-2.3101,-2.3101,-2.3101,-2.3101,-2.3101,-2.3101,-2.3101,-2.3101,-2.3013,-2.1858,-2.1284,-2.1172,-2.0048,-1.9782,-2.038,-2.0868,-2.124,-2.1551,-2.1784,-2.1915,-2.1896,-2.1699,-2.1621,-2.152,-2.0348,-1.935,-1.8629,-1.6927,-1.5604,-1.4703,-1.3838,-1.3367,-1.3227,-1.3213,-1.3213,-1.3213,-1.3213,-1.3213,-1.3213,-1.3213,-1.3293,-1.3433,-1.3427,-1.3507,-1.3721,-1.3895,-1.4162,-1.4598,-1.4745,-1.491,-1.5227,-1.524,-1.5351,-1.5595,-1.5635,-1.5387,-1.4809,-1.3696,-1.3026,-1.3019,-1.2387,-1.1891,-1.1891,-1.1891,-1.1707,-1.1219,-1.1146,-1.0632,-0.941,-0.9164,-0.885,-0.8226,-0.8094,-0.8219,-0.8315,-0.8404,-0.8581,-0.8676,-0.8757,-0.8838,-0.8858,-0.8852,-0.8845,-0.8899,-0.8912,-0.8912,-0.8912,-0.8912,-0.8912,-0.8912,-0.8912,-0.8912,-0.8912,-0.8919,-0.8919,-0.8912,-0.9022,-0.9069,-0.9096,-0.9184,-0.9342,-0.9403,-0.9456,-0.9469,-2.4684,-2.4563,-2.4175,-2.4264,-2.4543,-2.4059,-2.3668,-2.3511,-2.3787,-2.3567,-2.2965,-2.316,-2.3276,-2.3257,-2.3159,-2.3101,-2.3101,-2.3101,-2.3101,-2.2994,-2.2164,-2.181,-2.168,-2.0944,-2.0944,-2.1658,-2.1813,-2.2102,-2.259,-2.2383,-2.2227,-2.2227,-2.2109,-2.2072,-2.1948,-2.1123,-2.0379,-1.9673,-1.812,-1.6932,-1.6049,-1.534,-1.4495,-1.3575,-1.3454,-1.3454,-1.3454,-1.3454,-1.3454,-1.3454,-1.3454,-1.3567,-1.3813,-1.386,-1.3994,-1.4309,-1.4522,-1.4776,-1.5079,-1.5106,-1.5227,-1.5471,-1.5524,-1.5605,-1.5755,-1.5808,-1.5808,-1.57,-1.4949,-1.4399,-1.4292,-1.3547,-1.3017,-1.2969,-1.2969,-1.2896,-1.2522,-1.245,-1.1964,-1.0779,-1.0509,-1.0043,-0.8917,-0.8447,-0.8315,-0.8411,-0.8574,-0.871,-0.8743,-0.8838,-0.8906,-0.8912,-0.8912,-0.8906,-0.8912,-0.8912,-0.8912,-0.8912,-0.8912,-0.8912,-0.8912,-0.8912,-0.8981,-0.9008,-0.8994,-0.9035,-0.911,-0.9213,-0.9274,-0.9315,-0.9396,-0.9462,-0.9537,-0.9575,-0.9623,-2.5406,-2.4893,-2.3623,-2.3858,-2.4929,-2.323,-2.2505,-2.2545,-2.3751,-2.3639,-2.267,-2.3385,-2.375,-2.3753,-2.3337,-2.3101,-2.3101,-2.3101,-2.3101,-2.3101,-2.2972,-2.3013,-2.3016,-2.295,-2.2906,-2.2862,-2.284,-2.2931,-2.3064,-2.3023,-2.3064,-2.3003,-2.2654,-2.2459,-2.242,-2.2024,-2.1275,-2.0364,-1.9967,-1.8939,-1.7224,-1.7792,-1.6825,-1.4559,-1.4118,-1.4147,-1.4076,-1.4076,-1.4076,-1.4041,-1.4055,-1.4175,-1.4421,-1.4447,-1.4603,-1.4892,-1.4968,-1.5093,-1.5324,-1.5378,-1.5498,-1.5715,-1.5741,-1.5781,-1.5795,-1.5808,-1.5808,-1.5808,-1.5652,-1.5581,-1.5581,-1.5296,-1.5296,-1.5343,-1.5486,-1.4902,-1.392,-1.38,-1.3199,-1.2179,-1.1781,-1.1268,-1.023,-0.9038,-0.8879,-0.8925,-0.8857,-0.9028,-0.9304,-0.9203,-0.9265,-0.9292,-0.9237,-0.8995,-0.8995,-0.8912,-0.8912,-0.8919,-0.8926,-0.8954,-0.8912,-0.8926,-0.9056,-0.9152,-0.9158,-0.9226,-0.9313,-0.9388,-0.9442,-0.9496,-0.9551,-0.9625,-0.968,-0.9731,-0.9758,-2.562,-2.5344,-2.4024,-2.3754,-2.4005,-2.2593,-2.1771,-2.164,-2.2919,-2.3101,-2.2717,-2.3664,-2.4199,-2.416,-2.3728,-2.3376,-2.312,-2.3101,-2.3101,-2.3101,-2.3101,-2.3101,-2.3101,-2.3101,-2.3101,-2.3101,-2.3101,-2.3101,-2.3101,-2.3101,-2.3101,-2.3081,-2.2967,-2.2888,-2.2869,-2.2732,-2.2326,-2.1674,-2.1022,-2.0082,-1.902,-1.8729,-1.8018,-1.704,-1.6231,-1.5445,-1.47,-1.4665,-1.4665,-1.4665,-1.4687,-1.4718,-1.4812,-1.4825,-1.4937,-1.5227,-1.5267,-1.5364,-1.5608,-1.5648,-1.5688,-1.5781,-1.5808,-1.5808,-1.5808,-1.5808,-1.5808,-1.5808,-1.5808,-1.5808,-1.5808,-1.5808,-1.5808,-1.5808,-1.5808,-1.5642,-1.5272,-1.5105,-1.4677,-1.3632,-1.2911,-1.2279,-1.1958,-1.1491,-1.1351,-1.1433,-1.1532,-1.1558,-1.1674,-1.1701,-1.1538,-1.1674,-1.1701,-1.1701,-1.1728,-0.9919,-0.8947,-0.894,-0.8994,-0.9195,-0.9272,-0.9546,-0.9717,-0.9945,-0.9803,-0.95,-0.9597,-0.9503,-0.9578,-0.9673,-0.9697,-0.9704,-0.9808,-0.9785,-0.9792,-2.5698,-2.543,-2.38,-2.3292,-2.3434,-2.1786,-2.1107,-2.1329,-2.2632,-2.3069,-2.3075,-2.4083,-2.4629,-2.4551,-2.418,-2.3848,-2.3471,-2.3259,-2.3101,-2.3101,-2.3101,-2.3101,-2.3101,-2.3101,-2.3101,-2.3101,-2.3101,-2.3101,-2.3101,-2.3101,-2.3101,-2.3101,-2.3101,-2.3101,-2.3101,-2.3101,-2.2967,-2.2562,-2.1965,-2.1278,-2.0612,-2.025,-1.9644,-1.8951,-1.8468,-1.7387,-1.5687,-1.5584,-1.5375,-1.5075,-1.5008,-1.5048,-1.512,-1.5213,-1.5531,-1.6031,-1.5734,-1.5805,-1.6264,-1.6032,-1.5808,-1.5808,-1.5808,-1.5808,-1.5808,-1.5808,-1.5808,-1.5808,-1.5808,-1.5808,-1.5808,-1.5808,-1.5808,-1.5808,-1.5808,-1.5808,-1.5808,-1.5864,-1.5664,-1.5097,-1.413,-1.358,-1.3457,-1.3143,-1.2967,-1.3091,-1.3237,-1.3281,-1.3291,-1.3291,-1.3359,-1.341,-1.3249,-1.3245,-1.3204,-1.1959,-1.1195,-1.112,-1.0867,-1.0629,-1.0429,-1.0593,-1.0699,-1.0788,-1.0557,-1.0084,-0.9825,-0.9701,-0.973,-0.9855,-0.9771,-0.9758,-0.9785,-0.9785,-0.9792,-2.5698,-2.5333,-2.2843,-2.2567,-2.311,-2.0871,-2.0461,-2.1584,-2.2933,-2.3419,-2.3632,-2.4665,-2.5102,-2.5004,-2.4606,-2.4391,-2.4215,-2.3591,-2.3237,-2.3218,-2.3201,-2.3181,-2.3159,-2.312,-2.3101,-2.3101,-2.3101,-2.3101,-2.3101,-2.3101,-2.3101,-2.3101,-2.3101,-2.3101,-2.3101,-2.3101,-2.3103,-2.302,-2.2892,-2.2413,-2.1595,-2.2202,-2.1743,-2.007,-2.0609,-1.9812,-1.7072,-1.6853,-1.6211,-1.5197,-1.5075,-1.5146,-1.5414,-1.5712,-1.6358,-1.715,-1.6546,-1.6608,-1.7404,-1.6622,-1.6032,-1.5984,-1.5879,-1.5808,-1.5808,-1.5808,-1.5808,-1.5808,-1.5808,-1.5808,-1.5808,-1.5835,-1.5835,-1.5808,-1.5835,-1.5861,-1.5888,-1.6112,-1.6393,-1.6372,-1.5568,-1.4968,-1.472,-1.4275,-1.381,-1.3853,-1.3836,-1.3932,-1.4072,-1.411,-1.374,-1.3923,-1.4465,-1.4895,-1.4536,-1.4099,-1.3976,-1.3811,-1.3492,-1.3193,-1.2898,-1.2906,-1.2843,-1.2869,-1.2349,-1.1875,-1.1231,-1.104,-1.0433,-1.0391,-1.0149,-0.9937,-0.9792,-0.9792,-0.9792,-2.5698,-2.5504,-2.3825,-2.2742,-2.2165,-2.0359,-1.9911,-2.0385,-2.1735,-2.286,-2.3788,-2.4985,-2.5503,-2.543,-2.5059,-2.4887,-2.4824,-2.4254,-2.4001,-2.3962,-2.3708,-2.3594,-2.3535,-2.3259,-2.3101,-2.3101,-2.3101,-2.3101,-2.3101,-2.3101,-2.3101,-2.3101,-2.3101,-2.3101,-2.3101,-2.3101,-2.3101,-2.3101,-2.3101,-2.2884,-2.2577,-2.2884,-2.2687,-2.2161,-2.2337,-2.1662,-1.997,-1.8333,-1.688,-1.5631,-1.5528,-1.5581,-1.5802,-1.6589,-1.7279,-1.7661,-1.818,-1.8442,-1.8672,-1.7832,-1.71,-1.6951,-1.6339,-1.5879,-1.5808,-1.5808,-1.5808,-1.5808,-1.5808,-1.5808,-1.5835,-1.6019,-1.6046,-1.5858,-1.6005,-1.6139,-1.6206,-1.6603,-1.6924,-1.7007,-1.6846,-1.6756,-1.6715,-1.615,-1.5964,-1.6035,-1.6086,-1.6123,-1.636,-1.622,-1.6668,-1.6931,-1.6968,-1.6629,-1.6534,-1.6466,-1.6471,-1.6022,-1.5591,-1.5332,-1.5135,-1.5034,-1.4988,-1.4583,-1.4094,-1.3492,-1.2872,-1.2277,-1.1675,-1.111,-1.0929,-1.0536,-0.9967,-1.0133,-1.0633,-2.5698,-2.5528,-2.4245,-2.2918,-2.1668,-2.0717,-2.0385,-2.059,-2.1862,-2.321,-2.4486,-2.5308,-2.5698,-2.5659,-2.543,-2.5312,-2.5273,-2.4996,-2.4879,-2.4805,-2.4258,-2.4023,-2.3965,-2.3552,-2.3259,-2.3123,-2.3101,-2.3101,-2.3101,-2.3101,-2.3101,-2.3101,-2.3101,-2.3101,-2.3101,-2.3101,-2.3101,-2.3101,-2.3101,-2.3101,-2.3101,-2.3101,-2.3101,-2.3101,-2.3101,-2.247,-2.1302,-1.9792,-1.8249,-1.6749,-1.6079,-1.5832,-1.5903,-1.696,-1.7893,-1.8434,-1.9039,-1.9656,-1.9935,-1.9062,-1.8126,-1.7661,-1.6974,-1.6268,-1.5961,-1.5808,-1.5808,-1.5808,-1.5915,-1.5992,-1.6032,-1.6259,-1.6326,-1.6168,-1.6326,-1.6498,-1.6645,-1.6965,-1.7233,-1.7314,-1.7462,-1.7595,-1.7608,-1.7608,-1.7649,-1.7716,-1.7756,-1.7862,-1.8076,-1.8101,-1.8356,-1.8516,-1.8317,-1.8255,-1.8655,-1.8774,-1.8922,-1.8266,-1.7506,-1.7259,-1.7011,-1.7029,-1.7008,-1.6148,-1.5523,-1.4804,-1.4153,-1.3616,-1.3048,-1.2479,-1.2195,-1.2277,-1.2286,-1.2258,-1.2443,-2.5698,-2.5528,-2.4344,-2.3135,-2.1996,-2.1836,-2.1811,-2.1971,-2.2868,-2.4146,-2.5382,-2.5406,-2.5577,-2.565,-2.5659,-2.564,-2.5679,-2.562,-2.5581,-2.5386,-2.4898,-2.4489,-2.4297,-2.3965,-2.3652,-2.3357,-2.3257,-2.324,-2.324,-2.322,-2.312,-2.3101,-2.3101,-2.3101,-2.3101,-2.3101,-2.3101,-2.3101,-2.3101,-2.3101,-2.3101,-2.3101,-2.3101,-2.3101,-2.3079,-2.2602,-2.1702,-2.1105,-1.9957,-1.7893,-1.6433,-1.5879,-1.6126,-1.71,-1.8434,-1.9497,-1.9656,-2.0449,-2.0921,-2.0274,-1.9245,-1.8365,-1.78,-1.727,-1.6347,-1.6031,-1.5915,-1.5955,-1.6166,-1.6324,-1.6377,-1.6578,-1.67,-1.6754,-1.674,-1.6872,-1.7166,-1.7233,-1.7353,-1.7528,-1.7608,-1.7635,-1.7662,-1.7649,-1.7796,-1.7956,-1.8036,-1.8196,-1.841,-1.8544,-1.8664,-1.8798,-1.8931,-1.8998,-1.912,-1.9147,-1.9254,-1.9039,-1.8532,-1.8429,-1.8355,-1.8419,-1.8444,-1.7601,-1.695,-1.6201,-1.5666,-1.5281,-1.4937,-1.462,-1.455,-1.4719,-1.451,-1.4144,-1.3937,-2.5698,-2.565,-2.5333,-2.4393,-2.326,-2.3185,-2.3142,-2.306,-2.2466,-2.3732,-2.5118,-2.4633,-2.4879,-2.5625,-2.5698,-2.5698,-2.5698,-2.5698,-2.5698,-2.5679,-2.5523,-2.4957,-2.4508,-2.4293,-2.418,-2.402,-2.3962,-2.3903,-2.3633,-2.3613,-2.3477,-2.3101,-2.314,-2.312,-2.3101,-2.3101,-2.3101,-2.3101,-2.3101,-2.3101,-2.3101,-2.3101,-2.3101,-2.3101,-2.3101,-2.2928,-2.2536,-2.1747,-2.0161,-1.787,-1.648,-1.6268,-1.7194,-1.8365,-1.9519,-2.0584,-2.161,-2.2183,-2.2249,-2.148,-2.0679,-2.0246,-1.8835,-1.7648,-1.7504,-1.6646,-1.6381,-1.6406,-1.6567,-1.6593,-1.6633,-1.6886,-1.7113,-1.7314,-1.7167,-1.7167,-1.7394,-1.7501,-1.7528,-1.7595,-1.7622,-1.7702,-1.7809,-1.7902,-1.8036,-1.829,-1.8397,-1.8464,-1.8718,-1.8824,-1.8905,-1.9147,-1.9281,-1.9308,-1.9348,-1.9361,-1.9374,-1.9361,-1.92,-1.9127,-1.9068,-1.9066,-1.9082,-1.8794,-1.8496,-1.789,-1.7674,-1.7379,-1.7067,-1.6635,-1.6076,-1.5797,-1.5471,-1.5196,-1.5258,-2.5698,-2.5698,-2.5698,-2.4947,-2.3856,-2.4313,-2.3924,-2.3092,-2.3359,-2.3807,-2.4682,-2.4707,-2.4952,-2.5669,-2.5698,-2.5698,-2.5698,-2.5698,-2.5698,-2.5698,-2.5679,-2.5289,-2.4824,-2.4687,-2.459,-2.4414,-2.4434,-2.4254,-2.4082,-2.4043,-2.3884,-2.3688,-2.3474,-2.3396,-2.3396,-2.3159,-2.3101,-2.3101,-2.3101,-2.3101,-2.3101,-2.3101,-2.3101,-2.3101,-2.3101,-2.3101,-2.2928,-2.1943,-2.0364,-1.8741,-1.7809,-1.7716,-1.8434,-1.961,-2.0567,-2.1346,-2.2425,-2.3079,-2.2994,-2.2403,-2.1946,-2.1473,-2.0113,-1.9224,-1.8474,-1.7658,-1.733,-1.6735,-1.6832,-1.6913,-1.6966,-1.718,-1.7408,-1.7528,-1.7461,-1.7434,-1.7582,-1.7595,-1.7608,-1.7635,-1.7702,-1.7809,-1.7995,-1.8116,-1.8343,-1.8584,-1.8677,-1.8838,-1.9038,-1.9078,-1.9132,-1.9308,-1.9415,-1.9428,-1.9495,-1.9535,-1.9615,-1.9602,-1.9669,-1.9626,-1.9629,-1.9615,-1.9597,-1.9594,-1.9663,-1.9618,-1.9168,-1.8931,-1.8847,-1.8269,-1.7453,-1.7226,-1.7253,-1.699,-1.6959,-2.5577,-2.5698,-2.5698,-2.502,-2.4239,-2.5137,-2.4436,-2.2985,-2.427,-2.4732,-2.4436,-2.5069,-2.5314,-2.5674,-2.5698,-2.5698,-2.5698,-2.5698,-2.5698,-2.5698,-2.5679,-2.5464,-2.5219,-2.5137,-2.498,-2.4703,-2.4547,-2.4528,-2.4489,-2.4492,-2.4434,-2.4258,-2.3984,-2.3887,-2.3769,-2.3435,-2.3201,-2.322,-2.312,-2.3101,-2.3101,-2.3101,-2.3101,-2.3101,-2.3101,-2.3101,-2.2862,-2.2098,-2.1033,-1.9974,-1.9679,-1.9428,-1.9702,-2.0769,-2.1369,-2.168,-2.2555,-2.312,-2.3179,-2.3127,-2.2933,-2.2377,-2.2148,-2.1333,-1.9765,-1.8971,-1.8315,-1.7906,-1.7303,-1.7219,-1.7273,-1.7461,-1.7608,-1.7662,-1.7635,-1.7635,-1.7689,-1.7675,-1.7635,-1.7675,-1.7929,-1.8036,-1.8169,-1.837,-1.8651,-1.8905,-1.8971,-1.9065,-1.9199,-1.9267,-1.9294,-1.9361,-1.9428,-1.9468,-1.9589,-1.9696,-1.9786,-1.9853,-1.9987,-2.0013,-1.9973,-1.9973,-2.0013,-2.004,-1.9973,-2.0,-1.9947,-1.9909,-1.9945,-1.9889,-1.9066,-1.9532,-2.0007,-1.9504,-1.9281,-2.4732,-2.5698,-2.5698,-2.5528,-2.5333,-2.5577,-2.5376,-2.4769,-2.4313,-2.4708,-2.4966,-2.4554,-2.4843,-2.5737,-2.5771,-2.5698,-2.5737,-2.5737,-2.5698,-2.5698,-2.5698,-2.5679,-2.5562,-2.5542,-2.5484,-2.5367,-2.5406,-2.523,-2.5019,-2.4902,-2.4746,-2.4449,-2.4371,-2.4254,-2.4196,-2.3887,-2.3652,-2.3594,-2.3296,-2.3159,-2.3162,-2.3162,-2.312,-2.3101,-2.312,-2.3123,-2.3101,-2.2862,-2.2599,-2.1961,-2.0777,-2.0224,-2.0832,-2.123,-2.1824,-2.2504,-2.2876,-2.3298,-2.3555,-2.3649,-2.3738,-2.3718,-2.3052,-2.2381,-2.2111,-2.0201,-1.9853,-1.9811,-1.8824,-1.771,-1.7488,-1.7555,-1.7742,-1.7903,-1.7916,-1.8036,-1.8183,-1.8049,-1.805,-1.821,-1.833,-1.8477,-1.8677,-1.8703,-1.8958,-1.9199,-1.9279,-1.9305,-1.9374,-1.9401,-1.9455,-1.9495,-1.9655,-1.9706,-1.9786,-1.9947,-2.012,-2.0227,-2.0317,-2.0384,-2.0374,-2.0334,-2.033,-2.0264,-2.017,-2.0237,-2.0384,-2.0317,-2.0239,-2.0406,-2.0588,-2.0641,-2.0704,-2.0909,-2.0931,-2.4486,-2.565,-2.5698,-2.5835,-2.6035,-2.603,-2.5762,-2.5446,-2.5365,-2.5264,-2.5365,-2.5145,-2.5685,-2.6298,-2.6303,-2.6245,-2.5991,-2.5796,-2.5698,-2.5698,-2.5698,-2.5698,-2.5698,-2.5698,-2.5698,-2.5698,-2.5698,-2.5542,-2.543,-2.5371,-2.5293,-2.4996,-2.4801,-2.4727,-2.4668,-2.4297,-2.4102,-2.4062,-2.3845,-2.363,-2.3454,-2.3437,-2.3279,-2.322,-2.3298,-2.3437,-2.3435,-2.3649,-2.3686,-2.3393,-2.2477,-2.1799,-2.2099,-2.2351,-2.2799,-2.3279,-2.3649,-2.3786,-2.402,-2.4102,-2.4277,-2.4687,-2.4098,-2.3688,-2.3298,-2.1952,-2.1419,-2.1188,-1.987,-1.8368,-1.7766,-1.8523,-1.8557,-1.8063,-1.8143,-1.837,-1.8571,-1.8409,-1.8263,-1.849,-1.8597,-1.8703,-1.885,-1.9011,-1.9132,-1.9334,-1.9361,-1.9388,-1.9455,-1.9495,-1.9615,-1.9709,-1.988,-2.0013,-2.0067,-2.0241,-2.0508,-2.0628,-2.0748,-2.0771,-2.0771,-2.0704,-2.065,-2.0584,-2.053,-2.0624,-2.0731,-2.0624,-2.0584,-2.0731,-2.0895,-2.0975,-2.1015,-2.1042,-2.1056,-2.4171,-2.543,-2.5679,-2.603,-2.6367,-2.642,-2.6066,-2.5614,-2.6481,-2.6263,-2.5651,-2.6557,-2.6748,-2.6973,-2.6928,-2.6777,-2.6484,-2.6147,-2.603,-2.5893,-2.5893,-2.5815,-2.5732,-2.5698,-2.5698,-2.5698,-2.5698,-2.5679,-2.5679,-2.5698,-2.5601,-2.5601,-2.5371,-2.5195,-2.5078,-2.4746,-2.4512,-2.4512,-2.4355,-2.4157,-2.3945,-2.3867,-2.3688,-2.3571,-2.3691,-2.3887,-2.3945,-2.4118,-2.4355,-2.4414,-2.4414,-2.4001,-2.363,-2.3633,-2.3887,-2.3887,-2.4137,-2.4332,-2.4473,-2.4531,-2.4707,-2.5141,-2.5152,-2.4833,-2.4184,-2.3628,-2.3132,-2.2374,-2.1253,-1.9787,-1.8373,-1.9031,-1.9192,-1.8591,-1.8437,-1.8664,-1.8865,-1.8786,-1.8732,-1.8704,-1.8878,-1.9025,-1.9092,-1.9214,-1.9321,-1.9415,-1.9441,-1.9481,-1.9548,-1.9639,-1.9786,-1.9933,-2.0147,-2.037,-2.0494,-2.0508,-2.0775,-2.0855,-2.1002,-2.0997,-2.1024,-2.0957,-2.0864,-2.0957,-2.0957,-2.0984,-2.0971,-2.0904,-2.0917,-2.1096,-2.1096,-2.1069,-2.1096,-2.1136,-2.1189,-2.2818,-2.4158,-2.5668,-2.6328,-2.647,-2.6758,-2.682,-2.6711,-2.6917,-2.6884,-2.6724,-2.6929,-2.709,-2.707,-2.7006,-2.6947,-2.6894,-2.6693,-2.6543,-2.6328,-2.6269,-2.6128,-2.5869,-2.5874,-2.5815,-2.5698,-2.5737,-2.5757,-2.5718,-2.5698,-2.5698,-2.5674,-2.562,-2.5562,-2.5449,-2.5215,-2.4961,-2.4945,-2.4707,-2.4469,-2.4355,-2.4258,-2.4219,-2.4082,-2.4219,-2.4297,-2.4316,-2.4375,-2.4414,-2.4414,-2.4414,-2.4332,-2.4235,-2.4297,-2.4336,-2.4355,-2.4449,-2.4687,-2.4926,-2.4961,-2.5195,-2.5484,-2.5562,-2.5562,-2.5099,-2.4461,-2.414,-2.4276,-2.3481,-2.2122,-1.9937,-2.0378,-1.9802,-1.9168,-1.898,-1.9115,-1.9344,-1.9285,-1.9189,-1.9134,-1.9241,-1.9265,-1.9308,-1.9348,-1.9455,-1.9575,-1.9653,-1.9693,-1.976,-1.9933,-2.009,-2.0267,-2.0428,-2.0708,-2.0917,-2.0935,-2.1015,-2.0989,-2.1069,-2.1069,-2.1082,-2.1096,-2.1109,-2.1109,-2.1109,-2.1051,-2.1082,-2.1109,-2.1109,-2.1109,-2.1109,-2.1122,-2.1216,-2.1323,-2.1456,-2.2492,-2.3861,-2.5626,-2.6523,-2.6777,-2.7168,-2.748,-2.7656,-2.7676,-2.7676,-2.7676,-2.7676,-2.7676,-2.7676,-2.765,-2.7578,-2.7344,-2.7064,-2.6894,-2.6719,-2.6699,-2.6621,-2.6342,-2.6362,-2.6381,-2.6323,-2.6211,-2.5913,-2.5713,-2.5698,-2.5698,-2.5698,-2.5698,-2.5698,-2.5679,-2.5503,-2.541,-2.5332,-2.5152,-2.4937,-2.4746,-2.4547,-2.441,-2.4473,-2.4648,-2.4746,-2.4805,-2.4996,-2.5074,-2.5093,-2.5093,-2.5074,-2.5054,-2.5035,-2.498,-2.4844,-2.4918,-2.5132,-2.5371,-2.543,-2.5503,-2.564,-2.5698,-2.5698,-2.5577,-2.5162,-2.4888,-2.4896,-2.5437,-2.4144,-2.1846,-2.2246,-2.2231,-2.1392,-2.064,-2.0331,-2.0286,-1.9837,-1.9546,-1.9415,-1.9388,-1.9388,-1.9415,-1.9481,-1.9589,-1.9693,-1.9867,-1.9947,-2.0013,-2.0227,-2.0424,-2.0548,-2.0668,-2.0842,-2.1037,-2.1051,-2.1162,-2.1162,-2.1162,-2.1162,-2.1189,-2.1216,-2.1162,-2.1109,-2.1109,-2.1203,-2.1122,-2.1122,-2.1109,-2.1149,-2.1269,-2.1376,-2.143,-2.1555,-2.1729,-2.2742,-2.3861,-2.5747,-2.6699,-2.707,-2.7604,-2.7995,-2.8242,-2.8262,-2.8242,-2.8301,-2.8262,-2.8242,-2.8281,-2.8223,-2.8086,-2.78,-2.7422,-2.7285,-2.7148,-2.7148,-2.7109,-2.7012,-2.7012,-2.6934,-2.6816,-2.666,-2.6289,-2.5932,-2.5757,-2.5718,-2.5698,-2.5698,-2.5698,-2.5679,-2.5659,-2.5698,-2.5698,-2.5698,-2.5503,-2.5195,-2.4883,-2.4645,-2.4664,-2.5019,-2.5195,-2.5234,-2.5449,-2.5581,-2.5601,-2.564,-2.5659,-2.5698,-2.5698,-2.5542,-2.5332,-2.5523,-2.5659,-2.5698,-2.5679,-2.5659,-2.5698,-2.5698,-2.5757,-2.5888,-2.5857,-2.5681,-2.5238,-2.561,-2.5653,-2.3929,-2.45,-2.4414,-2.3415,-2.2209,-2.1472,-2.1031,-2.0443,-1.9614,-1.9468,-1.9468,-1.9551,-1.9676,-1.9629,-1.9736,-1.9973,-2.0134,-2.0267,-2.0361,-2.0588,-2.0775,-2.0815,-2.0895,-2.0989,-2.1096,-2.1096,-2.1203,-2.1309,-2.1323,-2.1336,-2.1363,-2.139,-2.1336,-2.1363,-2.139,-2.147,-2.1309,-2.1256,-2.1416,-2.1523,-2.1609,-2.1649,-2.1716,-2.1844,-2.2031,-2.3558,-2.3879,-2.5983,-2.6973,-2.7103,-2.7799,-2.8196,-2.8281,-2.8301,-2.8301,-2.8301,-2.8301,-2.8301,-2.8301,-2.8301,-2.8262,-2.8184,-2.8066,-2.7851,-2.7643,-2.7604,-2.7422,-2.7109,-2.7012,-2.7168,-2.7168,-2.7031,-2.6699,-2.6387,-2.6035,-2.5796,-2.5815,-2.5815,-2.5737,-2.5796,-2.5737,-2.5698,-2.5698,-2.5698,-2.5679,-2.5601,-2.5503,-2.5464,-2.5503,-2.5542,-2.5581,-2.5542,-2.5659,-2.5698,-2.5698,-2.5698,-2.5698,-2.5698,-2.5698,-2.5698,-2.5659,-2.5654,-2.5698,-2.5698,-2.5698,-2.5757,-2.5776,-2.5776,-2.5932,-2.6225,-2.6557,-2.6631,-2.6767,-2.6883,-2.6518,-2.5473,-2.5406,-2.4849,-2.4031,-2.3143,-2.2253,-2.1659,-2.109,-2.0249,-1.9974,-2.0117,-2.0069,-2.0094,-1.9959,-1.988,-2.016,-2.0401,-2.0535,-2.0668,-2.0855,-2.0962,-2.0975,-2.1015,-2.1109,-2.1229,-2.1216,-2.1336,-2.1502,-2.1542,-2.1582,-2.1603,-2.1657,-2.1777,-2.179,-2.1804,-2.1764,-2.167,-2.1683,-2.1817,-2.1857,-2.1857,-2.1884,-2.197,-2.2124,-2.2352,-2.4393,-2.3823,-2.5189,-2.6249,-2.6956,-2.707,-2.7538,-2.8174,-2.8301,-2.8301,-2.8301,-2.8301,-2.8301,-2.8301,-2.8301,-2.8301,-2.8301,-2.8301,-2.8223,-2.8073,-2.8015,-2.791,-2.7812,-2.7734,-2.7734,-2.7617,-2.75,-2.737,-2.7018,-2.6699,-2.644,-2.6381,-2.623,-2.6133,-2.605,-2.5835,-2.5737,-2.5698,-2.5698,-2.5698,-2.5698,-2.5698,-2.5698,-2.5698,-2.5698,-2.5698,-2.5698,-2.5698,-2.5698,-2.5698,-2.5698,-2.5698,-2.5698,-2.5698,-2.5698,-2.5698,-2.5674,-2.5698,-2.5698,-2.5718,-2.5854,-2.605,-2.6108,-2.6284,-2.668,-2.6934,-2.7187,-2.7363,-2.7409,-2.7193,-2.7058,-2.7047,-2.6819,-2.6037,-2.4595,-2.3795,-2.2953,-2.1712,-2.1074,-2.0891,-2.0759,-2.0785,-2.0717,-2.0497,-2.0399,-2.0441,-2.0668,-2.0815,-2.0895,-2.0989,-2.1056,-2.1069,-2.1109,-2.1162,-2.1355,-2.1448,-2.1622,-2.1743,-2.1823,-2.1863,-2.1917,-2.1984,-2.2104,-2.2124,-2.2098,-2.2058,-2.205,-2.2037,-2.205,-2.2071,-2.2124,-2.2178,-2.2245,-2.2492,-2.2645,-2.5118,-2.4313,-2.501,-2.5999,-2.6987,-2.6731,-2.7276,-2.822,-2.8301,-2.8301,-2.8301,-2.8301,-2.8301,-2.8301,-2.8301,-2.8301,-2.8301,-2.8301,-2.8301,-2.8301,-2.8301,-2.8262,-2.8184,-2.8242,-2.8242,-2.8301,-2.7949,-2.7839,-2.7715,-2.748,-2.7226,-2.7006,-2.666,-2.6562,-2.6465,-2.6284,-2.6108,-2.5932,-2.5776,-2.5718,-2.5698,-2.5698,-2.5698,-2.5698,-2.5698,-2.5698,-2.5698,-2.5698,-2.5698,-2.5698,-2.5698,-2.5698,-2.5718,-2.5854,-2.5932,-2.5971,-2.605,-2.6147,-2.6108,-2.6089,-2.6147,-2.6426,-2.6699,-2.6894,-2.7129,-2.7246,-2.7422,-2.7839,-2.7839,-2.7988,-2.8176,-2.8182,-2.8045,-2.7544,-2.6811,-2.5978,-2.4957,-2.336,-2.2553,-2.2706,-2.2406,-2.1687,-2.1541,-2.1173,-2.0993,-2.0864,-2.0935,-2.1082,-2.1122,-2.1136,-2.1203,-2.1229,-2.1296,-2.1376,-2.1596,-2.1743,-2.189,-2.201,-2.2091,-2.2198,-2.2278,-2.2318,-2.2385,-2.2412,-2.2378,-2.2432,-2.2465,-2.2345,-2.2251,-2.2398,-2.2472,-2.2498,-2.2605,-2.2766,-2.288,-2.5669,-2.563,-2.6484,-2.6839,-2.7019,-2.785,-2.8121,-2.8301,-2.8301,-2.8301,-2.8301,-2.8301,-2.8301,-2.8301,-2.8301,-2.8301,-2.8301,-2.8301,-2.8301,-2.8301,-2.8301,-2.8301,-2.8301,-2.8301,-2.8301,-2.8301,-2.8164,-2.8184,-2.8223,-2.8066,-2.7637,-2.7084,-2.7051,-2.6992,-2.6889,-2.6771,-2.6557,-2.6323,-2.6069,-2.5874,-2.5854,-2.5835,-2.5791,-2.5757,-2.5713,-2.5693,-2.5718,-2.5776,-2.5854,-2.5854,-2.5893,-2.5869,-2.5991,-2.6186,-2.6328,-2.6387,-2.6557,-2.6693,-2.6732,-2.6562,-2.6602,-2.6934,-2.7285,-2.7545,-2.7617,-2.8015,-2.821,-2.8164,-2.8125,-2.8184,-2.8281,-2.834,-2.8508,-2.8354,-2.7832,-2.725,-2.607,-2.4554,-2.3939,-2.4386,-2.4019,-2.32,-2.2459,-2.2081,-2.1311,-2.1088,-2.0989,-2.1091,-2.1203,-2.1229,-2.1363,-2.1475,-2.1542,-2.1676,-2.1884,-2.2064,-2.2111,-2.2258,-2.2378,-2.2559,-2.2706,-2.2719,-2.2639,-2.2693,-2.2693,-2.2786,-2.2827,-2.2666,-2.2612,-2.2773,-2.284,-2.2773,-2.2712,-2.284,-2.2893,-2.5698,-2.5796,-2.6635,-2.7012,-2.7013,-2.6963,-2.7484,-2.8201,-2.8301,-2.8301,-2.8301,-2.8301,-2.8301,-2.8301,-2.8301,-2.8301,-2.8301,-2.8301,-2.8301,-2.8301,-2.8301,-2.8301,-2.8301,-2.8301,-2.8301,-2.8301,-2.8301,-2.8301,-2.8281,-2.8301,-2.8184,-2.7812,-2.7545,-2.7467,-2.7389,-2.7162,-2.6928,-2.6791,-2.6596,-2.6523,-2.6498,-2.6479,-2.6381,-2.6133,-2.6133,-2.6133,-2.6152,-2.6133,-2.6264,-2.6401,-2.644,-2.642,-2.642,-2.666,-2.6758,-2.6777,-2.7012,-2.7187,-2.7324,-2.7096,-2.6992,-2.7409,-2.78,-2.8027,-2.8008,-2.8223,-2.8281,-2.8281,-2.832,-2.8359,-2.832,-2.8508,-2.8735,-2.8781,-2.8599,-2.8183,-2.7377,-2.599,-2.5594,-2.6142,-2.5375,-2.4423,-2.37,-2.3031,-2.2107,-2.1317,-2.1217,-2.1176,-2.1296,-2.1403,-2.1596,-2.1743,-2.1823,-2.1984,-2.2224,-2.2285,-2.2365,-2.2498,-2.2659,-2.2752,-2.288,-2.2867,-2.2813,-2.2893,-2.2893,-2.288,-2.2867,-2.2893,-2.2893,-2.2893,-2.2893,-2.288,-2.288,-2.2893,-2.2934,-2.5698,-2.5791,-2.6635,-2.7012,-2.6975,-2.6811,-2.733,-2.8174,-2.8301,-2.8301,-2.8301,-2.8301,-2.8301,-2.8301,-2.8301,-2.8301,-2.8301,-2.8301,-2.8301,-2.8301,-2.8301,-2.8301,-2.8301,-2.8301,-2.8301,-2.8301,-2.8301,-2.8301,-2.8301,-2.8301,-2.8242,-2.8144,-2.8054,-2.7917,-2.778,-2.7441,-2.7207,-2.7207,-2.707,-2.7012,-2.6967,-2.6928,-2.6869,-2.6602,-2.6582,-2.6582,-2.6582,-2.6582,-2.668,-2.6836,-2.6934,-2.6973,-2.7031,-2.7129,-2.7187,-2.7246,-2.7344,-2.7539,-2.7682,-2.7682,-2.7539,-2.7878,-2.8047,-2.8242,-2.8301,-2.8301,-2.8301,-2.832,-2.8379,-2.8476,-2.8516,-2.8848,-2.9238,-2.937,-2.9525,-2.9203,-2.8855,-2.7912,-2.7813,-2.7884,-2.6678,-2.5251,-2.4379,-2.3522,-2.2264,-2.1514,-2.1419,-2.143,-2.1617,-2.1724,-2.183,-2.1977,-2.2098,-2.2285,-2.2498,-2.2552,-2.2592,-2.2645,-2.28,-2.284,-2.2893,-2.2893,-2.2893,-2.2893,-2.2893,-2.2893,-2.2893,-2.2893,-2.2893,-2.2893,-2.2893,-2.2893,-2.2893,-2.2907,-2.2966,-2.5698,-2.5815,-2.6635,-2.7012,-2.7109,-2.7903,-2.8247,-2.8301,-2.8301,-2.8301,-2.8301,-2.8301,-2.8301,-2.8301,-2.8301,-2.8301,-2.8301,-2.8301,-2.8301,-2.8301,-2.8301,-2.8301,-2.8301,-2.8301,-2.8301,-2.8301,-2.8301,-2.8301,-2.8301,-2.8301,-2.8301,-2.8301,-2.8203,-2.8184,-2.8249,-2.7897,-2.7682,-2.7624,-2.7266,-2.7187,-2.7187,-2.7207,-2.7142,-2.7031,-2.7012,-2.7012,-2.7012,-2.7012,-2.709,-2.7226,-2.7246,-2.7246,-2.7246,-2.7519,-2.7663,-2.7682,-2.8015,-2.8164,-2.8242,-2.8242,-2.821,-2.8191,-2.8262,-2.8281,-2.8301,-2.832,-2.8379,-2.8457,-2.8691,-2.8887,-2.9062,-2.9297,-2.9668,-2.9902,-3.0039,-3.0111,-2.9764,-2.9498,-2.9279,-2.8795,-2.7344,-2.591,-2.4935,-2.3907,-2.246,-2.1738,-2.1647,-2.1716,-2.1943,-2.2031,-2.2111,-2.2305,-2.2418,-2.2532,-2.2706,-2.28,-2.2867,-2.2893,-2.2893,-2.2893,-2.2893,-2.2893,-2.2893,-2.2893,-2.2893,-2.2893,-2.2893,-2.2893,-2.2947,-2.2987,-2.2907,-2.2893,-2.2893,-2.2974,-2.3086,-2.5698,-2.5796,-2.6635,-2.7012,-2.7103,-2.793,-2.8301,-2.8301,-2.8301,-2.8301,-2.8301,-2.8301,-2.8301,-2.8301,-2.8301,-2.8301,-2.8301,-2.8301,-2.8301,-2.8301,-2.8301,-2.8301,-2.8301,-2.8301,-2.8301,-2.8301,-2.8301,-2.8301,-2.8301,-2.8301,-2.8301,-2.8301,-2.8301,-2.8301,-2.8262,-2.8151,-2.8112,-2.8093,-2.7949,-2.7891,-2.7851,-2.7812,-2.7695,-2.7487,-2.7441,-2.7467,-2.7467,-2.7467,-2.7539,-2.7715,-2.7754,-2.7773,-2.7773,-2.8027,-2.8047,-2.8093,-2.8281,-2.8281,-2.8301,-2.8281,-2.8281,-2.8301,-2.834,-2.834,-2.8301,-2.8574,-2.8652,-2.8789,-2.9101,-2.9297,-2.9442,-2.9746,-3.0059,-3.0176,-3.0332,-3.0586,-3.0499,-3.0353,-3.0109,-2.9394,-2.8277,-2.7206,-2.6193,-2.4396,-2.2832,-2.2299,-2.22,-2.2097,-2.2231,-2.2298,-2.2378,-2.2612,-2.276,-2.28,-2.2867,-2.288,-2.2893,-2.2893,-2.2893,-2.2893,-2.2893,-2.2893,-2.2893,-2.2893,-2.2893,-2.2893,-2.296,-2.2993,-2.3033,-2.3046,-2.3081,-2.3121,-2.3153,-2.3233,-2.3327,-2.5284,-2.5791,-2.6635,-2.7012,-2.7148,-2.793,-2.8301,-2.8301,-2.8301,-2.8301,-2.8301,-2.8301,-2.8301,-2.8301,-2.8301,-2.8301,-2.8301,-2.8301,-2.8301,-2.8301,-2.8301,-2.8301,-2.8301,-2.8301,-2.8301,-2.8301,-2.8301,-2.8301,-2.8301,-2.8301,-2.8301,-2.8301,-2.8301,-2.8301,-2.8281,-2.8262,-2.8262,-2.8242,-2.8184,-2.8203,-2.8223,-2.8203,-2.8125,-2.7976,-2.7897,-2.7917,-2.7917,-2.7956,-2.8015,-2.8223,-2.8301,-2.8301,-2.8301,-2.8301,-2.8301,-2.8301,-2.8301,-2.8301,-2.8301,-2.8516,-2.8535,-2.8555,-2.8516,-2.8516,-2.8594,-2.8926,-2.9082,-2.9258,-2.9579,-2.9735,-2.9872,-3.0195,-3.0391,-3.0537,-3.0634,-3.0888,-3.085,-3.0704,-3.0751,-3.0046,-2.9345,-2.8379,-2.7066,-2.513,-2.3229,-2.301,-2.2806,-2.2667,-2.2512,-2.2552,-2.2579,-2.276,-2.288,-2.288,-2.288,-2.2893,-2.2893,-2.2893,-2.2893,-2.2907,-2.2893,-2.2893,-2.2893,-2.2907,-2.292,-2.2974,-2.306,-2.314,-2.33,-2.3402,-2.3402,-2.3442,-2.3474,-2.3527,-2.3581,-2.4461,-2.5688,-2.6615,-2.6992,-2.7168,-2.793,-2.8301,-2.8301,-2.8301,-2.8301,-2.8301,-2.8301,-2.8301,-2.8301,-2.8301,-2.8301,-2.8301,-2.8301,-2.8301,-2.8301,-2.8301,-2.8301,-2.8301,-2.8301,-2.8301,-2.8301,-2.8301,-2.8301,-2.8301,-2.8301,-2.8301,-2.8301,-2.8301,-2.8301,-2.8301,-2.8301,-2.8301,-2.8301,-2.8301,-2.8301,-2.8301,-2.8281,-2.8262,-2.8184,-2.8184,-2.8184,-2.8184,-2.8223,-2.8242,-2.8301,-2.8301,-2.8301,-2.8301,-2.8301,-2.8301,-2.8301,-2.8301,-2.8301,-2.8437,-2.8711,-2.8887,-2.8926,-2.8976,-2.8957,-2.9062,-2.9316,-2.9531,-2.9707,-2.9961,-3.0117,-3.0273,-3.0556,-3.081,-3.0849,-3.0849,-3.0928,-3.0898,-3.0967,-3.1113,-3.0745,-3.0095,-2.9016,-2.7327,-2.5419,-2.4227,-2.3292,-2.3038,-2.2849,-2.2712,-2.2773,-2.28,-2.2813,-2.2893,-2.2893,-2.2893,-2.2893,-2.2893,-2.2893,-2.2907,-2.2907,-2.2907,-2.2987,-2.3081,-2.3108,-2.3014,-2.3081,-2.3273,-2.3487,-2.371,-2.3736,-2.3736,-2.3714,-2.3781,-2.3794,-2.3861,-2.3949,-2.4443,-2.5929,-2.6738,-2.7129,-2.793,-2.8301,-2.8301,-2.8301,-2.8301,-2.8301,-2.8301,-2.8301,-2.8301,-2.8301,-2.8301,-2.8301,-2.8301,-2.8301,-2.8301,-2.8301,-2.8301,-2.8301,-2.8301,-2.8301,-2.8301,-2.8301,-2.834,-2.832,-2.832,-2.8359,-2.8301,-2.8418,-2.8379,-2.8379,-2.832,-2.834,-2.832,-2.832,-2.8301,-2.8301,-2.8301,-2.8301,-2.8301,-2.8301,-2.8301,-2.8301,-2.8301,-2.8301,-2.8301,-2.8301,-2.8301,-2.8301,-2.8301,-2.8301,-2.8301,-2.832,-2.8398,-2.8691,-2.884,-2.9035,-2.9394,-2.9629,-2.9609,-2.9629,-2.9746,-3.0019,-3.0156,-3.0332,-3.0537,-3.0595,-3.0791,-3.0928,-3.0928,-3.0928,-3.0937,-3.0976,-3.1172,-3.1308,-3.1038,-3.0437,-2.9592,-2.7824,-2.6807,-2.5607,-2.4189,-2.3256,-2.3038,-2.2893,-2.2893,-2.2893,-2.2893,-2.2893,-2.2893,-2.2893,-2.2893,-2.2893,-2.2893,-2.2934,-2.3027,-2.31,-2.3207,-2.33,-2.3354,-2.3402,-2.3496,-2.3643,-2.3843,-2.3981,-2.4048,-2.4048,-2.4062,-2.4075,-2.4088,-2.4128,-2.2717,-2.3811,-2.5033,-2.6199,-2.7318,-2.8008,-2.8301,-2.8301,-2.8301,-2.8301,-2.8301,-2.8301,-2.8301,-2.8301,-2.8301,-2.8301,-2.8301,-2.8301,-2.8301,-2.8301,-2.8301,-2.8301,-2.8301,-2.8301,-2.8301,-2.834,-2.8457,-2.8594,-2.8574,-2.8758,-2.8855,-2.8875,-2.8816,-2.8816,-2.8875,-2.8867,-2.873,-2.8574,-2.8418,-2.832,-2.8301,-2.8301,-2.8301,-2.8301,-2.8301,-2.8301,-2.8301,-2.8301,-2.8301,-2.8301,-2.8301,-2.8301,-2.8301,-2.8301,-2.8457,-2.8476,-2.8574,-2.8809,-2.9121,-2.9375,-2.957,-2.9872,-3.0224,-3.0293,-3.0302,-3.038,-3.0478,-3.0556,-3.0752,-3.0908,-3.0908,-3.0928,-3.0928,-3.0928,-3.0937,-3.0976,-3.1152,-3.1337,-3.126,-3.1108,-3.058,-2.9949,-2.8974,-2.7966,-2.6739,-2.5031,-2.3692,-2.2983,-2.2893,-2.2893,-2.2893,-2.2893,-2.2893,-2.2893,-2.2893,-2.2907,-2.292,-2.2974,-2.306,-2.3166,-2.3278,-2.346,-2.3581,-2.3701,-2.3857,-2.3901,-2.3941,-2.4088,-2.4249,-2.4302,-2.4342,-2.4342,-2.4356,-2.4382,-2.4449,-2.1075,-2.3345,-2.4083,-2.5694,-2.7545,-2.8093,-2.8301,-2.8301,-2.8301,-2.8301,-2.8301,-2.8301,-2.8301,-2.8301,-2.8301,-2.8301,-2.8301,-2.8301,-2.8301,-2.8301,-2.8301,-2.8301,-2.8301,-2.834,-2.8457,-2.8535,-2.8711,-2.8984,-2.9062,-2.9199,-2.9383,-2.9598,-2.95,-2.9422,-2.9383,-2.9403,-2.9227,-2.8965,-2.8711,-2.8535,-2.834,-2.8301,-2.8301,-2.8301,-2.8301,-2.8301,-2.8301,-2.8301,-2.8327,-2.834,-2.8359,-2.8379,-2.8496,-2.8535,-2.873,-2.8828,-2.8965,-2.9219,-2.9579,-2.9824,-3.0059,-3.0332,-3.0625,-3.0703,-3.0703,-3.0713,-3.0752,-3.0752,-3.0888,-3.0928,-3.0928,-3.0928,-3.0928,-3.0986,-3.1035,-3.1152,-3.1348,-3.15,-3.1528,-3.1451,-3.1458,-3.0545,-2.8031,-2.6872,-2.6422,-2.5147,-2.4026,-2.3065,-2.2893,-2.2893,-2.2893,-2.2893,-2.2893,-2.2893,-2.2893,-2.2907,-2.2947,-2.2993,-2.318,-2.3407,-2.3572,-2.3741,-2.3884,-2.4022,-2.4182,-2.4209,-2.4275,-2.4369,-2.4449,-2.4466,-2.4506,-2.4559,-2.4572,-2.4546,-2.4559,-1.9989,-2.0858,-2.3651,-2.5755,-2.7188,-2.7988,-2.8281,-2.8301,-2.8301,-2.8301,-2.8301,-2.8301,-2.8301,-2.8301,-2.8301,-2.8301,-2.8301,-2.8301,-2.8301,-2.832,-2.832,-2.8398,-2.8418,-2.8625,-2.8703,-2.8906,-2.9168,-2.9461,-2.9559,-2.9637,-2.9637,-2.9637,-2.9696,-2.9755,-2.9735,-2.9735,-2.9618,-2.9394,-2.9305,-2.8894,-2.8476,-2.834,-2.8301,-2.832,-2.834,-2.8398,-2.8379,-2.8359,-2.8516,-2.8691,-2.875,-2.8945,-2.9266,-2.9266,-2.9324,-2.9422,-2.9414,-2.9676,-2.997,-3.0243,-3.0371,-3.0605,-3.0849,-3.0888,-3.0908,-3.0928,-3.0928,-3.0928,-3.0928,-3.0928,-3.0928,-3.0928,-3.0967,-3.1055,-3.1172,-3.1348,-3.1513,-3.1695,-3.1832,-3.2011,-3.2188,-3.0333,-2.7751,-2.6355,-2.5719,-2.4824,-2.3665,-2.2893,-2.2893,-2.2893,-2.2893,-2.2893,-2.2893,-2.2893,-2.292,-2.2966,-2.3046,-2.318,-2.3367,-2.3585,-2.3865,-2.4075,-2.4235,-2.4382,-2.4479,-2.4439,-2.4426,-2.4492,-2.4572,-2.4599,-2.4599,-2.4599,-2.4599,-2.4572,-2.4586,-1.9072,-1.9998,-2.3263,-2.5245,-2.6222,-2.7453,-2.8105,-2.8281,-2.8301,-2.8301,-2.8301,-2.8301,-2.8301,-2.8301,-2.8301,-2.8301,-2.8301,-2.8301,-2.8301,-2.832,-2.8476,-2.8594,-2.875,-2.9004,-2.9141,-2.9316,-2.9668,-2.9902,-3.0087,-3.0204,-3.0224,-3.0146,-3.0146,-3.0146,-3.0146,-3.0165,-3.0048,-2.9891,-2.9872,-2.95,-2.8914,-2.8828,-2.8867,-2.8894,-2.8875,-2.8855,-2.8848,-2.8867,-2.8984,-2.9141,-2.9199,-2.9277,-2.95,-2.952,-2.9676,-2.9813,-2.9902,-3.0067,-3.038,-3.0556,-3.0605,-3.083,-3.0928,-3.0928,-3.0928,-3.0928,-3.0928,-3.0928,-3.0928,-3.0928,-3.0928,-3.0928,-3.1094,-3.123,-3.1406,-3.1601,-3.209,-3.2521,-3.2602,-3.27,-3.2378,-3.1176,-2.8919,-2.7503,-2.6506,-2.406,-2.2962,-2.2893,-2.2893,-2.296,-2.2947,-2.296,-2.3,-2.3033,-2.3113,-2.318,-2.3247,-2.3359,-2.3545,-2.3879,-2.4199,-2.4412,-2.4586,-2.4572,-2.4572,-2.4572,-2.4572,-2.4599,-2.4599,-2.4599,-2.4599,-2.4599,-2.4599,-2.4599,-2.4613,-1.8408,-1.9957,-2.2596,-2.4134,-2.4943,-2.666,-2.76,-2.7975,-2.8201,-2.8301,-2.8301,-2.8301,-2.8301,-2.8301,-2.8301,-2.8301,-2.8301,-2.8301,-2.8301,-2.8496,-2.8703,-2.8887,-2.9141,-2.9414,-2.9648,-2.9883,-3.0156,-3.0469,-3.0752,-3.0752,-3.0752,-3.0908,-3.0928,-3.0908,-3.0928,-3.0869,-3.0654,-3.0391,-3.0254,-3.0126,-2.9872,-2.9637,-2.952,-2.954,-2.9598,-2.9598,-2.9598,-2.9579,-2.9579,-2.9735,-2.9774,-2.9891,-2.9911,-2.9989,-3.0059,-3.0215,-3.0293,-3.0488,-3.0723,-3.083,-3.0869,-3.0928,-3.0928,-3.0928,-3.0928,-3.0928,-3.0928,-3.0928,-3.0928,-3.0928,-3.0928,-3.1035,-3.125,-3.1504,-3.168,-3.1973,-3.2617,-3.3113,-3.3155,-3.3197,-3.2365,-3.1387,-2.9507,-2.8131,-2.6506,-2.3992,-2.2893,-2.2893,-2.2934,-2.3006,-2.306,-2.3148,-2.3215,-2.3247,-2.3278,-2.3385,-2.3487,-2.3701,-2.3928,-2.4226,-2.4492,-2.4559,-2.4599,-2.4599,-2.4599,-2.4599,-2.4599,-2.4599,-2.4599,-2.4599,-2.4599,-2.4599,-2.4599,-2.4613,-2.4653,-1.8408,-1.9709,-2.0705,-2.1893,-2.3366,-2.519,-2.6195,-2.6707,-2.7833,-2.8301,-2.8301,-2.8301,-2.8301,-2.8301,-2.8301,-2.8301,-2.8301,-2.832,-2.8574,-2.8781,-2.8976,-2.9199,-2.9492,-2.9883,-3.0273,-3.0488,-3.0654,-3.081,-3.0928,-3.0928,-3.0928,-3.0928,-3.0928,-3.0928,-3.0928,-3.0888,-3.0849,-3.0664,-3.0684,-3.0615,-3.041,-3.0106,-2.9657,-2.9598,-2.9598,-2.9598,-2.9598,-2.9598,-2.9813,-3.0087,-3.04,-3.0517,-3.0517,-3.0497,-3.0595,-3.0566,-3.0644,-3.0723,-3.0908,-3.0928,-3.0928,-3.0928,-3.0928,-3.0928,-3.0928,-3.0928,-3.0928,-3.0928,-3.0928,-3.0967,-3.0996,-3.125,-3.1484,-3.1816,-3.207,-3.2559,-3.3144,-3.3092,-3.3012,-3.2829,-3.2365,-3.0222,-2.7454,-2.6639,-2.6373,-2.4263,-2.2928,-2.2907,-2.3,-2.3086,-2.322,-2.3327,-2.3442,-2.3367,-2.3359,-2.3634,-2.3768,-2.3995,-2.4195,-2.4396,-2.4506,-2.4572,-2.4599,-2.4599,-2.4599,-2.4599,-2.4599,-2.4599,-2.4599,-2.4599,-2.4599,-2.4599,-2.4599,-2.4666,-2.4783]},{"header":{"parameterUnit":"m.s-1","parameterCategory":1,"la1":31.0,"la2":29.5877,"lo1":-88.7671,"lo2":-86.6584,"dy":0.0162,"dx":0.0185,"nx":115,"ny":88,"refTime":"2026-03-02T12:00:00:Z","depth":0,"parameterNumber":3,"parameterNumberName":"V-component_of_WINDS"},"data":[0.0,0.0,0.0,0.0,0.0,0.0,0.0,0.0,0.0,0.0,0.0,0.0,0.0,0.0,0.0,0.0,0.0,0.0,0.0,0.0,0.0,0.0,0.0,0.0,0.0,0.0,0.0,0.0,0.0,0.0,0.0,0.0,0.0,0.0,0.0,0.0,0.0,0.0,0.0,0.0,0.0,0.0,0.0,0.0,0.0,0.0,0.0,0.0,0.0,0.0,0.0,0.0,0.0,0.0,0.0,0.0,0.0,0.0,0.0,0.0,0.0,0.0,0.0,0.0,0.0,0.0,0.0,0.0,0.0,0.0,0.0,0.0,0.0,0.0,0.0,0.0,0.0,0.0,0.0,0.0,0.0,0.0,0.0,0.0,0.0,0.0,0.0,0.0,0.0,0.0,0.0,0.0,0.0,0.0,0.0,0.0,0.0,0.0,0.0,0.0,0.0,0.0,0.0,0.0,0.0,0.0,0.0,0.0,0.0,0.0,0.0,0.0,0.0,0.0,0.0,0.0,0.0,0.0,0.0,0.0,0.0,0.0,0.0,0.0,0.0,0.0,0.0,0.0,0.0,0.0,0.0,0.0,0.0,0.0,0.0,0.0,0.0,0.0,0.0,0.0,0.0,0.0,0.0,0.0,0.0,0.0,0.0,0.0,0.0,0.0,0.0,0.0,0.0,0.0,0.0,0.0,0.0,0.0,0.0,0.0,0.0,0.0,0.0,0.0,0.0,0.0,0.0,0.0,0.0,0.0,0.0,0.0,0.0,0.0,0.0,0.0,0.0,0.0,0.0,0.0,0.0,0.0,0.0,0.0,0.0,0.0,0.0,0.0,0.0,0.0,0.0,0.0,0.0,0.0,0.0,0.0,0.0,0.0,0.0,0.0,0.0,0.0,0.0,0.0,0.0,0.0,0.0,0.0,0.0,0.0,0.0,0.0,0.0,0.0,0.0,0.0,0.0,0.0,0.0,0.0,0.0,0.0,0.0,0.0,0.0,0.0,0.0,0.0,0.0,0.0,0.0,0.0,0.0,0.0,0.0,0.0,0.0,0.0,0.0,0.0,0.0,0.0,0.0,0.0,0.0,0.0,0.0,0.0,0.0,0.0,0.0,0.0,0.0,0.0,0.0,0.0,0.0,0.0,0.0,0.0,0.0,0.0,0.0,0.0,0.0,0.0,0.0,0.0,0.0,0.0,0.0,0.0,0.0,0.0,0.0,0.0,0.0,0.0,0.0,0.0,0.0,0.0,0.0,0.0,0.0,0.0,0.0,0.0,0.0,0.0,0.0,0.0,0.0,0.0,0.0,0.0,0.0,0.0,0.0,0.0,0.0,0.0,0.0,0.0,0.0,0.0,0.0,0.0,0.0,0.0,0.0,0.0,0.0,0.0,0.0,0.0,0.0,0.0,0.0,0.0,0.0,0.0,0.0,0.0,0.0,0.0,0.0,0.0,0.0,0.0,0.0,0.0,0.0,0.0,0.0,0.0,0.0,0.0,0.0,0.0,0.0,0.0,0.0,0.0,0.0,0.0,0.0,0.0,0.0,0.0,0.0,0.0,0.0,0.0,0.0,0.0,0.0,0.0,0.0,0.0,0.0,0.0,0.0,0.0,0.0,0.0,0.0,0.0,0.0,0.0,0.0,0.0,0.0,0.0,0.0,0.0,0.0,0.0,0.0,0.0,0.0,0.0,0.0,0.0,0.0,0.0,0.0,0.0,0.0,0.0,0.0,0.0,0.0,0.0,0.0,0.0,0.0,0.0,0.0,0.0,0.0,0.0,0.0,0.0,0.0,0.0,0.0,0.0,0.0,0.0,0.0,0.0,0.0,0.0,0.0,0.0,0.0,0.0,0.0,0.0,0.0,0.0,0.0,0.0,0.0,0.0,0.0,0.0,0.0,0.0,0.0,0.0,0.0,0.0,0.0,0.0,0.0,0.0,0.0,0.0,0.0,0.0,0.0,0.0,0.0,0.0,0.0,0.0,0.0,0.0,0.0,0.0,0.0,0.0,0.0,0.0,0.0,0.0,0.0,0.0,0.0,0.0,0.0,0.0,0.0,0.0,0.0,0.0,0.0,0.0,0.0,0.0,0.0,0.0,0.0,0.0,0.0,0.0,0.0,0.0,0.0,0.0,0.0,0.0,0.0,0.0,0.0,0.0,0.0,0.0,0.0,0.0,0.0,0.0,0.0,0.0,0.0,0.0,0.0,0.0,0.0,0.0,0.0,0.0,0.0,0.0,0.0,0.0,0.0,0.0,0.0,0.0,0.0,0.0,0.0,0.0,0.0,0.0,0.0,0.0,0.0,0.0,0.0,0.0,0.0,0.0,0.0,0.0,0.0,0.0,0.0,0.0,0.0,0.0,0.0,0.0,0.0,0.0,0.0,0.0,0.0,0.0,0.0,0.0,0.0,0.0,0.0,0.0,0.0,0.0,0.0,0.0,0.0,0.0,0.0,0.0,0.0,0.0,0.0,0.0,0.0,0.0,0.0,0.0,0.0,0.0,0.0,0.0,0.0,0.0,0.0,0.0,0.0,0.0,0.0,0.0,0.0,0.0,0.0,0.0,0.0,0.0,0.0,0.0,0.0,0.0,0.0,0.0,0.0,0.0,0.0,0.0,0.0,0.0,0.0,0.0,0.0,0.0,0.0,0.0,0.0,0.0,0.0,0.0,0.0,0.0,0.0,0.0,0.0,0.0,0.0,0.0,0.0,0.0,0.0,0.0,0.0,0.0,0.0,0.0,0.0,0.0,0.0,0.0,0.0,0.0,0.0,0.0,0.0,0.0,0.0,0.0,0.0,0.0,0.0,0.0,0.0,0.0,0.0,0.0,0.0,0.0,0.0,0.0,0.0,0.0,0.0,0.0,0.0,0.0,0.0,0.0,0.0,0.0,0.0,0.0,0.0,0.0,0.0,0.0,0.0,0.0,0.0,0.0,0.0,0.0,0.0,0.0,0.0,0.0,0.0,0.0,0.0,0.0,0.0,0.0,0.0,0.0,0.0,0.0,0.0,0.0,0.0,0.0,0.0,0.0,0.0,0.0,0.0,0.0,0.0,0.0,0.0,0.0,0.0,0.0,0.0,0.0,0.0,0.0,0.0,0.0,0.0,0.0,0.0,0.0,0.0,0.0,0.0,0.0,0.0,0.0,0.0,0.0,0.0,0.0,0.0,0.0,0.0,0.0,0.0,0.0,0.0,0.0,0.0,0.0,0.0,0.0,0.0,0.0,0.0,0.0,0.0,0.0,0.0,0.0,0.0,0.0,0.0,0.0,0.0,0.0,0.0,0.0,0.0,0.0,0.0,0.0,0.0,0.0,0.0,0.0,0.0,0.0,0.0,0.0,0.0,0.0,0.0,0.0,0.0,0.0,0.0,0.0,0.0,0.0,0.0,0.0,0.0,0.0,0.0,0.0,0.0,0.0,0.0,0.0,0.0,0.0,0.0,0.0,0.0,0.0,0.0,0.0,0.0,0.0,0.0,0.0,0.0,0.0,0.0,0.0,0.0,0.0,0.0,0.0,0.0,0.0,0.0,0.0,0.0,0.0,0.0,0.0,0.0,0.0,0.0,0.0,0.0,0.0,0.0,0.0,0.0,0.0,0.0,0.0,0.0,0.0,0.0,0.0,0.0,0.0,0.0,0.0,0.0,0.0,0.0,0.0,0.0,0.0,0.0,0.0,0.0,0.0,0.0,0.0,0.0,0.0,0.0,0.0,0.0,0.0,0.0,0.0,0.0,0.0,0.0,0.0,0.0,0.0,0.0,0.0,0.0,0.0,0.0,0.0,0.0,0.0,0.0,0.0,0.0,0.0,0.0,0.0,0.0,0.0,0.0,0.0,0.0,0.0,0.0,0.0,0.0,0.0,0.0,0.0,0.0,0.0,0.0,0.0,0.0,0.0,0.0,0.0,0.0,0.0,0.0,0.0,0.0,0.0,0.0,0.0,0.0,0.0,0.0,0.0,0.0,0.0,0.0,0.0,0.0,0.0,0.0,0.0,0.0,0.0,0.0,0.0,0.0,0.0,0.0,0.0,0.0,0.0,0.0,0.0,0.0,0.0,0.0,0.0,0.0,0.0,0.0,0.0,0.0,0.0,0.0,0.0,0.0,0.0,0.0,0.0,0.0,0.0,0.0,0.0,0.0,0.0,0.0,0.0,0.0,0.0,0.0,0.0,0.0,0.0,0.0,0.0,0.0,0.0,0.0,0.0,0.0,0.0,0.0,0.0,0.0,0.0,0.0,0.0,0.0,0.0,0.0,0.0,0.0,0.0,1.1085,0.0,0.0,0.0,0.0,0.0,0.0,0.0,0.0,0.0,0.0,0.0,0.0,0.0,0.0,0.0,0.0,0.0,0.0,0.0,0.0,0.0,0.0,0.0,0.0,0.0,0.0,0.0,0.0,0.0,0.0,0.0,0.0,0.0,0.0,0.0,0.0,0.0,0.0,0.0,0.0,0.0,0.0,0.0,0.0,0.0,0.0,0.0,0.0,0.0,0.0,0.0,0.0,0.0,0.0,0.0,0.0,0.0,0.0,0.0,0.0,0.0,0.0,0.0,0.0,0.0,0.0,0.0,0.0,0.0,0.0,0.0,0.0,0.0,0.0,0.0,0.0,0.0,0.0,0.0,0.0,0.0,0.0,0.0,0.0,0.0,0.0,0.0,0.0,0.0,0.0,0.0,0.0,0.0,0.0,0.0,0.0,0.0,0.0,0.0,0.0,0.0,0.0,0.0,0.0,0.0,0.0,0.0,0.0,0.0,0.0,1.1306,1.0947,1.0965,1.0997,1.1096,0.0,0.0,0.0,0.0,0.0,0.0,0.0,0.0,0.0,0.0,0.0,0.0,0.0,0.0,0.0,0.0,0.0,0.0,0.0,0.0,0.0,0.0,0.0,0.0,0.0,0.0,0.0,0.0,0.0,0.0,0.0,0.0,0.0,0.0,0.0,0.0,0.0,0.0,0.0,0.0,0.0,0.0,0.0,0.0,0.0,0.0,0.0,0.0,0.0,0.0,0.0,0.0,0.0,0.0,0.0,0.0,0.0,0.0,0.0,0.0,0.0,0.0,0.0,0.0,0.0,0.0,0.0,0.0,0.0,0.0,0.0,0.0,0.0,0.0,0.0,0.0,0.0,0.0,0.0,0.0,0.0,0.0,0.0,0.0,0.0,0.0,0.0,0.0,0.0,0.0,0.0,0.0,0.0,0.0,0.0,0.0,0.0,0.0,0.0,0.0,0.0,0.0,0.0,0.0,0.0,0.0,0.0,0.0,0.0,0.0,0.0,0.0,1.1272,1.1441,1.1637,0.0,0.0,0.0,0.0,0.0,0.0,0.0,0.0,0.0,0.0,0.0,0.0,0.0,0.0,0.0,0.0,0.0,0.0,0.0,0.0,0.0,0.0,0.0,0.0,0.0,0.0,0.0,0.0,0.0,0.0,0.0,0.0,0.0,0.0,0.0,0.0,0.0,0.0,0.0,0.0,0.0,0.0,0.0,0.0,0.0,0.0,0.0,0.0,0.0,0.0,0.0,0.0,0.0,0.0,0.0,0.0,0.0,0.0,0.0,0.0,0.0,0.0,0.0,0.0,0.0,0.0,0.0,0.0,0.0,0.0,0.0,0.0,0.0,0.0,0.0,0.0,0.0,0.0,0.0,0.0,0.0,0.0,0.0,0.0,0.0,0.0,0.0,0.0,0.0,0.0,0.0,0.0,0.0,0.0,0.0,0.0,0.0,0.0,0.0,0.0,0.0,0.0,0.0,0.0,0.0,0.0,0.0,0.0,0.0,0.0,1.0778,1.211,1.2171,0.0,1.3172,0.0,0.0,0.0,0.0,0.0,0.0,0.0,0.0,0.0,0.0,0.0,0.0,0.0,0.0,0.0,0.0,0.0,0.0,0.0,0.0,0.0,0.0,0.0,0.0,0.0,0.0,0.0,0.0,0.0,0.0,0.0,0.0,0.0,0.0,0.0,0.0,0.0,0.0,0.0,0.0,0.0,0.0,0.0,0.0,0.0,0.0,0.0,0.0,0.0,0.0,0.0,0.0,0.0,0.0,0.0,0.0,0.0,0.0,0.0,0.0,0.0,0.0,0.0,0.0,0.0,0.0,0.0,0.0,0.0,0.0,0.0,0.0,0.0,0.0,0.0,0.0,0.0,0.0,0.0,0.0,0.0,0.0,0.0,0.0,0.0,0.0,0.0,0.0,0.0,0.0,0.0,0.0,0.0,0.0,0.0,0.0,0.0,0.0,0.0,0.0,0.0,0.0,0.0,0.0,0.0,0.0,0.0,0.0,0.0,0.0,1.1434,1.157,1.2043,1.2449,0.0,0.0,0.0,0.0,0.0,0.0,0.0,0.0,0.0,0.0,0.0,0.0,0.0,0.0,0.0,0.0,0.0,0.0,0.0,0.0,0.0,0.0,0.0,0.0,0.0,0.0,0.0,0.0,0.0,0.0,0.0,0.0,0.0,0.0,0.0,0.0,0.0,0.0,0.0,0.0,0.0,0.0,0.0,0.0,0.0,0.0,0.0,0.0,0.0,0.0,0.0,0.0,0.0,0.0,0.0,0.0,0.0,0.0,0.0,0.0,0.0,0.0,0.0,0.0,0.0,0.0,0.0,0.0,0.0,0.0,0.0,0.0,0.0,0.0,0.0,0.0,0.0,0.0,0.0,0.0,0.0,0.0,0.0,0.0,0.0,0.0,0.0,0.0,0.0,0.0,0.0,0.0,0.0,0.0,0.0,0.0,0.0,0.0,0.0,0.0,0.0,0.0,0.0,0.0,0.0,0.0,0.0,0.0,0.0,0.0,1.1336,1.1908,1.1776,1.2284,1.2517,1.2314,0.0,0.0,0.0,0.0,0.0,0.0,0.0,0.0,0.0,0.0,0.0,0.0,0.0,0.0,0.0,0.0,0.0,0.0,0.0,0.0,0.0,0.0,0.0,0.0,0.0,0.0,0.0,0.0,0.0,0.0,0.0,0.0,0.0,0.0,0.0,0.0,0.0,0.0,0.0,0.0,0.0,0.0,0.0,0.0,0.0,0.0,0.0,0.0,0.0,0.0,0.0,0.0,0.0,0.0,0.0,0.0,0.0,0.0,0.0,0.0,0.0,0.0,0.0,0.0,0.0,0.0,0.0,0.0,0.0,0.0,0.0,0.0,0.0,0.0,0.0,0.0,0.0,0.0,0.0,0.0,0.0,0.0,0.0,0.0,0.0,0.0,0.0,0.0,0.0,0.0,0.0,0.0,0.0,0.0,0.0,0.0,0.0,0.0,0.0,0.0,0.0,0.0,0.0,0.0,0.0,0.0,0.0,0.0,0.0,1.1851,1.1848,1.3248,1.335,1.2999,0.0,0.0,0.0,0.0,0.0,0.0,0.0,0.0,0.0,0.0,0.0,0.0,0.0,0.0,0.0,0.0,0.0,0.0,0.0,0.0,0.0,0.0,0.0,0.0,0.0,0.0,0.0,0.0,0.0,0.0,0.0,0.0,0.0,0.0,0.0,0.0,0.0,0.0,0.0,0.0,0.0,0.0,0.0,0.0,0.0,0.0,0.0,0.0,0.0,0.0,0.0,0.0,0.0,0.0,0.0,0.0,0.0,0.0,0.0,0.0,0.0,0.0,0.0,0.0,0.0,0.0,0.0,0.0,0.0,0.0,0.0,0.0,0.0,0.0,0.0,0.0,0.0,0.0,0.0,0.0,0.0,0.0,0.0,0.0,0.0,0.0,0.0,0.0,0.0,0.0,0.0,0.0,0.0,0.0,0.0,0.0,0.0,0.0,0.0,0.0,0.0,0.0,0.0,0.0,0.0,0.0,0.0,0.0,0.0,1.047,1.0957,1.2469,1.4857,1.3209,1.249,0.0,0.0,0.0,0.0,0.0,0.0,0.0,0.0,0.0,0.0,0.0,0.0,0.0,0.0,0.0,0.0,0.0,0.0,0.0,0.0,0.0,0.0,0.0,0.0,0.0,0.0,0.0,0.0,0.0,0.0,0.0,0.0,0.0,0.0,0.0,0.0,0.0,0.0,0.0,0.0,0.0,0.0,0.0,0.0,0.0,0.0,0.0,0.0,0.0,0.0,0.0,0.0,0.0,0.0,0.0,0.0,0.0,0.0,0.0,0.0,0.0,0.0,0.0,0.0,0.0,0.0,0.0,0.0,0.0,0.0,0.0,0.0,0.0,0.0,0.0,0.0,0.0,0.0,0.0,0.0,0.0,0.0,0.0,0.0,0.0,0.0,0.0,0.0,0.0,0.0,0.0,0.0,0.0,0.0,0.0,0.0,0.0,0.0,0.0,0.0,0.0,0.0,0.0,0.0,0.0,0.0,0.0,0.0,0.0,1.043,0.0,1.3746,0.0,1.3341,1.2263,0.0,0.0,0.0,0.0,0.0,0.0,0.0,0.0,0.0,0.0,0.0,0.0,0.0,0.0,0.0,0.0,0.0,0.0,0.0,0.0,0.0,0.0,0.0,0.0,0.0,0.0,0.0,0.0,0.0,0.0,0.0,0.0,0.0,0.0,0.0,0.0,0.0,0.0,0.0,0.0,0.0,0.0,0.0,0.0,0.0,0.0,0.0,0.0,0.0,0.0,0.0,0.0,0.0,0.0,0.0,0.0,0.0,0.0,0.0,0.0,0.0,0.0,0.0,0.0,0.0,0.0,0.0,0.0,0.0,0.0,0.0,0.0,0.0,0.0,0.0,0.0,0.0,0.0,0.0,0.0,0.0,0.0,0.0,0.0,0.0,0.0,0.0,0.0,0.0,0.0,0.0,0.0,0.0,0.0,0.0,0.0,0.0,0.0,0.0,0.0,0.0,0.0,0.0,0.0,0.0,0.0,0.0,0.0,1.0476,1.3503,1.529,1.547,1.4051,1.392,1.2474,0.0,0.0,0.0,0.0,0.0,0.0,0.0,0.0,0.0,0.0,0.0,0.0,0.0,0.0,0.0,0.0,0.0,0.0,0.0,0.0,0.0,0.0,0.0,0.0,0.0,0.0,0.0,0.0,0.0,0.0,0.0,0.0,0.0,0.0,0.0,0.0,0.0,0.0,0.0,0.0,0.0,0.0,0.0,0.0,0.0,0.0,0.0,0.0,0.0,0.0,0.0,0.0,0.0,0.0,0.0,0.0,0.0,0.0,0.0,0.0,0.0,0.0,0.0,0.0,0.0,0.0,0.0,0.0,0.0,0.0,0.0,0.0,0.0,0.0,0.0,0.0,0.0,0.0,0.0,0.0,0.0,0.0,0.0,0.0,0.0,0.0,0.0,0.0,0.0,0.0,0.0,0.0,0.0,0.0,0.0,0.0,0.0,0.0,0.0,0.0,0.0,0.0,0.0,0.0,0.0,0.0,0.0,0.0,0.0,1.2368,1.403,1.5518,1.6515,1.4569,1.3784,0.0,0.0,0.0,0.0,0.0,0.0,0.0,0.0,0.0,0.0,0.0,0.0,0.0,0.0,0.0,0.0,0.0,0.0,0.0,0.0,0.0,0.0,0.0,0.0,0.0,0.0,0.0,0.0,0.0,0.0,0.0,0.0,0.0,0.0,0.0,0.0,0.0,0.0,0.0,0.0,0.0,0.0,0.0,0.0,0.0,0.0,0.0,0.0,0.0,0.0,0.0,0.0,0.0,0.0,0.0,0.0,0.0,0.0,0.0,0.0,0.0,0.0,0.0,0.0,0.0,0.0,0.0,0.0,0.0,0.0,0.0,0.0,0.0,0.0,0.0,0.0,0.0,0.0,0.0,0.0,0.0,0.0,0.0,0.0,0.0,0.0,0.0,0.0,0.0,0.0,0.0,0.0,0.0,0.0,0.0,0.0,0.0,0.0,0.0,0.0,0.0,0.0,0.0,0.0,0.0,0.0,0.0,0.0,0.0,1.3742,1.5572,1.7034,1.7961,1.5786,1.4873,1.5353,0.0,0.0,0.0,0.0,0.0,0.0,0.0,0.0,0.0,0.0,0.0,0.0,0.0,0.0,0.0,0.0,0.0,0.0,0.0,0.0,0.0,0.0,0.0,0.0,0.0,0.0,0.0,0.0,0.0,0.0,0.0,0.0,0.0,0.0,0.0,0.0,0.0,0.0,0.0,0.0,0.0,0.0,0.0,0.0,0.0,0.0,0.0,0.0,0.0,0.0,0.0,0.0,0.0,0.0,0.0,0.0,0.0,0.0,0.0,0.0,0.0,0.0,0.0,0.0,0.0,0.0,0.0,0.0,0.0,0.0,0.0,0.0,0.0,0.0,0.0,0.0,0.0,0.0,0.0,0.0,0.0,0.0,0.0,0.0,0.0,0.0,0.0,0.0,0.0,0.0,0.0,0.0,0.0,0.0,0.0,0.0,0.0,0.0,0.0,0.0,0.0,0.0,0.0,0.0,0.0,0.0,0.0,0.0,1.7092,1.9329,1.9736,1.8306,1.7348,1.5851,0.0,0.0,0.0,0.0,0.0,0.0,0.0,0.0,0.0,0.0,0.0,0.0,0.0,0.0,0.0,0.0,0.0,0.0,0.0,0.0,0.0,0.0,0.0,0.0,0.0,0.0,0.0,0.0,0.0,0.0,0.0,0.0,0.0,0.0,0.0,0.0,0.0,0.0,0.0,0.0,0.0,0.0,0.0,0.0,0.0,0.0,0.0,0.0,0.0,0.0,0.0,0.0,0.0,0.0,0.0,0.0,0.0,0.0,0.0,0.0,0.0,0.0,0.0,0.0,0.0,0.0,0.0,0.0,0.0,0.0,0.0,0.0,0.0,0.0,0.0,0.0,0.0,0.0,0.0,0.0,0.0,0.0,0.0,0.0,0.0,0.0,0.0,0.0,0.0,0.0,0.0,0.0,0.0,0.0,0.0,0.0,0.0,0.0,0.0,0.0,0.0,0.0,0.0,0.0,0.0,0.0,0.0,0.0,0.0,1.9439,2.0177,2.0283,1.985,1.7935,1.6912,0.0,0.0,0.0,0.0,0.0,0.0,0.0,0.0,0.0,0.0,0.0,0.0,0.0,0.0,0.0,0.0,0.0,0.0,0.0,0.0,0.0,0.0,0.0,0.0,0.0,0.0,0.0,0.0,0.0,0.0,0.0,0.0,0.0,0.0,0.0,0.0,0.0,0.0,0.0,0.0,0.0,0.0,0.0,0.0,0.0,0.0,0.0,0.0,0.0,0.0,0.0,0.0,0.0,0.0,0.0,0.0,0.0,0.0,0.0,0.0,0.0,0.0,0.0,0.0,0.0,0.0,0.0,0.0,0.0,0.0,0.0,0.0,0.0,0.0,0.0,0.0,0.0,0.0,0.0,0.0,0.0,0.0,0.0,0.0,0.0,0.0,0.0,0.0,0.0,0.0,0.0,0.0,0.0,0.0,0.0,0.0,0.0,0.0,0.0,0.0,0.0,0.0,0.0,0.0,0.0,0.0,0.0,0.0,1.7515,2.0433,2.057,2.0578,2.0507,1.9149,1.8122,0.0,0.0,0.0,0.0,0.0,0.0,0.0,0.0,0.0,0.0,0.0,0.0,0.0,0.0,0.0,0.0,0.0,0.0,0.0,0.0,0.0,0.0,0.0,0.0,0.0,0.0,0.0,0.0,0.0,0.0,0.0,0.0,0.0,0.0,0.0,0.0,0.0,0.0,0.0,0.0,0.0,0.0,0.0,0.0,0.0,0.0,0.0,0.0,0.0,0.0,0.0,0.0,0.0,0.0,0.0,0.0,0.0,0.0,0.0,0.0,0.0,0.0,0.0,0.0,0.0,0.0,0.0,0.0,0.0,0.0,0.0,0.0,0.0,0.0,0.0,0.0,0.0,0.0,0.0,0.0,0.0,0.0,0.0,0.0,0.0,0.0,0.0,0.0,0.0,0.0,0.0,0.0,0.0,0.0,0.0,0.0,0.0,0.0,0.0,0.0,0.0,0.0,0.0,0.0,0.0,0.0,0.0,0.0,1.8192,2.058,2.0752,2.0797,2.0784,2.0641,1.9433,0.0,0.0,0.0,0.0,0.0,0.0,0.0,0.0,0.0,0.0,0.0,0.0,0.0,0.0,0.0,0.0,0.0,0.0,0.0,0.0,0.0,0.0,0.0,0.0,0.0,0.0,0.0,0.0,0.0,0.0,0.0,0.0,0.0,0.0,0.0,0.0,0.0,0.0,0.0,0.0,0.0,0.0,0.0,0.0,0.0,0.0,0.0,0.0,0.0,0.0,0.0,0.0,0.0,0.0,0.0,0.0,0.0,0.0,0.0,0.0,0.0,0.0,0.0,0.0,0.0,0.0,0.0,0.0,0.0,0.0,0.0,0.0,0.0,0.0,0.0,0.0,0.0,0.0,0.0,0.0,0.0,0.0,0.0,0.0,0.0,0.0,0.0,0.0,0.0,0.0,0.0,0.0,0.0,0.0,0.0,0.0,0.0,0.0,0.0,0.0,0.0,0.0,0.0,0.0,0.0,0.0,0.0,0.0,1.9047,2.1408,2.1049,2.135,2.2423,2.1326,1.9829,0.0,0.0,0.0,0.0,0.0,0.0,0.0,0.0,0.0,0.0,0.0,0.0,0.0,0.0,0.0,0.0,0.0,0.0,0.0,0.0,0.0,0.0,0.0,0.0,0.0,0.0,0.0,0.0,0.0,0.0,0.0,0.0,0.0,0.0,0.0,0.0,0.0,0.0,0.0,0.0,0.0,0.0,0.0,0.0,0.0,0.0,0.0,0.0,1.625,0.0,0.0,0.0,0.0,0.0,0.0,0.0,0.0,0.0,0.0,0.0,0.0,0.0,0.0,0.0,0.0,0.0,0.0,0.0,0.0,0.0,0.0,0.0,0.0,0.0,0.0,0.0,0.0,0.0,0.0,0.0,0.0,0.0,0.0,0.0,0.0,0.0,0.0,0.0,0.0,0.0,0.0,0.0,0.0,0.0,0.0,0.0,0.0,0.0,0.0,0.0,0.0,0.0,0.0,0.0,0.0,0.0,0.0,0.0,1.9679,2.1711,2.1895,2.2304,2.296,2.2329,2.0912,0.0,0.0,0.0,0.0,0.0,0.0,0.0,0.0,0.0,0.0,0.0,0.0,0.0,0.0,0.0,0.0,0.0,0.0,0.0,0.0,0.0,0.0,0.0,0.0,0.0,0.0,0.0,0.0,0.0,0.0,0.0,0.0,0.0,0.0,0.0,0.0,0.0,0.0,0.0,0.0,0.0,0.0,0.0,0.0,0.0,0.0,0.0,0.0,0.0,0.0,0.0,0.0,0.0,0.0,0.0,0.0,0.0,0.0,0.0,0.0,0.0,0.0,0.0,0.0,0.0,0.0,0.0,0.0,0.0,0.0,0.0,0.0,0.0,0.0,0.0,0.0,0.0,0.0,0.0,0.0,0.0,0.0,0.0,0.0,0.0,0.0,0.0,0.0,0.0,0.0,0.0,0.0,0.0,0.0,0.0,0.0,0.0,0.0,0.0,0.0,0.0,0.0,0.0,0.0,0.0,0.0,0.0,1.8133,2.0123,2.1752,2.2778,2.3264,2.3171,2.3248,2.2167,1.9801,0.0,0.0,0.0,0.0,0.0,0.0,0.0,0.0,0.0,0.0,0.0,0.0,0.0,0.0,0.0,0.0,0.0,0.0,0.0,0.0,0.0,0.0,0.0,0.0,0.0,0.0,0.0,0.0,0.0,0.0,0.0,0.0,0.0,0.0,0.0,0.0,0.0,0.0,1.4448,1.7534,0.0,0.0,0.0,0.0,0.0,0.0,0.0,0.0,1.8984,0.0,0.0,0.0,0.0,0.0,0.0,0.0,0.0,0.0,0.0,0.0,0.0,0.0,0.0,0.0,0.0,0.0,0.0,0.0,0.0,0.0,0.0,0.0,0.0,0.0,0.0,0.0,0.0,0.0,0.0,0.0,0.0,0.0,0.0,0.0,0.0,0.0,0.0,0.0,0.0,0.0,0.0,0.0,0.0,0.0,0.0,0.0,0.0,0.0,0.0,0.0,0.0,0.0,0.0,0.0,0.0,1.7628,1.8753,2.0123,2.1743,2.2778,2.352,2.3956,2.3544,2.2716,2.1393,0.0,0.0,0.0,0.0,0.0,0.0,0.0,0.0,0.0,0.0,0.0,0.0,0.0,0.0,0.0,0.0,0.0,0.0,0.0,0.0,0.0,0.0,0.0,0.0,0.0,0.0,0.0,0.0,0.0,0.0,0.0,0.0,0.0,0.0,0.0,0.0,0.0,0.0,0.0,1.9685,2.1797,0.0,0.0,0.0,0.0,0.0,0.0,0.0,0.0,1.9805,0.0,0.0,0.0,0.0,0.0,0.0,0.0,0.0,0.0,0.0,0.0,0.0,0.0,0.0,0.0,0.0,0.0,0.0,0.0,0.0,0.0,0.0,0.0,0.0,0.0,0.0,0.0,0.0,0.0,0.0,0.0,0.0,0.0,0.0,0.0,0.0,0.0,0.0,0.0,0.0,0.0,0.0,0.0,0.0,0.0,0.0,0.0,0.0,0.0,0.0,0.0,0.0,0.0,0.0,0.0,1.7268,1.9456,2.1009,2.1817,2.3099,2.3911,2.4126,2.2689,2.1849,0.0,0.0,0.0,0.0,0.0,0.0,0.0,0.0,0.0,0.0,0.0,0.0,0.0,0.0,0.0,0.0,0.0,0.0,0.0,0.0,0.0,0.0,0.0,0.0,0.0,0.0,0.0,0.0,0.0,0.0,0.0,0.0,0.0,0.0,0.0,0.0,0.0,0.0,0.0,0.0,2.1431,2.2849,2.3711,0.0,0.0,0.0,0.0,0.0,0.0,2.1094,2.0391,0.0,0.0,0.0,0.0,0.0,0.0,0.0,0.0,0.0,0.0,0.0,0.0,0.0,0.0,0.0,0.0,0.0,0.0,0.0,0.0,0.0,0.0,0.0,0.0,0.0,0.0,0.0,0.0,0.0,0.0,0.0,0.0,0.0,0.0,0.0,0.0,0.0,0.0,0.0,0.0,0.0,0.0,0.0,0.0,0.0,0.0,0.0,0.0,0.0,0.0,0.0,0.0,0.0,0.0,0.0,1.6679,1.9864,2.1629,2.1849,2.3355,2.4116,2.3933,2.2199,2.1249,0.0,0.0,0.0,0.0,0.0,0.0,0.0,0.0,0.0,0.0,0.0,0.0,0.0,0.0,0.0,0.0,0.0,0.0,0.0,0.0,0.0,0.0,0.0,0.0,0.0,0.0,0.0,0.0,0.0,0.0,0.0,0.0,0.0,0.0,0.0,0.0,0.0,0.0,0.0,0.0,0.0,2.4052,2.457,2.3945,0.0,0.0,0.0,0.0,2.3437,2.293,0.0,0.0,0.0,0.0,0.0,0.0,0.0,0.0,0.0,0.0,0.0,0.0,0.0,0.0,0.0,0.0,0.0,0.0,0.0,0.0,0.0,0.0,0.0,0.0,0.0,0.0,0.0,0.0,0.0,0.0,0.0,0.0,0.0,0.0,0.0,0.0,0.0,0.0,0.0,0.0,0.0,0.0,0.0,0.0,0.0,0.0,0.0,0.0,0.0,0.0,0.0,0.0,0.0,0.0,0.0,0.0,1.6834,1.9362,2.1029,2.1812,2.3391,2.3855,2.3189,2.3529,2.2464,0.0,0.0,0.0,0.0,0.0,0.0,0.0,0.0,0.0,0.0,0.0,0.0,0.0,0.0,0.0,0.0,0.0,0.0,0.0,0.0,0.0,0.0,0.0,0.0,0.0,0.0,0.0,0.0,0.0,0.0,0.0,0.0,0.0,0.0,0.0,0.0,0.0,0.0,0.0,0.0,0.0,2.6238,2.5625,2.4805,2.4492,0.0,0.0,2.5156,2.5352,2.7148,0.0,0.0,0.0,0.0,0.0,0.0,0.0,0.0,0.0,0.0,0.0,0.0,0.0,0.0,0.0,0.0,0.0,0.0,0.0,0.0,0.0,0.0,0.0,0.0,0.0,0.0,0.0,0.0,0.0,0.0,0.0,0.0,0.0,0.0,0.0,0.0,0.0,0.0,0.0,0.0,0.0,0.0,0.0,0.0,0.0,0.0,0.0,0.0,0.0,0.0,0.0,0.0,0.0,0.0,0.0,1.4848,1.7402,1.992,2.1657,2.246,2.3602,2.3823,2.3001,2.2905,2.1739,0.0,0.0,0.0,0.0,0.0,0.0,0.0,0.0,0.0,0.0,0.0,0.0,0.0,0.0,0.0,0.0,0.0,0.0,0.0,0.0,0.0,0.0,0.0,0.0,0.0,0.0,0.0,0.0,0.0,0.0,0.0,0.0,0.0,0.0,0.0,0.0,0.0,0.0,0.0,0.0,0.0,0.0,2.6397,2.6952,0.0,0.0,0.0,2.7539,2.8516,0.0,0.0,0.0,0.0,0.0,0.0,0.0,0.0,0.0,0.0,0.0,0.0,0.0,0.0,0.0,0.0,0.0,0.0,0.0,0.0,0.0,0.0,0.0,0.0,0.0,0.0,0.0,0.0,0.0,0.0,0.0,0.0,0.0,0.0,0.0,0.0,0.0,0.0,0.0,0.0,0.0,0.0,0.0,0.0,0.0,0.0,0.0,0.0,0.0,0.0,0.0,0.0,0.0,0.0,0.0,0.0,0.0,1.7841,2.0461,2.2175,2.2965,2.3786,2.3717,2.2717,2.2322,0.0,0.0,0.0,0.0,0.0,0.0,0.0,0.0,0.0,0.0,0.0,0.0,0.0,0.0,0.0,0.0,0.0,0.0,0.0,0.0,0.0,0.0,0.0,0.0,0.0,0.0,0.0,1.027,0.0,0.0,0.0,0.0,0.0,0.0,0.0,0.0,0.0,0.0,0.0,0.0,0.0,0.0,2.7525,2.7551,2.9097,3.0234,0.0,0.0,2.9961,3.1013,3.0622,2.9524,0.0,0.0,0.0,0.0,0.0,0.0,0.0,0.0,0.0,0.0,0.0,0.0,0.0,0.0,0.0,0.0,0.0,0.0,0.0,0.0,0.0,0.0,0.0,0.0,0.0,0.0,0.0,0.0,0.0,0.0,0.0,0.0,0.0,0.0,0.0,0.0,0.0,0.0,0.0,0.0,0.0,0.0,0.0,0.0,0.0,0.0,0.0,0.0,0.0,0.0,0.0,0.0,0.0,0.0,0.0,1.8067,2.0523,2.2212,2.3006,2.3786,2.3465,2.1959,2.2579,2.1098,0.0,0.0,0.0,0.0,0.0,0.0,0.0,0.0,0.0,0.0,0.0,0.0,0.0,0.0,0.0,0.0,0.0,0.0,0.0,0.0,0.0,0.0,0.0,0.0,0.0,0.0,0.0,0.0,0.0,0.0,0.0,0.0,0.0,0.0,0.0,0.0,0.0,0.0,0.0,0.0,0.0,2.927,2.9304,3.0855,3.2031,0.0,0.0,3.2771,3.2042,3.3873,3.3744,2.8838,0.0,0.0,0.0,0.0,0.0,0.0,0.0,0.0,0.0,0.0,0.0,0.0,0.0,0.0,0.0,0.0,0.0,0.0,0.0,0.0,0.0,0.0,0.0,0.0,0.0,0.0,0.0,0.0,0.0,0.0,0.0,0.0,0.0,0.0,0.0,0.0,0.0,0.0,0.0,0.0,0.0,0.0,0.0,0.0,0.0,0.0,0.0,0.0,0.0,0.0,0.0,0.0,0.0,1.6378,1.9553,2.1041,2.2437,2.3671,2.4043,2.3676,2.257,2.2822,2.1538,0.0,0.0,0.0,0.0,0.0,0.0,0.0,0.0,0.0,0.0,0.0,0.0,0.0,0.0,0.0,0.0,0.0,0.0,0.0,0.0,0.0,0.0,0.0,0.0,0.0,0.0,0.0,0.0,1.4629,1.5237,1.5046,0.0,0.0,0.0,0.0,0.0,0.0,0.0,0.0,0.0,0.0,2.9966,3.1568,3.2916,0.0,0.0,3.4749,3.4775,3.437,3.4248,3.3177,3.0058,2.8262,0.0,0.0,0.0,0.0,0.0,0.0,0.0,0.0,0.0,0.0,0.0,0.0,0.0,0.0,0.0,0.0,0.0,0.0,0.0,0.0,0.0,0.0,0.0,0.0,0.0,0.0,0.0,0.0,0.0,0.0,0.0,0.0,0.0,0.0,0.0,0.0,0.0,0.0,0.0,0.0,0.0,0.0,0.0,0.0,0.0,0.0,0.0,0.0,0.0,0.0,0.0,0.0,1.6945,2.0462,2.1368,2.2584,2.4158,2.4194,2.3823,2.3043,2.3011,2.1836,0.0,0.0,0.0,0.0,0.0,0.0,0.0,0.0,0.0,0.0,0.0,0.0,0.0,0.0,0.0,0.0,0.0,0.0,0.0,0.0,0.0,0.0,0.0,0.0,0.0,0.0,0.0,0.0,1.6636,1.7007,1.6195,0.0,0.0,0.0,0.0,0.0,0.0,0.0,0.0,0.0,0.0,3.1277,3.3329,3.4605,3.5564,3.6154,3.599,3.581,3.5694,3.49,3.3547,3.1235,0.0,0.0,0.0,0.0,0.0,0.0,0.0,0.0,0.0,0.0,0.0,0.0,0.0,0.0,0.0,0.0,0.0,0.0,0.0,0.0,0.0,0.0,0.0,0.0,0.0,0.0,0.0,0.0,0.0,0.0,1.3472,0.0,0.0,0.0,0.0,0.0,0.0,0.0,0.0,0.0,0.0,0.0,0.0,0.0,0.0,0.0,0.0,0.0,0.0,0.0,0.0,0.0,0.0,1.6985,2.0462,2.14,2.2579,2.4158,2.4194,2.3823,2.3043,2.3011,2.184,1.9389,0.0,0.0,0.0,0.0,0.0,0.0,0.0,0.0,0.0,0.0,0.0,0.0,0.0,0.0,0.0,0.0,0.0,0.0,0.0,0.0,0.0,0.0,0.0,0.0,0.0,0.0,1.6458,1.6505,1.6235,0.0,0.0,0.0,0.0,0.0,0.0,0.0,0.0,0.0,0.0,3.0442,3.3432,3.4367,3.5884,3.6933,3.6996,3.6303,3.5731,3.5691,3.625,3.5665,0.0,0.0,0.0,0.0,0.0,0.0,0.0,0.0,0.0,0.0,0.0,0.0,0.0,0.0,0.0,0.0,0.0,0.0,0.0,0.0,0.0,0.0,0.0,0.0,0.0,0.0,0.0,1.7388,1.6735,0.0,0.0,0.0,0.0,0.0,0.0,0.0,0.0,0.0,0.0,0.0,2.2164,2.2866,0.0,0.0,0.0,0.0,0.0,0.0,0.0,0.0,0.0,0.0,0.0,0.0,1.8314,2.124,2.2171,2.3125,2.4158,2.4194,2.408,2.3781,2.3267,2.1836,1.9393,0.0,0.0,0.0,0.0,0.0,0.0,0.0,0.0,0.0,0.0,0.0,0.0,0.0,0.0,0.0,0.0,0.0,0.0,0.0,0.0,0.0,0.0,0.0,0.0,0.0,1.8579,0.0,0.0,0.0,0.0,0.0,0.0,0.0,0.0,0.0,0.0,0.0,2.5825,2.8844,3.2039,3.4772,3.6686,3.7463,3.8019,0.0,0.0,0.0,0.0,0.0,0.0,0.0,0.0,0.0,0.0,0.0,0.0,0.0,0.0,3.4927,2.9192,2.7692,2.7372,2.7707,0.0,0.0,0.0,0.0,0.0,0.0,0.0,0.0,0.0,0.0,0.0,0.0,0.0,0.0,2.0378,0.0,1.9543,0.0,0.0,0.0,0.0,0.0,0.0,0.0,0.0,2.3567,2.4711,2.5636,2.6329,2.5779,0.0,2.3847,2.2116,0.0,0.0,0.0,0.0,0.0,0.0,0.0,0.0,1.9607,2.2497,2.3125,2.3923,2.4965,2.4782,2.464,2.4598,2.3561,2.224,2.0629,1.9304,1.8309,0.0,0.0,0.0,0.0,0.0,0.0,0.0,0.0,0.0,0.0,0.0,0.0,0.0,0.0,0.0,0.0,0.0,0.0,0.0,0.0,0.0,0.0,0.0,2.0521,0.0,0.0,0.0,0.0,0.0,0.0,0.0,0.0,0.0,2.3037,2.5524,2.8464,3.152,3.4115,3.6336,3.7934,0.0,0.0,0.0,0.0,0.0,0.0,0.0,3.6853,3.6811,3.5942,3.5326,3.5589,3.7646,3.9182,3.8951,0.0,0.0,3.3778,3.2106,3.1831,3.2467,3.3474,3.4481,3.5358,3.6925,3.8213,0.0,0.0,0.0,0.0,0.0,0.0,0.0,0.0,2.448,2.4138,0.0,2.2933,0.0,0.0,0.0,0.0,0.0,2.14,0.0,0.0,2.6868,2.8337,2.9031,2.906,2.8656,2.7903,2.7824,2.6576,2.4161,2.0453,0.0,0.0,0.0,0.0,0.0,0.0,2.0855,2.4038,2.4263,2.5034,2.646,2.5815,2.5416,2.5379,2.3896,2.3043,2.2969,2.2139,2.1005,1.9462,1.861,0.0,0.0,0.0,0.0,0.0,0.0,0.0,0.0,0.0,0.0,0.0,0.0,0.0,0.0,0.0,0.0,0.0,0.0,0.0,0.0,2.0534,0.0,0.0,0.0,0.0,0.0,0.0,0.0,0.0,0.0,0.0,2.6148,2.8707,3.1606,3.4308,0.0,0.0,0.0,0.0,3.9711,4.0481,3.9938,3.9708,4.0477,4.1239,4.12,3.9704,0.0,0.0,3.8983,3.9947,4.0889,3.9977,4.139,4.2091,4.1478,3.9503,3.8315,3.8479,3.8509,3.878,3.9628,4.1142,4.2542,3.1299,0.0,0.0,0.0,0.0,2.7807,2.8448,2.9219,2.8877,2.8251,2.7364,2.6182,0.0,0.0,0.0,0.0,0.0,0.0,2.6093,2.7776,2.875,2.9744,3.0717,3.0693,3.0289,2.9518,2.9506,2.8558,2.6749,2.5403,2.2627,1.8613,0.0,0.0,0.0,0.0,2.2491,2.4143,2.5328,2.613,2.6607,2.6392,2.5993,2.5411,2.4378,2.3561,2.3006,2.2208,2.1592,2.1119,2.0262,0.0,0.0,0.0,0.0,0.0,0.0,0.0,0.0,0.0,0.0,0.0,0.0,0.0,0.0,0.0,0.0,0.0,0.0,0.0,2.1466,2.2688,2.3011,0.0,0.0,0.0,0.0,0.0,0.0,0.0,0.0,0.0,3.1715,3.2702,3.3976,0.0,0.0,3.9934,3.9837,4.1043,4.2085,4.2316,0.0,0.0,0.0,4.2043,4.2043,4.2743,4.432,4.5453,4.5428,4.5848,4.612,4.5901,4.6269,4.6499,4.6259,4.3901,4.2213,4.2674,4.3281,4.3964,4.4863,4.592,4.67,3.6179,3.3559,3.1299,3.0569,3.0945,3.1361,3.191,3.2466,3.2307,3.1873,3.1253,3.0256,2.8963,2.7437,2.6142,0.0,0.0,0.0,2.8931,3.0934,3.1185,3.1815,3.2803,3.2846,3.2228,3.1201,3.1158,3.0497,2.9224,2.8591,2.641,2.2793,0.0,0.0,2.1226,2.2914,2.439,2.5585,2.657,2.7236,2.7519,2.7231,2.6686,2.5883,2.5406,2.4772,2.3969,2.3497,2.3061,2.2772,2.1951,2.0727,0.0,0.0,0.0,0.0,0.0,0.0,0.0,0.0,0.0,0.0,0.0,1.3692,1.1354,0.0,0.0,0.0,1.8525,2.1453,2.4038,2.4469,0.0,0.0,0.0,0.0,0.0,0.0,0.0,3.0341,3.1974,3.3762,3.6007,3.664,3.7207,3.8233,4.0269,4.1626,4.1528,0.0,4.3316,4.4013,4.409,4.4316,4.497,4.462,4.4658,4.5624,4.6658,4.7507,4.8093,4.8203,4.84,4.8713,4.8782,4.8856,4.9315,4.76,4.6096,4.6084,4.6445,4.7068,4.7888,4.8476,4.8948,4.0092,3.9769,3.5973,3.4161,3.3931,3.4964,3.5004,3.4431,3.5114,3.5148,3.4759,3.4607,3.3872,3.2595,3.0735,0.0,3.0916,3.0559,3.162,3.3781,3.3815,3.4295,3.51,3.5114,3.4307,3.2796,3.2803,3.2339,3.1458,3.0442,2.9429,2.8416,2.6375,2.5093,2.4562,2.5263,2.634,2.7756,2.7866,2.8264,2.8944,2.8295,2.753,2.6717,2.6649,2.6209,2.5453,2.5343,2.497,2.4231,2.3488,2.2387,2.0764,0.0,0.0,0.0,0.0,0.0,0.0,0.0,0.0,0.0,0.0,0.0,0.0,0.0,0.0,0.0,2.1433,0.0,2.6387,2.6,0.0,0.0,0.0,2.7041,2.7198,3.0006,3.2275,3.3199,0.0,0.0,3.9281,0.0,4.0838,4.0984,4.2259,4.3239,4.3316,4.3355,4.3897,4.5552,4.571,4.6244,4.7505,4.7851,4.7966,4.8163,4.8279,4.8355,4.8403,4.8403,4.8668,4.9384,4.9514,4.9716,5.0558,5.0428,5.0234,4.8686,4.839,4.8557,4.9273,4.9509,4.9749,4.1735,4.1589,4.0039,3.8972,3.8332,3.8621,3.8982,3.9342,3.8909,3.8349,3.7598,3.6398,3.4638,3.2518,3.1938,3.1789,3.1969,3.2764,3.3647,3.4544,3.4913,3.5413,3.5965,3.6009,3.5452,3.4491,3.441,3.372,3.2369,3.2048,3.1182,2.9816,2.9524,2.8089,2.5685,2.6916,2.7652,2.7792,2.8405,2.8803,2.8987,2.8803,2.8338,2.7535,2.6906,2.625,2.5416,2.4782,2.4415,2.4231,2.4006,2.3446,2.2456,2.0075,0.0,0.0,0.0,0.0,0.0,0.0,0.0,0.0,0.0,1.8326,1.473,0.0,2.1469,0.0,2.3765,2.5967,2.6541,2.7546,0.0,0.0,2.9962,3.0968,3.2279,3.3086,3.4433,3.6546,3.7892,3.9319,4.1004,4.247,4.3414,4.345,4.3768,4.4282,4.4898,4.5013,4.559,4.7009,4.6932,4.6971,4.7889,4.8663,4.9283,4.9976,5.0053,5.0091,5.0091,5.0053,5.0168,5.0361,5.0399,5.0481,5.0668,5.0707,5.0568,5.0196,5.0086,5.0125,5.0361,5.0361,5.0438,4.2837,4.28,4.2359,4.1919,4.145,4.0744,4.07,4.1067,4.0626,4.0194,3.9693,3.8534,3.7247,3.5909,3.5347,3.4911,3.4637,3.5103,3.5369,3.5537,3.6016,3.6331,3.6502,3.6699,3.6376,3.5598,3.5591,3.4931,3.3707,3.349,3.2675,3.126,3.1233,3.0168,2.8136,2.8932,2.9386,2.9408,2.9843,2.991,2.9537,2.9543,2.9133,2.8374,2.7886,2.7126,2.5988,2.5511,2.4924,2.4268,2.4194,2.3859,2.3043,2.1363,1.9903,0.0,0.0,0.0,0.0,0.0,0.0,0.0,0.0,0.0,0.0,0.0,2.3264,2.3683,2.6141,2.8162,2.9313,3.024,3.1314,3.2538,3.3426,3.4465,3.5741,3.6549,3.7703,3.9465,4.0469,4.1474,4.2739,4.3701,4.4432,4.4821,4.4859,4.5051,4.5479,4.5594,4.609,4.7317,4.7197,4.7158,4.7966,4.8509,4.8971,4.9433,4.9861,5.013,5.013,5.0442,5.0707,5.0707,5.0707,5.0707,5.0707,5.0707,5.0707,5.0707,5.0707,5.0707,5.0707,5.0707,5.0707,4.3471,4.3419,4.3383,4.3384,4.3176,4.1806,4.128,4.1397,4.1397,4.1327,4.1089,4.033,3.9999,3.9933,3.8957,3.8179,3.7525,3.7126,3.6796,3.6589,3.7109,3.7174,3.6875,3.7398,3.7228,3.6457,3.6457,3.6009,3.5174,3.4796,3.4059,3.2901,3.2345,3.1706,3.102,3.0934,3.1085,3.1378,3.139,3.106,3.035,3.0246,2.9873,2.917,2.884,2.8033,2.668,2.6497,2.58,2.4451,2.4447,2.4148,2.3341,2.2542,2.1372,0.0,1.8982,0.0,0.0,0.0,0.0,0.0,0.0,0.0,0.0,2.3589,2.549,2.7113,2.8778,3.0666,3.2852,3.3237,3.4045,3.5615,3.6657,3.7542,3.843,3.9854,4.1166,4.2004,4.2777,4.3547,4.4316,4.4474,4.4782,4.5398,4.5518,4.5518,4.5594,4.5594,4.5975,4.6889,4.7043,4.7389,4.7928,4.812,4.8159,4.8235,4.8933,4.9399,4.9476,5.013,5.0707,5.0707,5.0707,5.0707,5.0707,5.0707,5.0707,5.0707,5.0707,5.0707,5.0707,5.0707,5.0707,4.3241,4.2846,4.2836,4.2596,4.2098,4.1793,4.2178,4.3065,4.3065,4.2401,4.1233,3.962,3.8915,3.8861,3.83,3.7953,3.7839,3.7733,3.7558,3.7317,3.7853,3.794,3.7721,3.8193,3.8065,3.7309,3.7272,3.6861,3.6075,3.5974,3.5606,3.4999,3.391,3.3255,3.3062,0.0,0.0,0.0,3.139,3.1317,3.117,3.054,3.013,2.9947,2.8075,0.0,2.6607,2.5993,2.549,2.5232,2.5805,0.0,0.0,0.0,0.0,0.0,0.0,0.0,0.0,0.0,0.0,0.0,2.675,2.6371,2.4732,2.7962,3.0364,3.0734,3.2237,3.3436,3.3894,3.5196,3.6388,3.743,3.8857,4.0123,4.1004,4.1966,4.2931,4.3701,4.397,4.4393,4.5167,4.5359,4.5398,4.5552,4.5594,4.5594,4.5594,4.5594,4.6167,4.7543,4.7658,4.7851,4.8082,4.8082,4.8043,4.8197,4.8817,4.9356,4.9471,5.013,5.0668,5.0707,5.0707,5.0707,5.0707,5.0707,5.0707,5.0707,5.0707,5.0707,5.0707,5.0707,5.0707,4.2485,0.0,4.2262,4.2062,0.0,4.181,4.2134,4.2667,4.2676,4.2259,4.1512,4.0294,3.972,3.972,3.9228,3.8768,3.8418,3.8464,3.819,3.7729,3.8513,3.8812,3.8695,3.9081,3.91,3.866,3.8293,3.7669,3.6883,3.6386,3.5827,3.5207,3.408,3.3559,3.3524,3.2963,3.2574,3.2293,3.2474,3.2375,3.2008,3.1598,3.1011,3.0204,0.0,0.0,0.0,0.0,0.0,0.0,0.0,0.0,0.0,0.0,0.0,2.4828,2.5217,2.5565,2.5677,2.6559,2.7687,2.9093,3.0709,3.0906,2.9119,3.1023,3.2814,3.4042,3.4968,3.593,3.7207,3.8088,3.9088,4.0354,4.1277,4.2128,4.2931,4.3427,4.4008,4.4782,4.4936,4.5128,4.5518,4.5594,4.5594,4.5594,4.5594,4.5594,4.5594,4.5594,4.5975,4.6744,4.686,4.7052,4.7428,4.7505,4.7697,4.8086,4.8817,4.9317,4.9399,5.013,5.0707,5.0707,5.0707,5.0707,5.0707,5.0707,5.0707,5.0707,5.0707,5.0707,5.0707,5.0707,5.0707,4.1746,4.166,4.1625,4.1595,4.1508,4.1508,4.1497,4.1508,0.0,0.0,0.0,4.1024,4.0756,4.0721,4.0269,3.9774,3.9186,3.9186,3.8802,3.8163,3.9191,3.9615,3.9534,3.9917,4.0018,3.9863,3.9124,3.8361,3.7532,3.6628,3.589,3.5198,3.4239,3.3619,3.3418,3.3677,3.3686,3.3507,3.3703,3.3476,3.2839,3.2693,3.1965,3.065,3.0356,2.9586,2.8306,2.8227,2.7897,2.7262,2.7378,2.7378,2.7268,2.786,2.8154,2.8049,2.8818,2.9414,2.9726,3.0044,3.0711,3.1857,3.3771,3.451,3.3485,3.358,3.4721,3.7102,3.7328,3.8354,4.0708,4.0935,4.1589,4.3162,4.3316,4.3624,4.4397,4.4547,4.4821,4.5441,4.5552,4.5594,4.5594,4.5594,4.5594,4.5594,4.5594,4.571,4.5782,4.5706,4.571,4.6009,4.6167,4.6244,4.6894,4.7197,4.7389,4.8005,4.8817,4.9356,4.9514,5.013,5.063,5.0707,5.0707,5.0707,5.0707,5.0707,5.0707,5.0707,5.0707,5.0707,5.0707,5.0707,5.0707,4.1473,4.1047,4.1013,4.0779,4.0319,4.0353,4.0319,4.0402,4.0827,4.1047,4.1013,4.0466,4.0217,4.0204,4.0116,4.0045,3.9943,3.9943,3.9559,0.0,3.9938,4.0116,3.9569,4.0461,4.0561,3.9884,3.9322,3.8619,3.7855,3.7273,3.6979,3.6701,3.563,3.449,3.3549,3.4203,3.4623,3.4568,3.4062,3.3733,3.3623,3.2956,3.2516,3.2216,3.0944,3.013,2.9879,2.9843,2.9806,2.9732,3.0356,3.0399,2.9726,2.9806,2.958,2.8962,2.9824,3.0676,3.1453,3.2938,3.4539,3.6034,3.6567,3.6336,3.5504,3.6274,3.7639,3.9408,3.9772,4.0704,4.247,4.2696,4.3051,4.397,4.4128,4.4474,4.5244,4.5359,4.5436,4.5556,4.5594,4.5594,4.5594,4.5594,4.5594,4.5594,4.5667,4.5859,4.6355,4.609,4.5975,4.6504,4.6697,4.7081,4.7735,4.7928,4.8043,4.8086,4.8894,4.9514,4.951,5.0168,5.0668,5.0707,5.0707,5.0707,5.0707,5.0707,5.0707,5.0707,5.0707,5.0707,5.0707,5.0707,5.0745,4.072,4.049,4.0478,4.0319,4.0113,4.0113,4.0113,4.0138,4.0356,4.0444,4.0454,4.0204,4.0113,4.0113,4.0113,4.0113,4.0113,4.0113,3.9897,3.9692,4.0728,4.1081,4.0851,4.1442,4.1382,4.0687,4.0013,3.9148,3.8174,3.7625,3.7166,3.6751,3.5894,3.4968,3.4128,3.4917,3.5217,3.4827,3.5027,3.4908,3.4454,3.4087,3.35,3.2619,3.1855,3.1268,3.087,3.0834,3.084,3.0834,3.117,3.1427,3.1525,3.1898,3.2185,3.2289,3.3159,3.3875,3.4208,3.5446,3.6674,3.7863,3.8383,3.8667,3.8683,3.8585,3.9321,4.0934,4.1421,4.212,4.335,4.3661,4.4085,4.4936,4.5013,4.5167,4.5518,4.5594,4.5594,4.5594,4.5594,4.5594,4.5594,4.5594,4.5594,4.5629,4.5932,4.6471,4.6889,4.6966,4.7086,4.7466,4.7543,4.7932,4.8625,4.8817,4.9009,4.9394,4.9861,5.0091,5.0091,5.0515,5.063,5.0707,5.0707,5.0707,5.0707,5.0707,5.0707,5.0707,5.0707,5.0707,5.0707,5.1015,5.1356,4.0519,4.0337,4.0506,4.0506,4.0337,4.018,4.0113,4.0113,4.0113,4.0113,4.0113,4.0113,4.0113,4.0113,4.0113,4.0113,4.0113,4.0113,4.0113,4.0192,4.1127,4.1617,4.1644,4.1998,4.1842,4.1214,4.046,3.951,3.8435,3.7845,3.7298,3.6704,3.6173,3.5588,3.508,3.5695,3.5786,3.5421,3.6202,3.6201,3.5327,3.5298,3.4674,3.358,3.3433,3.314,3.2565,3.2529,3.2492,3.2498,3.2498,3.2779,3.3396,3.4027,3.4651,3.5268,3.5929,3.645,3.6853,3.7603,3.8366,3.9158,3.9819,4.0524,4.1189,4.0627,4.0696,4.197,4.2453,4.3015,4.3808,4.4202,4.4657,4.5309,4.539,4.5357,4.5457,4.5475,4.5541,4.5573,4.5594,4.5594,4.5594,4.5594,4.571,4.5975,4.6509,4.6966,4.7389,4.8009,4.8394,4.8586,4.8548,4.8779,4.9514,4.9707,4.9938,5.063,5.0668,5.063,5.063,5.0668,5.0707,5.0707,5.0707,5.0707,5.0707,5.0707,5.0707,5.0707,5.0861,5.1092,5.1399,5.1818,5.2043,4.1677,4.1238,4.1779,4.1711,4.1035,4.0405,4.0134,4.0146,4.0113,4.0113,4.0113,4.0113,4.0113,4.0113,4.0113,4.0113,4.0113,4.0113,4.0113,4.0154,4.0685,4.1001,4.1082,4.1587,4.1409,4.0717,4.0149,3.9445,3.8575,3.8083,3.7814,3.7689,3.7044,3.6648,3.6559,3.6451,3.6546,3.697,3.7487,3.7237,3.6245,3.6163,3.6119,3.598,3.5936,3.5943,3.5649,3.5833,3.5826,3.587,3.5752,3.5833,3.5899,3.6016,3.6083,3.6193,3.631,3.6927,3.8358,3.9203,4.001,4.0773,4.0912,4.1323,4.2094,4.2095,4.221,4.2686,4.3034,4.3599,4.4392,4.4525,4.458,4.4718,4.4738,4.4812,4.5105,4.5153,4.5253,4.5573,4.5568,4.5594,4.559,4.5671,4.5936,4.6547,4.7009,4.7582,4.8663,4.9125,4.9514,5.0014,4.9822,4.9668,5.0284,5.0553,5.0553,5.0668,5.0707,5.0707,5.0707,5.0707,5.0707,5.0707,5.0707,5.0707,5.0707,5.0707,5.0745,5.0976,5.1356,5.2005,5.2702,5.301,5.2851,4.213,4.188,4.2198,4.213,4.1813,4.1521,4.1149,4.0764,4.0764,4.0506,4.0146,4.0113,4.0113,4.0113,4.0113,4.0113,4.0113,4.0113,4.0113,4.0163,4.0626,4.0886,4.0943,4.1506,4.1416,4.082,4.0573,3.9893,3.8879,3.8211,3.791,3.7877,3.7584,3.7449,3.7462,3.7623,3.762,3.7416,3.813,3.8142,3.7326,3.7072,3.6787,3.634,3.6303,3.6303,3.6303,3.6303,3.6303,3.6303,3.6303,3.6523,3.6971,3.7015,3.7235,3.7698,3.8175,3.8909,4.0039,4.0443,4.0965,4.1764,4.1801,4.2176,4.2919,4.3029,4.3077,4.3237,4.3521,4.3889,4.4217,4.4479,4.4574,4.4574,4.4574,4.4663,4.4788,4.4806,4.4931,4.5243,4.5293,4.5395,4.5632,4.6052,4.6466,4.7005,4.7663,4.8663,4.936,4.9822,5.0284,5.0558,5.0361,5.0322,5.063,5.0707,5.0707,5.0707,5.0707,5.0707,5.0707,5.0707,5.0707,5.0707,5.0745,5.0745,5.0707,5.1164,5.1433,5.1587,5.2087,5.2813,5.3159,5.3626,5.3703,4.2807,4.2651,4.2783,4.2777,4.2618,4.2579,4.2261,4.1767,4.1566,4.1286,4.0954,4.0574,4.0417,4.0383,4.0214,4.0113,4.0113,4.0113,4.0113,4.0129,4.0504,4.0696,4.0721,4.1105,4.1105,4.0733,4.065,4.0182,3.9325,3.8768,3.8497,3.8497,3.8294,3.8181,3.8207,3.8402,3.8227,3.7893,3.853,3.8768,3.8508,3.8207,3.77,3.7044,3.6964,3.6964,3.6964,3.6964,3.6964,3.6964,3.6964,3.7338,3.808,3.8146,3.8513,3.9313,3.99,4.0598,4.136,4.1434,4.1764,4.2506,4.2653,4.2873,4.3359,4.3506,4.3506,4.3504,4.3726,4.3828,4.3904,4.414,4.4299,4.4313,4.4313,4.4334,4.4401,4.4421,4.4554,4.4896,4.496,4.5186,4.574,4.6425,4.7005,4.7702,4.8625,4.9553,4.9745,5.0284,5.0668,5.0707,5.0707,5.0668,5.0707,5.0707,5.0707,5.0707,5.0707,5.0707,5.0707,5.0707,5.0933,5.1087,5.101,5.1241,5.1664,5.2082,5.2428,5.2659,5.3121,5.3664,5.4087,5.4477,5.4747,4.4059,4.3498,4.4023,4.3941,4.3342,4.3347,4.3289,4.3136,4.2573,4.2591,4.2805,4.1703,4.1136,4.1089,4.0472,4.0113,4.0113,4.0113,4.0113,4.0113,4.0142,4.0163,4.0116,4.0154,4.0179,4.0204,4.0217,4.012,3.9999,3.9977,3.9999,3.9943,3.9288,3.8949,3.8882,3.8389,3.8184,3.8501,3.8664,3.9048,3.9791,3.9498,3.8985,3.8554,3.8592,3.854,3.8608,3.8608,3.8608,3.8579,3.8615,3.8946,3.9688,3.9761,4.012,4.0846,4.0985,4.1397,4.2103,4.2249,4.258,4.3249,4.3322,4.3433,4.3469,4.3506,4.3506,4.3506,4.3521,4.3546,4.3546,4.3647,4.3647,4.3631,4.358,4.3742,4.3982,4.402,4.4204,4.4577,4.4846,4.5299,4.6145,4.6632,4.7617,4.8601,4.9288,4.9615,5.02,5.0576,5.0604,5.0599,5.0609,5.0692,5.0692,5.0707,5.0707,5.0745,5.0784,5.0779,5.0707,5.0784,5.1197,5.1577,5.1774,5.2159,5.2818,5.3241,5.3549,5.3857,5.4164,5.4587,5.4895,5.5362,5.5516,4.4432,4.423,4.4828,4.4971,4.4793,4.5129,4.5011,4.4554,4.391,4.3505,4.3178,4.2308,4.1914,4.1847,4.1149,4.054,4.0146,4.0113,4.0113,4.0113,4.0113,4.0113,4.0113,4.0113,4.0113,4.0113,4.0113,4.0113,4.0113,4.0113,4.0113,4.0079,3.9829,3.9694,3.966,3.9423,3.9161,3.8901,3.9124,3.9308,3.9269,3.9322,3.9309,3.919,3.949,3.9846,4.0251,4.0223,4.0223,4.0223,4.0215,4.0369,4.0626,4.0663,4.1038,4.1764,4.1874,4.2213,4.2955,4.3065,4.3176,4.3433,4.3506,4.3506,4.3506,4.3506,4.3506,4.3506,4.3506,4.3506,4.3506,4.3506,4.3506,4.3506,4.3506,4.3566,4.3656,4.3714,4.4024,4.4849,4.559,4.633,4.6656,4.7296,4.7972,4.8555,4.9093,4.9569,4.9822,4.9936,4.9974,4.9943,4.9936,4.9936,4.993,5.044,5.0741,5.0861,5.101,5.1331,5.1436,5.1823,5.2268,5.2384,5.257,5.2864,5.3402,5.3895,5.4318,5.4857,5.517,5.5208,5.5626,5.567,5.5708,4.4567,4.472,4.5477,4.5651,4.5622,4.6389,4.6315,4.5611,4.5022,4.4492,4.3916,4.3058,4.2658,4.2523,4.188,4.1305,4.0756,4.0337,4.0113,4.0113,4.0113,4.0113,4.0113,4.0113,4.0113,4.0113,4.0113,4.0113,4.0113,4.0113,4.0113,4.0113,4.0113,4.0113,4.0113,4.0113,3.9829,3.9476,3.9677,3.9652,3.9385,3.9529,3.9834,4.0125,4.0349,4.053,4.0799,4.0797,4.0918,4.107,4.1095,4.1205,4.147,4.1727,4.2027,4.2382,4.2576,4.2842,4.3212,4.3383,4.3506,4.3506,4.3506,4.3506,4.3506,4.3506,4.3506,4.3506,4.3506,4.3506,4.3506,4.3506,4.3506,4.3506,4.3506,4.3506,4.3506,4.3735,4.4387,4.5284,4.6126,4.678,4.7221,4.7796,4.8289,4.8539,4.9187,4.9459,4.9496,4.9496,4.964,4.9829,4.9993,5.0196,5.0489,5.1039,5.0892,5.0949,5.1403,5.1811,5.2131,5.2656,5.3033,5.3174,5.338,5.3591,5.3996,5.4495,5.5005,5.5538,5.5593,5.5516,5.567,5.567,5.5708,4.4567,4.4776,4.5878,4.6014,4.5787,4.6808,4.6988,4.6354,4.5745,4.541,4.5036,4.3986,4.3423,4.3254,4.2672,4.23,4.1995,4.0912,4.035,4.0316,4.0235,4.0202,4.0214,4.0146,4.0113,4.0113,4.0113,4.0113,4.0113,4.0113,4.0113,4.0113,4.0113,4.0113,4.0113,4.0113,4.0066,4.0024,4.0052,4.0278,4.0722,4.026,4.0466,4.1321,4.1055,4.0621,4.0281,4.0374,4.0762,4.1192,4.1279,4.1544,4.2278,4.2876,4.3177,4.2784,4.3105,4.3123,4.2808,4.316,4.3383,4.34,4.348,4.3506,4.3506,4.3506,4.3506,4.3506,4.3506,4.3506,4.3506,4.3579,4.3579,4.3506,4.3579,4.3653,4.3726,4.4268,4.5039,4.5836,4.6444,4.6847,4.7498,4.8,4.8461,4.9017,4.9266,4.9401,4.9483,4.9513,4.986,5.0417,5.0549,5.0587,5.1219,5.1827,5.1375,5.1096,5.1706,5.2186,5.234,5.2741,5.3238,5.3473,5.3756,5.3983,5.4439,5.4877,5.5115,5.556,5.5605,5.5643,5.5708,5.5708,5.5708,4.4567,4.4679,4.5464,4.5927,4.6209,4.7033,4.7266,4.7021,4.6413,4.5913,4.5394,4.4613,4.4228,4.4045,4.3403,4.3051,4.2997,4.2063,4.1623,4.1555,4.1115,4.0865,4.0764,4.0337,4.0113,4.0113,4.0113,4.0113,4.0113,4.0113,4.0113,4.0113,4.0113,4.0113,4.0113,4.0113,4.0113,4.0113,4.0113,4.0192,4.0365,4.0192,4.0303,4.0551,4.0454,4.0421,4.0718,4.1481,4.2177,4.2656,4.2735,4.2882,4.3051,4.3005,4.2901,4.2703,4.2442,4.2286,4.2185,4.2589,4.293,4.3032,4.3268,4.348,4.3506,4.3506,4.3506,4.3506,4.3506,4.3506,4.3579,4.4011,4.4085,4.3571,4.3975,4.4342,4.4525,4.5461,4.6342,4.6728,4.7325,4.7813,4.8034,4.8268,4.8412,4.8718,4.8783,4.8895,4.9433,4.9644,4.9907,5.0602,5.0713,5.099,5.1554,5.2027,5.1943,5.1797,5.2214,5.2494,5.2673,5.2865,5.3365,5.372,5.4012,5.4366,5.4798,5.5094,5.5224,5.5381,5.5417,5.5493,5.5638,5.5687,5.5673,4.4567,4.4665,4.5241,4.584,4.6401,4.6876,4.7021,4.6932,4.6353,4.5737,4.5156,4.4789,4.4567,4.4499,4.4045,4.3842,4.3775,4.3349,4.3146,4.2963,4.2016,4.161,4.1508,4.0844,4.0337,4.01,4.0113,4.0113,4.0113,4.0113,4.0113,4.0113,4.0113,4.0113,4.0113,4.0113,4.0113,4.0113,4.0113,4.0113,4.0113,4.0113,4.0113,4.0113,4.0113,4.038,4.092,4.1671,4.2412,4.3069,4.3365,4.3497,4.3471,4.2986,4.2606,4.2332,4.2021,4.1736,4.156,4.201,4.2508,4.2703,4.3022,4.3294,4.3409,4.3506,4.3506,4.3506,4.38,4.3938,4.4048,4.4672,4.4856,4.4497,4.4856,4.525,4.5654,4.6452,4.7186,4.7489,4.7976,4.826,4.8296,4.8296,4.8489,4.8673,4.8783,4.9077,4.9747,5.0071,5.0518,5.0959,5.128,5.1551,5.1781,5.2112,5.2432,5.2582,5.2798,5.2921,5.3042,5.32,5.3535,5.376,5.4025,5.4186,5.4602,5.4738,5.4876,5.5008,5.5152,5.5094,5.5132,5.5578,5.5697,4.4567,4.4665,4.5188,4.5775,4.6246,4.6365,4.6377,4.6258,4.5865,4.5294,4.4748,4.4734,4.4637,4.4595,4.4499,4.4465,4.4533,4.4432,4.4364,4.4025,4.3179,4.2469,4.2083,4.1508,4.0967,4.0506,4.0383,4.0303,4.0303,4.0269,4.0146,4.0113,4.0113,4.0113,4.0113,4.0113,4.0113,4.0113,4.0113,4.0113,4.0113,4.0113,4.0113,4.0113,4.0125,4.0306,4.0709,4.0978,4.1549,4.2606,4.3232,4.348,4.3347,4.293,4.2332,4.181,4.1736,4.1353,4.1116,4.1396,4.1927,4.2362,4.2645,4.2947,4.3432,4.3674,4.38,4.391,4.4415,4.4773,4.492,4.5471,4.5883,4.603,4.5993,4.6278,4.7003,4.7186,4.7516,4.8076,4.8296,4.837,4.8443,4.8489,4.8893,4.9417,4.9637,4.9994,5.0582,5.0949,5.1279,5.1646,5.2013,5.2197,5.2443,5.2517,5.281,5.2847,5.3068,5.3145,5.3212,5.3397,5.3471,5.3672,5.3963,5.4152,5.4187,5.4297,5.4554,5.4802,5.478,5.4573,5.4993,5.5693,5.6027,4.4567,4.4595,4.4776,4.5161,4.5711,4.5749,4.5727,4.5813,4.6063,4.5468,4.4852,4.5075,4.494,4.4609,4.4567,4.4567,4.4567,4.4567,4.4567,4.4533,4.4262,4.3281,4.2503,4.213,4.188,4.1657,4.1555,4.1454,4.0933,4.0899,4.0663,4.0113,4.018,4.0146,4.0113,4.0113,4.0113,4.0113,4.0113,4.0113,4.0113,4.0113,4.0113,4.0113,4.0113,4.0167,4.0343,4.0685,4.1451,4.2616,4.3214,4.3294,4.2893,4.2362,4.18,4.1286,4.0803,4.0538,4.0502,4.0827,4.1195,4.1453,4.2241,4.3004,4.3736,4.4154,4.4627,4.5076,4.5516,4.559,4.57,4.6315,4.6938,4.7489,4.7085,4.7085,4.7709,4.8003,4.8076,4.826,4.8333,4.8636,4.9013,4.927,4.9554,5.0251,5.0545,5.0729,5.1426,5.172,5.194,5.2517,5.2884,5.2957,5.3067,5.3104,5.3141,5.3104,5.3204,5.3272,5.3293,5.3377,5.333,5.3349,5.3907,5.4153,5.3895,5.3785,5.4131,5.4837,5.5044,5.5206,5.5906,5.6589,5.6572,4.4567,4.4567,4.4567,4.4947,4.5403,4.5249,4.5412,4.5752,4.5661,4.5429,4.5048,4.5035,4.4899,4.4629,4.4567,4.4567,4.4567,4.4567,4.4567,4.4567,4.4533,4.3856,4.2997,4.276,4.2591,4.2286,4.232,4.2063,4.1711,4.1644,4.142,4.1081,4.0709,4.0574,4.0574,4.0214,4.0113,4.0113,4.0113,4.0113,4.0113,4.0113,4.0113,4.0113,4.0113,4.0113,4.0167,4.0625,4.1351,4.2155,4.2599,4.2638,4.2332,4.1757,4.1251,4.0897,4.0405,4.0125,4.0129,4.0417,4.0844,4.1359,4.2168,4.3051,4.4057,4.4684,4.5147,4.5746,4.6168,4.6388,4.6535,4.7122,4.7746,4.8076,4.7893,4.7819,4.8306,4.826,4.8296,4.837,4.8636,4.9013,4.961,4.9858,5.0482,5.1059,5.1316,5.1756,5.2307,5.2417,5.2564,5.2957,5.3251,5.3287,5.3471,5.3581,5.3801,5.3765,5.3948,5.3922,5.3838,5.3801,5.3933,5.4017,5.4116,5.4174,5.4128,5.4211,5.4737,5.5302,5.5566,5.58,5.6323,5.7014,5.7024,4.4637,4.4567,4.4567,4.4906,4.5288,4.4886,4.5182,4.585,4.5228,4.5021,4.5182,4.4879,4.4742,4.4581,4.4567,4.4567,4.4567,4.4567,4.4567,4.4567,4.4533,4.4161,4.3626,4.3538,4.3267,4.2841,4.257,4.2536,4.2469,4.2422,4.232,4.2016,4.1542,4.1373,4.117,4.0641,4.0235,4.0269,4.0146,4.0113,4.0113,4.0113,4.0113,4.0113,4.0113,4.0113,4.0204,4.054,4.1059,4.1584,4.1725,4.1842,4.1714,4.1149,4.0885,4.0721,4.0377,4.0146,4.0248,4.0413,4.0793,4.181,4.2153,4.2964,4.4392,4.5034,4.5474,4.5972,4.6744,4.7149,4.7296,4.7893,4.8296,4.8526,4.8453,4.8453,4.8517,4.848,4.8453,4.8563,4.9344,4.9637,5.0004,5.0472,5.1242,5.194,5.2123,5.238,5.2747,5.2847,5.292,5.3104,5.3287,5.3398,5.3728,5.4021,5.4363,5.4546,5.4913,5.4987,5.4876,5.4876,5.4987,5.506,5.4876,5.495,5.5177,5.5357,5.5551,5.5779,5.6065,5.6029,5.611,5.6948,5.7312,4.5021,4.4567,4.4567,4.4665,4.4776,4.4637,4.4796,4.509,4.5249,4.5212,4.4981,4.5163,4.5049,4.4635,4.475,4.4567,4.4635,4.4635,4.4567,4.4567,4.4567,4.4533,4.433,4.4296,4.4195,4.3992,4.4059,4.3755,4.3335,4.3132,4.2861,4.2401,4.2266,4.2063,4.1961,4.1373,4.0967,4.0865,4.0451,4.0214,4.0168,4.0168,4.0146,4.0113,4.0146,4.01,4.0113,4.0204,4.0353,4.0659,4.1277,4.1637,4.1162,4.1001,4.0777,4.0495,4.0331,4.0405,4.0798,4.1014,4.1323,4.2189,4.2734,4.3397,4.4409,4.5438,4.5932,4.646,4.7332,4.7843,4.7966,4.815,4.858,4.9021,4.9307,4.9554,4.9958,4.9674,4.9591,5.0031,5.0362,5.0765,5.1316,5.1473,5.2087,5.2747,5.2968,5.3041,5.3141,5.3214,5.3361,5.3471,5.3911,5.4142,5.4363,5.4803,5.528,5.5574,5.5915,5.6099,5.5978,5.5868,5.5952,5.5768,5.5511,5.5695,5.6099,5.5915,5.5985,5.6257,5.6565,5.6712,5.698,5.7446,5.7604,4.5156,4.4595,4.4567,4.4804,4.5094,4.5142,4.5476,4.5965,4.6055,4.611,4.6055,4.6131,4.5922,4.5664,4.5616,4.5514,4.5074,4.4736,4.4567,4.4567,4.4567,4.4567,4.4567,4.4567,4.4567,4.4567,4.4567,4.4296,4.4045,4.3944,4.3809,4.3349,4.301,4.2828,4.2726,4.2083,4.1745,4.1677,4.1352,4.098,4.0675,4.0595,4.0371,4.0269,4.0405,4.0595,4.0641,4.1014,4.1128,4.1295,4.1668,4.1542,4.0807,4.0847,4.0867,4.0731,4.1014,4.1251,4.1657,4.1745,4.2049,4.276,4.314,4.3855,4.4637,4.5575,4.6,4.6493,4.7241,4.7929,4.8238,4.8413,4.8819,4.9461,4.9931,5.0472,5.1022,5.0665,5.0261,5.0802,5.1096,5.1473,5.1877,5.2234,5.2564,5.3031,5.3104,5.3177,5.3361,5.3471,5.3801,5.4058,5.462,5.4987,5.5133,5.5611,5.6345,5.6675,5.7005,5.7164,5.7164,5.698,5.6833,5.665,5.6503,5.676,5.7053,5.676,5.665,5.7053,5.7409,5.7629,5.774,5.7813,5.785,4.528,4.472,4.4758,4.5142,4.5669,4.5819,4.6425,4.7299,4.7043,4.6897,4.7367,4.7,4.6622,4.6718,4.6699,4.638,4.5872,4.5345,4.5142,4.4905,4.4905,4.477,4.4682,4.4567,4.4567,4.4567,4.4567,4.4533,4.4533,4.4567,4.4398,4.4398,4.3944,4.3639,4.3436,4.2861,4.2455,4.2455,4.2185,4.1894,4.1474,4.1339,4.1081,4.0878,4.1035,4.1373,4.1474,4.1826,4.2185,4.2286,4.2286,4.1623,4.098,4.0933,4.1373,4.1373,4.186,4.2198,4.2388,4.2489,4.2794,4.349,4.3619,4.4116,4.5008,4.539,4.5645,4.6065,4.6635,4.7403,4.8178,4.8468,4.9034,4.9891,5.0655,5.1279,5.183,5.1526,5.1379,5.1389,5.1867,5.227,5.2454,5.27,5.2994,5.3251,5.3324,5.3434,5.3618,5.3959,5.4363,5.4766,5.5354,5.6062,5.6308,5.6345,5.7079,5.7299,5.7703,5.7788,5.7861,5.7678,5.7421,5.7678,5.7678,5.7751,5.7714,5.7531,5.7567,5.796,5.796,5.7886,5.796,5.807,5.8217,4.589,4.5376,4.5484,4.5602,4.579,4.6346,4.6806,4.6913,4.6975,4.6859,4.6995,4.6878,4.6921,4.6887,4.6834,4.6733,4.6583,4.6293,4.5974,4.5602,4.55,4.5311,4.4919,4.4871,4.477,4.4567,4.4635,4.4668,4.4601,4.4567,4.4567,4.4581,4.4432,4.433,4.4079,4.3673,4.3234,4.3152,4.2794,4.2435,4.2185,4.2016,4.1948,4.1711,4.1948,4.2083,4.2117,4.2219,4.2286,4.2286,4.2286,4.2198,4.2029,4.2083,4.2151,4.2185,4.2401,4.276,4.3118,4.3234,4.3639,4.4195,4.433,4.433,4.4818,4.5169,4.5341,4.5357,4.5774,4.6576,4.8356,4.8596,4.9633,5.0843,5.1621,5.1988,5.2611,5.2716,5.2543,5.248,5.2774,5.2931,5.2957,5.3067,5.3361,5.3691,5.3995,5.4106,5.4289,5.4766,5.5291,5.5684,5.6124,5.6895,5.7567,5.7519,5.774,5.7666,5.7886,5.7886,5.7923,5.796,5.7997,5.7997,5.7997,5.7935,5.7923,5.7997,5.7997,5.7997,5.7997,5.8033,5.829,5.8584,5.8951,4.6051,4.5533,4.5642,4.594,4.638,4.7056,4.7597,4.7902,4.7936,4.7936,4.7936,4.7936,4.7936,4.7936,4.7951,4.7767,4.7361,4.6936,4.6583,4.6278,4.6244,4.6109,4.5684,4.5717,4.5751,4.565,4.5399,4.4939,4.4649,4.4567,4.4567,4.4567,4.4567,4.4567,4.4533,4.4228,4.4012,4.3876,4.3619,4.3247,4.2861,4.257,4.2333,4.2388,4.2692,4.2861,4.2963,4.3349,4.3484,4.3518,4.3518,4.3484,4.345,4.3416,4.3267,4.3031,4.3213,4.3586,4.3944,4.4045,4.4228,4.4465,4.4567,4.4567,4.4637,4.4872,4.5247,4.5555,4.5479,4.6443,4.8425,4.8673,4.9494,5.0627,5.157,5.2196,5.259,5.297,5.3161,5.3251,5.3177,5.3177,5.3251,5.3434,5.3728,5.4106,5.4583,5.4803,5.4987,5.5574,5.6209,5.6455,5.6785,5.7262,5.7898,5.7935,5.8143,5.8143,5.8143,5.8143,5.8217,5.829,5.8143,5.7997,5.7997,5.8253,5.8033,5.8033,5.7997,5.8107,5.8437,5.8731,5.8877,5.9123,5.96,4.5927,4.5533,4.5798,4.6244,4.6887,4.7752,4.8428,4.8917,4.8951,4.8917,4.9018,4.8951,4.8917,4.8984,4.8883,4.8646,4.809,4.7496,4.7259,4.7022,4.7022,4.6955,4.6786,4.6786,4.665,4.6447,4.6177,4.5534,4.4973,4.4668,4.4601,4.4567,4.4567,4.4567,4.4533,4.4499,4.4567,4.4567,4.4567,4.4228,4.3639,4.3098,4.274,4.2773,4.3335,4.3639,4.3707,4.4079,4.4364,4.4398,4.4465,4.4499,4.4567,4.4567,4.4296,4.3876,4.4262,4.4499,4.4567,4.4533,4.4499,4.4567,4.4567,4.4668,4.4953,4.5241,4.5566,4.6303,4.6321,4.6699,4.8391,4.8805,4.9371,5.0284,5.1382,5.2159,5.2381,5.2739,5.3344,5.3398,5.3398,5.3534,5.3696,5.3838,5.4132,5.4876,5.5317,5.5684,5.5941,5.6565,5.7079,5.7189,5.7409,5.7666,5.796,5.796,5.8253,5.8547,5.8584,5.8621,5.8694,5.8767,5.8621,5.8694,5.8767,5.8988,5.8547,5.84,5.8841,5.9134,5.9269,5.938,5.9563,6.0015,6.0529,4.5558,4.5567,4.6337,4.6718,4.7003,4.8271,4.8898,4.8984,4.9018,4.9018,4.9018,4.9018,4.9018,4.9018,4.9018,4.8951,4.8815,4.8612,4.824,4.7819,4.7752,4.7496,4.6955,4.6786,4.7056,4.7056,4.6819,4.6244,4.5703,4.5094,4.4736,4.477,4.477,4.4635,4.4736,4.4635,4.4567,4.4567,4.4567,4.4533,4.4398,4.4228,4.4161,4.4228,4.4296,4.4364,4.4296,4.4499,4.4567,4.4567,4.4567,4.4567,4.4567,4.4567,4.4567,4.4499,4.4547,4.4567,4.4567,4.4567,4.4668,4.4702,4.4702,4.4973,4.5481,4.6056,4.6419,4.6656,4.668,4.7291,4.8481,4.8869,4.9635,5.0382,5.1226,5.1873,5.2209,5.2778,5.3357,5.3961,5.4074,5.4217,5.4375,5.4466,5.462,5.539,5.6051,5.6418,5.6785,5.7299,5.7593,5.7629,5.774,5.7997,5.8327,5.829,5.8621,5.8976,5.9086,5.9196,5.9355,5.9501,5.9832,5.9869,5.9905,5.9795,5.9538,5.9575,5.9942,6.0052,6.0052,6.0126,6.026,6.0786,6.141,4.5161,4.5641,4.6818,4.7173,4.7043,4.8773,4.9361,4.9046,4.9018,4.9018,4.9018,4.9018,4.9018,4.9018,4.9018,4.9018,4.9018,4.9018,4.8883,4.8563,4.8462,4.8342,4.8173,4.8037,4.8037,4.7834,4.7631,4.7346,4.6737,4.6244,4.5853,4.5751,4.5432,4.5263,4.5176,4.4804,4.4635,4.4567,4.4567,4.4567,4.4567,4.4567,4.4567,4.4567,4.4567,4.4567,4.4567,4.4567,4.4567,4.4567,4.4567,4.4567,4.4567,4.4567,4.4567,4.4567,4.4581,4.4567,4.4567,4.4601,4.4838,4.5176,4.5277,4.5582,4.621,4.665,4.709,4.7394,4.7413,4.7942,4.8689,4.8919,4.9267,4.9949,5.0848,5.1615,5.2165,5.2906,5.3499,5.4157,5.4793,5.495,5.5226,5.5558,5.5761,5.6161,5.6785,5.7189,5.7409,5.7666,5.785,5.7886,5.7997,5.8143,5.8572,5.8829,5.9306,5.9636,5.9857,5.9967,6.0114,6.0297,6.0627,6.0786,6.0713,6.0603,6.0481,6.0444,6.0481,6.0639,6.0786,6.0933,6.1117,6.1692,6.2218,4.4852,4.5426,4.6914,4.7267,4.698,4.8914,4.9462,4.9065,4.9018,4.9018,4.9018,4.9018,4.9018,4.9018,4.9018,4.9018,4.9018,4.9018,4.9018,4.9018,4.9018,4.8951,4.8815,4.8917,4.8917,4.9018,4.8409,4.8157,4.8003,4.7597,4.7158,4.6834,4.6177,4.6007,4.5838,4.5582,4.5277,4.4973,4.4702,4.4601,4.4567,4.4567,4.4567,4.4567,4.4567,4.4567,4.4567,4.4567,4.4567,4.4567,4.4567,4.4567,4.4601,4.4838,4.4973,4.5041,4.5176,4.5345,4.5277,4.5244,4.5345,4.5771,4.6244,4.6583,4.6989,4.7192,4.7496,4.8157,4.8157,4.8477,4.8865,4.8997,4.9255,4.9626,5.0159,5.1122,5.2105,5.3011,5.3783,5.4397,5.5111,5.5859,5.6209,5.6724,5.6999,5.713,5.7519,5.7923,5.8033,5.807,5.8253,5.8327,5.851,5.8731,5.9233,5.9636,6.004,6.037,6.0591,6.0884,6.1104,6.1215,6.1398,6.1471,6.1484,6.163,6.1618,6.1288,6.1031,6.1435,6.1741,6.1814,6.2108,6.2548,6.2756,4.4629,4.4786,4.6278,4.684,4.6917,4.8421,4.9077,4.9018,4.9018,4.9018,4.9018,4.9018,4.9018,4.9018,4.9018,4.9018,4.9018,4.9018,4.9018,4.9018,4.9018,4.9018,4.9018,4.9018,4.9018,4.9018,4.8781,4.8815,4.8883,4.8612,4.7868,4.6969,4.6853,4.6752,4.6631,4.6428,4.6056,4.565,4.521,4.4871,4.4838,4.4804,4.4784,4.4668,4.4649,4.4615,4.4601,4.4702,4.4838,4.4838,4.4905,4.4919,4.5074,4.5413,4.5602,4.5703,4.6056,4.6293,4.636,4.6007,4.6075,4.665,4.7259,4.765,4.7834,4.8462,4.88,4.8781,4.8714,4.8815,4.8984,4.9086,4.944,4.9798,5.0404,5.1385,5.2431,5.3416,5.4164,5.4692,5.5323,5.601,5.6563,5.6964,5.7381,5.7547,5.7666,5.8045,5.8253,5.8327,5.8694,5.8902,5.9086,5.9453,6.0126,6.0517,6.075,6.1153,6.1484,6.1875,6.2279,6.2316,6.2095,6.2242,6.2242,6.2499,6.2609,6.2169,6.2022,6.2462,6.2646,6.2462,6.2401,6.2646,6.2793,4.4567,4.4736,4.6191,4.6786,4.6965,4.8831,4.9391,4.9031,4.9018,4.9018,4.9018,4.9018,4.9018,4.9018,4.9018,4.9018,4.9018,4.9018,4.9018,4.9018,4.9018,4.9018,4.9018,4.9018,4.9018,4.9018,4.9018,4.9018,4.8984,4.9018,4.8815,4.8173,4.765,4.7515,4.738,4.7105,4.6699,4.6462,4.6123,4.594,4.5954,4.592,4.5751,4.5263,4.5263,4.5263,4.5297,4.5263,4.5548,4.5785,4.5853,4.5819,4.5819,4.6177,4.6346,4.638,4.6786,4.709,4.7327,4.6872,4.6752,4.7413,4.809,4.8545,4.8511,4.8883,4.8984,4.8984,4.9052,4.912,4.9052,4.944,4.9895,5.0229,5.0871,5.1771,5.2731,5.3732,5.4267,5.4655,5.536,5.6085,5.6606,5.7092,5.7498,5.7879,5.7999,5.818,5.851,5.8804,5.9233,5.9636,5.9857,6.0297,6.0958,6.1227,6.1447,6.1814,6.2254,6.2511,6.2756,6.2719,6.2572,6.2793,6.2793,6.2756,6.2719,6.2793,6.2793,6.2793,6.2793,6.2756,6.2756,6.2793,6.2903,4.4567,4.4784,4.6191,4.6786,4.7077,4.8871,4.9432,4.9046,4.9018,4.9018,4.9018,4.9018,4.9018,4.9018,4.9018,4.9018,4.9018,4.9018,4.9018,4.9018,4.9018,4.9018,4.9018,4.9018,4.9018,4.9018,4.9018,4.9018,4.9018,4.9018,4.8917,4.8748,4.8529,4.8293,4.8056,4.753,4.7124,4.7124,4.6887,4.6786,4.6766,4.6699,4.6597,4.6075,4.6041,4.6041,4.6041,4.6041,4.621,4.6481,4.665,4.6718,4.6819,4.6989,4.709,4.7192,4.7361,4.7699,4.7887,4.7887,4.7699,4.8225,4.8578,4.8917,4.9018,4.9018,4.9018,4.9052,4.9154,4.9323,4.939,4.9965,5.0642,5.1062,5.1333,5.2145,5.3006,5.3905,5.422,5.4578,5.5308,5.5974,5.6657,5.7229,5.8191,5.8514,5.8549,5.8877,5.9391,5.9685,5.9979,6.0382,6.0713,6.1227,6.1814,6.1961,6.2071,6.2218,6.2536,6.2646,6.2793,6.2793,6.2793,6.2793,6.2793,6.2793,6.2793,6.2793,6.2793,6.2793,6.2793,6.2793,6.2793,6.2829,6.3099,4.4567,4.477,4.6191,4.6786,4.6955,4.8391,4.9049,4.9018,4.9018,4.9018,4.9018,4.9018,4.9018,4.9018,4.9018,4.9018,4.9018,4.9018,4.9018,4.9018,4.9018,4.9018,4.9018,4.9018,4.9018,4.9018,4.9018,4.9018,4.9018,4.9018,4.9018,4.9018,4.8849,4.8815,4.8868,4.8259,4.7887,4.7785,4.7225,4.709,4.709,4.7124,4.7071,4.6819,4.6786,4.6786,4.6786,4.6786,4.6921,4.7158,4.7192,4.7192,4.7192,4.7665,4.7853,4.7887,4.8462,4.8781,4.8917,4.8917,4.88,4.8766,4.8951,4.8984,4.9018,4.9052,4.9154,4.9289,4.9695,5.0033,5.0338,5.0744,5.1386,5.1792,5.2029,5.2483,5.3353,5.3768,5.4065,5.4369,5.5069,5.5802,5.6585,5.7451,5.8701,5.9222,5.9172,5.9563,6.0187,6.0529,6.075,6.1178,6.1594,6.1802,6.2279,6.2536,6.2719,6.2793,6.2793,6.2793,6.2793,6.2793,6.2793,6.2793,6.2793,6.2793,6.2793,6.2793,6.2939,6.305,6.2829,6.2793,6.2793,6.3013,6.3429,4.4567,4.4736,4.6191,4.6786,4.7003,4.8376,4.9018,4.9018,4.9018,4.9018,4.9018,4.9018,4.9018,4.9018,4.9018,4.9018,4.9018,4.9018,4.9018,4.9018,4.9018,4.9018,4.9018,4.9018,4.9018,4.9018,4.9018,4.9018,4.9018,4.9018,4.9018,4.9018,4.9018,4.9018,4.8951,4.8698,4.8631,4.8597,4.8409,4.8308,4.824,4.8173,4.797,4.7549,4.753,4.7515,4.7515,4.7515,4.7699,4.8003,4.8071,4.8105,4.8105,4.8545,4.8578,4.8597,4.8984,4.8984,4.9018,4.8984,4.8984,4.9018,4.9086,4.9086,4.9018,4.9492,4.9627,4.9864,5.0405,5.0744,5.093,5.1522,5.2063,5.2266,5.2536,5.2976,5.3566,5.3649,5.3832,5.4136,5.4684,5.5703,5.6574,5.8178,5.9479,6.014,6.0176,6.0505,6.108,6.1263,6.1484,6.2022,6.2426,6.2536,6.2719,6.2756,6.2793,6.2793,6.2793,6.2793,6.2793,6.2793,6.2793,6.2793,6.2793,6.2793,6.2976,6.3172,6.3282,6.3319,6.3306,6.3417,6.3613,6.3833,6.409,4.4803,4.4784,4.6191,4.6786,4.7022,4.8376,4.9018,4.9018,4.9018,4.9018,4.9018,4.9018,4.9018,4.9018,4.9018,4.9018,4.9018,4.9018,4.9018,4.9018,4.9018,4.9018,4.9018,4.9018,4.9018,4.9018,4.9018,4.9018,4.9018,4.9018,4.9018,4.9018,4.9018,4.9018,4.8984,4.8951,4.8951,4.8917,4.8815,4.8849,4.8883,4.8849,4.8714,4.8394,4.8259,4.8293,4.8293,4.836,4.8462,4.8883,4.9018,4.9018,4.9018,4.9018,4.9018,4.9018,4.9018,4.9018,4.9018,4.939,4.9424,4.9458,4.939,4.939,4.9526,5.0101,5.0371,5.0676,5.1167,5.1438,5.1674,5.23,5.2638,5.2824,5.2993,5.3433,5.3501,5.3584,5.3872,5.4135,5.4828,5.5773,5.6985,5.8758,6.0415,6.0833,6.1201,6.1544,6.1851,6.1961,6.2034,6.2426,6.2756,6.2756,6.2756,6.2793,6.2793,6.2793,6.2793,6.2829,6.2793,6.2793,6.2793,6.2829,6.2866,6.3013,6.3356,6.3576,6.4016,6.4187,6.4187,6.4297,6.4494,6.464,6.4787,4.5169,4.4888,4.6157,4.6752,4.7056,4.8376,4.9018,4.9018,4.9018,4.9018,4.9018,4.9018,4.9018,4.9018,4.9018,4.9018,4.9018,4.9018,4.9018,4.9018,4.9018,4.9018,4.9018,4.9018,4.9018,4.9018,4.9018,4.9018,4.9018,4.9018,4.9018,4.9018,4.9018,4.9018,4.9018,4.9018,4.9018,4.9018,4.9018,4.9018,4.9018,4.8984,4.8951,4.8815,4.8815,4.8815,4.8815,4.8883,4.8917,4.9018,4.9018,4.9018,4.9018,4.9018,4.9018,4.9018,4.9018,4.9018,4.9255,4.9729,5.0033,5.0101,5.0252,5.0218,5.0338,5.0777,5.115,5.1454,5.1894,5.2164,5.2435,5.2858,5.3298,5.3365,5.3365,5.3501,5.3518,5.3704,5.4025,5.4549,5.5356,5.6413,5.7942,5.9611,6.0821,6.1478,6.1823,6.2143,6.2401,6.2462,6.2536,6.2572,6.2793,6.2793,6.2793,6.2793,6.2793,6.2793,6.2829,6.2829,6.2829,6.305,6.3306,6.338,6.3123,6.3306,6.3943,6.453,6.5031,6.5105,6.5105,6.5154,6.5338,6.5375,6.5558,4.5399,4.5312,4.583,4.6312,4.6989,4.8376,4.9018,4.9018,4.9018,4.9018,4.9018,4.9018,4.9018,4.9018,4.9018,4.9018,4.9018,4.9018,4.9018,4.9018,4.9018,4.9018,4.9018,4.9018,4.9018,4.9018,4.9018,4.9086,4.9052,4.9052,4.912,4.9018,4.9221,4.9154,4.9154,4.9052,4.9086,4.9052,4.9052,4.9018,4.9018,4.9018,4.9018,4.9018,4.9018,4.9018,4.9018,4.9018,4.9018,4.9018,4.9018,4.9018,4.9018,4.9018,4.9018,4.9018,4.9052,4.9187,4.9695,5.0015,5.0353,5.0913,5.1319,5.1285,5.1319,5.1522,5.1995,5.2232,5.2536,5.2824,5.2926,5.3264,5.3501,5.3501,5.3501,5.3585,5.3653,5.3991,5.4364,5.5281,5.6059,5.7302,5.883,5.9857,6.0974,6.1802,6.2409,6.2657,6.2793,6.2793,6.2793,6.2793,6.2793,6.2793,6.2793,6.2793,6.2793,6.2793,6.2903,6.316,6.3466,6.3759,6.4016,6.4163,6.4187,6.4444,6.4848,6.5398,6.5888,6.6072,6.6072,6.6109,6.6145,6.6182,6.6292,4.594,4.5559,4.5925,4.6484,4.7376,4.8511,4.9018,4.9018,4.9018,4.9018,4.9018,4.9018,4.9018,4.9018,4.9018,4.9018,4.9018,4.9018,4.9018,4.9018,4.9018,4.9018,4.9018,4.9018,4.9018,4.9086,4.9289,4.9526,4.9492,4.9747,4.9916,4.995,4.9848,4.9848,4.995,4.9999,4.9763,4.9492,4.9221,4.9052,4.9018,4.9018,4.9018,4.9018,4.9018,4.9018,4.9018,4.9018,4.9018,4.9018,4.9018,4.9018,4.9018,4.9018,4.9289,4.9323,4.9492,4.9898,5.0439,5.0879,5.1217,5.1674,5.2283,5.2469,5.2418,5.2554,5.2723,5.2858,5.3196,5.3467,5.3467,5.3501,5.3501,5.3501,5.3585,5.3653,5.3957,5.4347,5.5111,5.6047,5.7136,5.8305,5.9405,6.0316,6.1041,6.1761,6.2329,6.2718,6.2793,6.2793,6.2793,6.2793,6.2793,6.2793,6.2793,6.2829,6.2866,6.3013,6.3356,6.3649,6.4066,6.4457,6.4787,6.5118,6.5435,6.5668,6.5778,6.6182,6.6623,6.6769,6.688,6.688,6.6916,6.699,6.7173,4.6716,4.5756,4.6386,4.7077,4.7831,4.8597,4.9018,4.9018,4.9018,4.9018,4.9018,4.9018,4.9018,4.9018,4.9018,4.9018,4.9018,4.9018,4.9018,4.9018,4.9018,4.9018,4.9018,4.9086,4.9289,4.9424,4.9729,5.0202,5.0338,5.0574,5.0829,5.1201,5.1032,5.0897,5.0829,5.0863,5.0558,5.0168,4.9729,4.9424,4.9086,4.9018,4.9018,4.9018,4.9018,4.9018,4.9018,4.9018,4.9003,4.9086,4.912,4.9154,4.9357,4.9424,4.9763,4.9932,5.0168,5.0608,5.1167,5.1657,5.2063,5.2536,5.3044,5.3179,5.3179,5.3129,5.3196,5.3196,5.3433,5.3501,5.3501,5.3501,5.3501,5.3602,5.3754,5.3957,5.4296,5.4974,5.6081,5.6884,5.7638,5.8832,6.0114,6.0982,6.1221,6.1756,6.2284,6.273,6.2793,6.2793,6.2793,6.2793,6.2793,6.2793,6.2793,6.2829,6.2939,6.3172,6.3686,6.431,6.4874,6.5228,6.5508,6.5999,6.6439,6.6512,6.6696,6.6953,6.7173,6.7333,6.7444,6.759,6.7627,6.7554,6.759,4.7234,4.6985,4.7308,4.7311,4.727,4.8477,4.8984,4.9018,4.9018,4.9018,4.9018,4.9018,4.9018,4.9018,4.9018,4.9018,4.9018,4.9018,4.9018,4.9052,4.9052,4.9187,4.9221,4.9643,4.9778,5.0067,5.0457,5.0964,5.1133,5.1269,5.1269,5.1269,5.137,5.1472,5.1438,5.1438,5.1235,5.0913,5.0694,4.9984,4.9323,4.9086,4.9018,4.9052,4.9086,4.9187,4.9154,4.912,4.939,4.9695,4.9796,5.0135,5.0626,5.0626,5.0728,5.0897,5.0947,5.1336,5.1844,5.2317,5.2604,5.301,5.3365,5.3433,5.3467,5.3501,5.3501,5.3501,5.3501,5.3501,5.3501,5.3501,5.3568,5.3788,5.3991,5.4296,5.4651,5.5807,5.6985,5.7601,5.8218,5.9293,6.0544,6.125,6.152,6.1928,6.2464,6.2793,6.2793,6.2793,6.2793,6.2793,6.2793,6.2793,6.2866,6.3099,6.3319,6.3686,6.42,6.491,6.5681,6.6145,6.6586,6.699,6.737,6.726,6.7223,6.7407,6.7627,6.77,6.77,6.77,6.77,6.7627,6.7664,4.7653,4.7399,4.7239,4.7231,4.7367,4.8154,4.868,4.8984,4.9018,4.9018,4.9018,4.9018,4.9018,4.9018,4.9018,4.9018,4.9018,4.9018,4.9018,4.9052,4.9323,4.9526,4.9796,5.0236,5.0473,5.0777,5.1386,5.1792,5.2046,5.2249,5.2283,5.2148,5.2148,5.2148,5.2148,5.2182,5.1979,5.1708,5.1674,5.1032,5.0017,4.9932,4.9999,4.9984,4.995,4.9916,4.9965,4.9999,5.0202,5.0473,5.0574,5.071,5.1032,5.1066,5.1336,5.1573,5.1792,5.2013,5.2554,5.2858,5.301,5.3332,5.3501,5.3501,5.3501,5.3501,5.3501,5.3501,5.3501,5.3501,5.3501,5.3501,5.3856,5.4093,5.4397,5.4735,5.5581,5.6685,5.7404,5.7797,5.8336,5.8943,6.0039,6.07,6.1142,6.2271,6.2768,6.2793,6.2793,6.2976,6.2939,6.2976,6.3086,6.3282,6.3503,6.3686,6.387,6.4286,6.48,6.5718,6.6599,6.7187,6.7664,6.7627,6.7627,6.7627,6.7627,6.77,6.77,6.77,6.77,6.77,6.77,6.77,6.7737,4.7955,4.7374,4.7042,4.7239,4.7788,4.7972,4.8474,4.907,4.9031,4.9018,4.9018,4.9018,4.9018,4.9018,4.9018,4.9018,4.9018,4.9018,4.9018,4.9357,4.9778,5.0033,5.0473,5.0947,5.1352,5.1758,5.2232,5.2773,5.3196,5.3196,5.3196,5.3467,5.3501,5.3467,5.3501,5.3399,5.3027,5.2638,5.2401,5.2114,5.1674,5.1269,5.1066,5.11,5.1201,5.1201,5.1201,5.1167,5.1167,5.1438,5.1505,5.1708,5.1742,5.1877,5.2063,5.2334,5.2469,5.2807,5.3213,5.3332,5.3399,5.3501,5.3501,5.3501,5.3501,5.3501,5.3501,5.3501,5.3501,5.3501,5.3501,5.3754,5.4126,5.4566,5.4871,5.5378,5.6494,5.7426,5.7717,5.8009,5.8388,5.8875,5.9752,6.0412,6.1142,6.2298,6.2793,6.2793,6.2903,6.3209,6.3356,6.349,6.3673,6.387,6.4066,6.436,6.453,6.5118,6.5742,6.6673,6.7407,6.759,6.77,6.77,6.77,6.77,6.77,6.77,6.77,6.77,6.77,6.77,6.77,6.7737,6.7847,4.7955,4.7436,4.7904,4.8318,4.8579,4.8584,4.9071,4.9639,4.9195,4.9018,4.9018,4.9018,4.9018,4.9018,4.9018,4.9018,4.9018,4.9052,4.9492,4.9914,5.0252,5.0574,5.1082,5.1758,5.2435,5.2807,5.3027,5.3298,5.3501,5.3501,5.3501,5.3501,5.3501,5.3501,5.3501,5.3433,5.3365,5.3112,5.3145,5.296,5.2672,5.208,5.1302,5.1201,5.1201,5.1201,5.1201,5.1201,5.1573,5.2046,5.2588,5.279,5.279,5.2757,5.2926,5.2942,5.3078,5.3213,5.3467,5.3501,5.3501,5.3501,5.3501,5.3501,5.3501,5.3501,5.3501,5.3501,5.3501,5.3568,5.3687,5.4126,5.4532,5.5108,5.5547,5.6393,5.7408,5.7753,5.7979,5.8173,5.8388,5.9394,6.068,6.1084,6.12,6.2192,6.278,6.2829,6.3086,6.3429,6.3796,6.409,6.4297,6.42,6.4286,6.4934,6.5301,6.5925,6.6476,6.7026,6.7444,6.7627,6.77,6.77,6.77,6.77,6.77,6.77,6.77,6.77,6.77,6.77,6.77,6.7884,6.8091]}]]